[[{"header":{"parameterUnit":"m.s-1","parameterCategory":1,"la1":30.6,"la2":29.2853,"lo1":-89.7004,"lo2":-87.6739,"dy":0.0162,"dx":0.0183,"nx":112,"ny":82,"refTime":"2026-03-01T12:00:00:Z","depth":0,"parameterNumber":2,"parameterNumberName":"U-component_of_WINDS"},"data":[0.0,0.0,0.0,0.0,0.0,0.0,0.0,0.0,0.0,0.0,0.0,0.0,0.0,0.0,0.0,0.0,0.0,0.0,0.0,0.0,0.0,0.0,0.0,0.0,0.0,0.0,0.0,0.0,0.0,0.0,0.0,0.0,0.0,0.0,0.0,0.0,0.0,0.0,0.0,0.0,0.0,0.0,0.0,0.0,0.0,0.0,0.0,0.0,0.0,0.0,0.0,0.0,0.0,0.0,0.0,0.0,0.0,0.0,0.0,0.0,0.0,0.0,0.0,0.0,0.0,0.0,0.0,0.0,0.0,0.0,0.0,0.0,0.0,0.0,0.0,0.0,0.0,0.0,0.0,0.0,0.0,0.0,0.0,0.0,0.0,0.0,0.0,0.0,0.0,0.0,-0.9131,-1.0217,-1.1893,-1.2695,-1.2242,-1.1839,-1.088,-0.9199,0.0,0.0,0.0,0.0,0.0,0.0,0.0,0.0,0.0,0.0,0.0,0.0,0.0,0.0,0.0,0.0,0.0,0.0,0.0,0.0,0.0,0.0,0.0,0.0,0.0,0.0,0.0,0.0,0.0,0.0,0.0,0.0,0.0,0.0,0.0,0.0,0.0,0.0,0.0,0.0,0.0,0.0,0.0,0.0,0.0,0.0,0.0,0.0,0.0,0.0,0.0,0.0,0.0,0.0,0.0,0.0,0.0,0.0,0.0,0.0,0.0,0.0,0.0,0.0,0.0,0.0,0.0,0.0,0.0,0.0,0.0,0.0,0.0,0.0,0.0,0.0,0.0,0.0,0.0,0.0,0.0,0.0,0.0,0.0,0.0,0.0,0.0,0.0,0.0,0.0,0.0,0.0,0.0,0.0,0.0,0.0,0.0,0.0,0.0,0.0,0.0,0.0,0.0,0.0,-0.9513,-1.1648,-1.2484,-1.2695,-1.2242,-1.1839,-1.0997,-0.9611,0.0,0.0,0.0,0.0,0.0,0.0,0.0,0.0,0.0,0.0,0.0,0.0,0.0,0.0,0.0,0.0,0.0,0.0,0.0,0.0,0.0,0.0,0.0,0.0,0.0,0.0,0.0,0.0,0.0,0.0,0.0,0.0,0.0,0.0,0.0,0.0,0.0,0.0,0.0,0.0,0.0,0.0,0.0,0.0,0.0,0.0,0.0,0.0,0.0,0.0,0.0,0.0,0.0,0.0,0.0,0.0,0.0,0.0,0.0,0.0,0.0,0.0,0.0,0.0,0.0,0.0,0.0,0.0,0.0,0.0,0.0,0.0,0.0,0.0,0.0,0.0,0.0,0.0,0.0,0.0,0.0,0.0,0.0,0.0,0.0,0.0,0.0,0.0,0.0,0.0,0.0,0.0,0.0,0.0,0.0,0.0,0.0,0.0,0.0,0.0,0.0,0.0,0.0,-0.9238,-1.0232,-1.2008,-1.2617,-1.2793,-1.2598,-1.1976,-1.1134,-1.0059,-0.8538,0.0,0.0,0.0,0.0,0.0,0.0,0.0,0.0,0.0,0.0,0.0,0.0,0.0,0.0,0.0,0.0,0.0,0.0,0.0,0.0,0.0,0.0,0.0,0.0,0.0,0.0,0.0,0.0,0.0,0.0,0.0,0.0,0.0,0.0,0.0,0.0,0.0,0.0,0.0,0.0,0.0,0.0,0.0,0.0,0.0,0.0,0.0,0.0,0.0,0.0,0.0,0.0,0.0,0.0,0.0,0.0,0.0,0.0,0.0,0.0,0.0,0.0,0.0,0.0,0.0,0.0,0.0,0.0,0.0,0.0,0.0,0.0,0.0,0.0,0.0,0.0,0.0,0.0,0.0,0.0,0.0,0.0,0.0,0.0,0.0,0.0,0.0,0.0,0.0,0.0,0.0,0.0,0.0,0.0,0.0,0.0,0.0,0.0,0.0,0.0,0.0,0.0,-1.031,-1.1076,-1.2223,-1.2676,-1.2915,-1.2915,-1.1995,-1.1115,-1.0352,-0.8574,0.0,0.0,0.0,0.0,0.0,0.0,0.0,0.0,0.0,0.0,0.0,0.0,0.0,0.0,0.0,0.0,0.0,0.0,0.0,0.0,0.0,0.0,0.0,0.0,0.0,0.0,0.0,0.0,0.0,0.0,0.0,0.0,0.0,0.0,0.0,0.0,0.0,0.0,0.0,0.0,0.0,0.0,0.0,0.0,0.0,0.0,0.0,0.0,0.0,0.0,0.0,0.0,0.0,0.0,0.0,0.0,0.0,0.0,0.0,0.0,0.0,0.0,0.0,0.0,0.0,0.0,0.0,0.0,0.0,0.0,0.0,0.0,0.0,0.0,0.0,0.0,0.0,0.0,0.0,0.0,0.0,0.0,0.0,0.0,0.0,0.0,0.0,0.0,0.0,0.0,0.0,0.0,0.0,0.0,0.0,0.0,0.0,0.0,0.0,0.0,0.0,0.0,-1.0723,-1.1839,-1.2758,-1.2895,-1.2915,-1.2915,-1.1699,-1.0762,-1.0332,-0.8301,0.0,0.0,0.0,0.0,0.0,0.0,0.0,0.0,0.0,0.0,0.0,0.0,0.0,0.0,0.0,0.0,0.0,0.0,0.0,0.0,0.0,0.0,0.0,0.0,0.0,0.0,0.0,0.0,0.0,0.0,0.0,0.0,0.0,0.0,0.0,0.0,0.0,0.0,0.0,0.0,0.0,0.0,0.0,0.0,0.0,0.0,0.0,0.0,0.0,0.0,0.0,0.0,0.0,0.0,0.0,0.0,0.0,0.0,0.0,0.0,0.0,0.0,0.0,0.0,0.0,0.0,0.0,0.0,0.0,0.0,0.0,0.0,0.0,0.0,0.0,0.0,0.0,0.0,0.0,0.0,0.0,0.0,0.0,0.0,0.0,0.0,0.0,0.0,0.0,0.0,0.0,0.0,0.0,0.0,0.0,0.0,0.0,0.0,0.0,0.0,0.0,0.0,-1.0607,-1.1623,-1.2778,-1.2915,-1.2915,-1.2915,-1.1937,-1.1036,-1.0352,0.0,0.0,0.0,0.0,0.0,0.0,0.0,0.0,0.0,0.0,0.0,0.0,0.0,0.0,0.0,0.0,0.0,0.0,0.0,0.0,0.0,0.0,0.0,0.0,0.0,0.0,0.0,0.0,0.0,0.0,0.0,0.0,0.0,0.0,0.0,0.0,0.0,0.0,0.0,0.0,0.0,0.0,0.0,0.0,0.0,0.0,0.0,0.0,0.0,0.0,0.0,0.0,0.0,0.0,0.0,0.0,0.0,0.0,0.0,0.0,0.0,0.0,0.0,0.0,0.0,0.0,0.0,0.0,0.0,0.0,0.0,0.0,0.0,0.0,0.0,0.0,0.0,0.0,0.0,0.0,0.0,0.0,0.0,0.0,0.0,0.0,0.0,0.0,0.0,0.0,0.0,0.0,0.0,0.0,0.0,0.0,0.0,0.0,0.0,0.0,0.0,0.0,-0.986,-1.0706,-1.1523,-1.2559,-1.2676,-1.2617,-1.2504,-1.1545,-1.0665,-0.9941,0.0,0.0,0.0,0.0,0.0,0.0,0.0,0.0,0.0,0.0,0.0,0.0,0.0,0.0,0.0,0.0,0.0,0.0,0.0,0.0,0.0,0.0,0.0,0.0,0.0,0.0,0.0,0.0,0.0,0.0,0.0,0.0,0.0,0.0,0.0,0.0,0.0,0.0,0.0,0.0,0.0,0.0,0.0,0.0,0.0,0.0,0.0,0.0,0.0,0.0,0.0,0.0,0.0,0.0,0.0,0.0,0.0,0.0,0.0,0.0,0.0,0.0,0.0,0.0,0.0,0.0,0.0,0.0,0.0,0.0,0.0,0.0,0.0,0.0,0.0,0.0,0.0,0.0,0.0,0.0,0.0,0.0,0.0,0.0,0.0,0.0,0.0,0.0,0.0,0.0,0.0,0.0,0.0,0.0,0.0,0.0,0.0,0.0,0.0,0.0,0.0,0.0,-1.0078,-1.1036,-1.1741,-1.2145,-1.2203,-1.2031,-1.1623,-1.0371,-0.9435,0.0,0.0,0.0,0.0,0.0,0.0,0.0,0.0,0.0,0.0,0.0,0.0,0.0,0.0,0.0,0.0,0.0,0.0,0.0,0.0,0.0,0.0,0.0,0.0,0.0,0.0,0.0,0.0,0.0,0.0,0.0,0.0,0.0,0.0,0.0,0.0,0.0,0.0,0.0,0.0,0.0,0.0,0.0,0.0,0.0,0.0,0.0,0.0,0.0,0.0,0.0,0.0,0.0,0.0,0.0,0.0,0.0,0.0,0.0,0.0,0.0,0.0,0.0,0.0,0.0,0.0,0.0,0.0,0.0,0.0,0.0,0.0,0.0,0.0,0.0,0.0,0.0,0.0,0.0,0.0,0.0,0.0,0.0,0.0,0.0,0.0,0.0,0.0,0.0,0.0,0.0,0.0,0.0,0.0,0.0,0.0,0.0,0.0,0.0,0.0,0.0,0.0,0.0,-0.9591,-1.0312,-1.0958,-1.1702,-1.178,-1.1721,-1.1606,-1.0684,-0.9785,-0.9043,0.0,0.0,0.0,0.0,0.0,0.0,0.0,0.0,0.0,0.0,0.0,0.0,0.0,0.0,0.0,0.0,0.0,0.0,0.0,0.0,0.0,0.0,0.0,0.0,0.0,0.0,0.0,0.0,0.0,0.0,0.0,0.0,0.0,0.0,0.0,0.0,0.0,0.0,0.0,0.0,0.0,0.0,0.0,0.0,0.0,0.0,0.0,0.0,0.0,0.0,0.0,0.0,0.0,0.0,0.0,0.0,0.0,0.0,0.0,0.0,0.0,0.0,0.0,0.0,0.0,0.0,0.0,0.0,0.0,0.0,0.0,0.0,0.0,0.0,0.0,0.0,0.0,0.0,0.0,0.0,0.0,0.0,0.0,0.0,0.0,0.0,0.0,0.0,0.0,0.0,0.0,0.0,0.0,0.0,0.0,0.0,0.0,0.0,0.0,0.0,0.0,0.0,-0.9398,-1.0156,-1.0723,-1.1271,-1.133,-1.1252,-1.1116,-1.0293,-0.9473,-0.8809,0.0,0.0,0.0,0.0,0.0,0.0,0.0,0.0,0.0,0.0,0.0,0.0,0.0,0.0,0.0,0.0,0.0,0.0,0.0,0.0,0.0,0.0,0.0,0.0,0.0,0.0,0.0,0.0,0.0,0.0,0.0,0.0,0.0,0.0,0.0,0.0,0.0,0.0,0.0,0.0,0.0,0.0,0.0,0.0,0.0,0.0,0.0,0.0,0.0,0.0,0.0,0.0,0.0,0.0,0.0,0.0,0.0,0.0,0.0,0.0,0.0,0.0,0.0,0.0,0.0,0.0,0.0,0.0,0.0,0.0,0.0,0.0,0.0,0.0,0.0,0.0,0.0,0.0,0.0,0.0,0.0,0.0,0.0,0.0,0.0,0.0,0.0,0.0,0.0,0.0,0.0,0.0,0.0,0.0,0.0,0.0,0.0,0.0,0.0,0.0,0.0,0.0,-0.9378,-1.0273,-1.0801,-1.084,-1.0839,-1.0703,-1.0332,-0.9531,-0.8867,-0.8414,0.0,0.0,0.0,0.0,0.0,0.0,0.0,0.0,0.0,0.0,0.0,0.0,0.0,0.0,0.0,0.0,0.0,0.0,0.0,0.0,0.0,0.0,0.0,0.0,0.0,0.0,0.0,0.0,0.0,0.0,0.0,0.0,0.0,0.0,0.0,0.0,0.0,0.0,0.0,0.0,0.0,0.0,0.0,0.0,0.0,0.0,0.0,0.0,0.0,0.0,0.0,0.0,0.0,0.0,0.0,0.0,0.0,0.0,0.0,0.0,-1.2871,-1.2028,0.0,0.0,0.0,0.0,0.0,0.0,0.0,0.0,0.0,0.0,0.0,0.0,0.0,0.0,0.0,0.0,0.0,0.0,0.0,0.0,0.0,0.0,0.0,0.0,0.0,0.0,0.0,0.0,0.0,0.0,0.0,0.0,0.0,0.0,0.0,0.0,0.0,0.0,0.0,0.0,-0.8948,-0.9572,-1.002,-1.0391,-1.043,-1.0391,-1.0312,-0.9786,-0.9162,-0.8434,-0.7793,0.0,0.0,0.0,0.0,0.0,0.0,0.0,0.0,0.0,0.0,0.0,0.0,0.0,0.0,0.0,0.0,0.0,0.0,0.0,0.0,0.0,0.0,0.0,0.0,0.0,0.0,0.0,0.0,0.0,0.0,0.0,0.0,0.0,0.0,0.0,0.0,0.0,0.0,0.0,0.0,0.0,0.0,0.0,0.0,0.0,0.0,0.0,0.0,0.0,0.0,0.0,0.0,0.0,0.0,0.0,0.0,0.0,0.0,0.0,-1.4785,-1.3977,0.0,0.0,0.0,0.0,0.0,0.0,0.0,0.0,0.0,0.0,0.0,0.0,0.0,0.0,0.0,0.0,0.0,0.0,0.0,0.0,0.0,0.0,0.0,0.0,0.0,0.0,0.0,0.0,0.0,0.0,0.0,0.0,0.0,0.0,0.0,0.0,0.0,0.0,0.0,0.0,-0.9453,-0.998,-1.039,-1.086,-1.0723,-1.0586,-1.0586,-0.9981,-0.9435,-0.9004,-0.8168,0.0,0.0,0.0,0.0,0.0,0.0,0.0,0.0,0.0,0.0,0.0,0.0,0.0,0.0,0.0,0.0,0.0,0.0,0.0,0.0,0.0,0.0,0.0,0.0,0.0,0.0,0.0,0.0,0.0,0.0,0.0,0.0,0.0,0.0,0.0,0.0,0.0,0.0,0.0,0.0,0.0,0.0,0.0,0.0,0.0,0.0,0.0,0.0,0.0,0.0,0.0,0.0,0.0,-1.8477,-1.8711,-1.8594,-1.889,-1.9046,-1.8948,-1.7174,-1.659,-1.6804,-1.5303,0.0,0.0,0.0,0.0,0.0,0.0,0.0,0.0,0.0,0.0,0.0,0.0,0.0,0.0,0.0,0.0,0.0,0.0,0.0,0.0,0.0,0.0,-1.2093,-1.2285,-1.2676,-1.2383,-1.0156,0.0,0.0,0.0,0.0,0.0,0.0,0.0,0.0,0.0,0.0,0.0,-1.0156,-1.0723,-1.1172,-1.1567,-1.1252,-1.0996,-1.0918,-1.0235,-0.9767,-0.9612,-0.862,-0.7958,0.0,0.0,0.0,0.0,0.0,0.0,0.0,0.0,0.0,0.0,0.0,0.0,0.0,0.0,0.0,0.0,0.0,0.0,0.0,0.0,0.0,0.0,0.0,0.0,0.0,0.0,0.0,0.0,0.0,0.0,0.0,0.0,-1.386,-1.4394,0.0,0.0,0.0,0.0,0.0,0.0,0.0,0.0,0.0,0.0,0.0,0.0,0.0,-1.7266,-1.7754,-1.9297,-1.9902,-1.959,-2.1172,-2.1523,-2.0781,-2.082,-2.0859,-2.0839,-2.0547,0.0,-1.7793,-1.7207,0.0,0.0,0.0,0.0,0.0,0.0,0.0,0.0,0.0,0.0,0.0,0.0,0.0,0.0,0.0,0.0,0.0,0.0,0.0,0.0,0.0,0.0,-1.3607,-1.2949,-1.3125,-1.3223,-1.2543,-1.1213,-0.9882,-0.9004,-0.8227,-0.7647,0.0,0.0,0.0,0.0,0.0,0.0,-1.0234,-1.0997,-1.1547,-1.1606,-1.1547,-1.1349,-1.0937,-1.078,-1.041,-0.9651,-0.9437,-0.9045,-0.8336,-0.7798,0.0,0.0,0.0,0.0,0.0,0.0,0.0,0.0,0.0,0.0,0.0,0.0,0.0,0.0,0.0,0.0,0.0,0.0,0.0,0.0,0.0,0.0,0.0,0.0,0.0,0.0,0.0,0.0,0.0,-1.3926,-1.4824,-1.4785,-1.5039,-1.4941,0.0,0.0,0.0,0.0,0.0,0.0,0.0,0.0,0.0,-1.8442,-1.9163,-1.9863,-2.0527,-2.1523,-2.1975,-2.1738,-2.25,-2.2633,-2.2262,-2.2262,-2.2262,-2.2262,-2.2262,-2.16,-2.043,-1.9023,-1.7852,-1.6824,0.0,0.0,0.0,0.0,-1.5527,-1.542,-1.6317,-1.6356,-1.5996,-1.5654,0.0,0.0,0.0,0.0,0.0,0.0,0.0,-1.3613,-1.3443,-1.4324,-1.5146,-1.4774,-1.5,-1.5137,-1.4453,-1.3516,-1.2367,-1.0762,-1.0352,-0.9845,-0.8636,-0.8616,0.0,0.0,0.0,-1.0332,-1.125,-1.1699,-1.2031,-1.2308,-1.209,-1.1855,-1.1638,-1.117,-1.0742,-1.0351,-0.9884,-0.9455,-0.9102,-0.8437,-0.7891,0.0,0.0,0.0,0.0,0.0,0.0,0.0,0.0,0.0,0.0,0.0,0.0,0.0,0.0,0.0,0.0,0.0,0.0,0.0,0.0,0.0,0.0,0.0,0.0,0.0,0.0,0.0,0.0,-1.5039,-1.5801,-1.5488,-1.6339,-1.6328,0.0,0.0,0.0,0.0,0.0,0.0,-1.8179,-1.8711,-1.9531,-2.0664,-2.1444,-2.2246,-2.2988,-2.3437,-2.3697,-2.3697,-2.375,-2.3705,-2.3633,-2.3633,-2.3574,-2.3413,-2.3315,-2.3125,-2.2695,-2.0762,-1.9629,-1.9023,-1.7935,-1.7447,-1.7408,-1.7871,-1.7832,-1.7662,-1.8734,-1.8848,-1.8418,-1.7891,-1.7467,-1.6863,-1.5176,0.0,0.0,0.0,0.0,-1.5478,-1.5478,-1.6026,-1.6555,-1.6457,-1.666,-1.6668,-1.5888,-1.5508,-1.4648,-1.2504,-1.2246,-1.1833,-1.0098,-1.0079,0.0,-1.0118,-1.0605,-1.125,-1.2106,-1.2398,-1.2637,-1.2876,-1.2598,-1.232,-1.2223,-1.1599,-1.1131,-1.0918,-1.0293,-0.9845,-0.9612,-0.9023,-0.8437,-0.7895,0.0,0.0,0.0,0.0,0.0,0.0,0.0,0.0,0.0,0.0,0.0,0.0,0.0,0.0,0.0,0.0,0.0,0.0,0.0,0.0,0.0,0.0,0.0,0.0,0.0,0.0,0.0,0.0,0.0,-1.7266,-1.8394,0.0,0.0,0.0,0.0,-1.7852,-1.8652,-1.9529,-2.039,-2.123,-2.209,-2.2906,-2.3418,-2.3867,-2.4316,-2.4746,-2.5008,-2.5028,-2.541,-2.5391,-2.5008,-2.5008,-2.4746,-2.4336,-2.3926,-2.375,-2.3613,-2.2305,-2.129,-2.0449,-1.9941,-1.9512,-1.9219,-1.9629,-1.9766,-1.9824,-2.0331,-2.0176,-1.9883,-2.0292,-1.9551,-1.8403,-1.7896,-1.7174,0.0,0.0,-1.6894,-1.7279,-1.7279,-1.7578,-1.7812,-1.7455,-1.7344,-1.7227,-1.6726,-1.6629,-1.5966,-1.3828,-1.3105,-1.2676,-1.2125,0.0,-1.1931,-1.1545,-1.221,-1.2617,-1.2262,-1.2905,-1.3301,-1.2954,-1.2895,-1.2676,-1.2242,-1.2164,-1.1775,-1.0936,-1.0859,-1.0468,-0.9631,-0.9554,-0.9162,-0.8375,-0.7876,0.0,0.0,0.0,0.0,0.0,0.0,0.0,0.0,0.0,0.0,0.0,0.0,0.0,0.0,0.0,0.0,0.0,0.0,0.0,0.0,0.0,0.0,0.0,0.0,0.0,0.0,0.0,0.0,-1.9431,-2.0566,0.0,-1.9336,-1.9609,-2.0039,-2.0469,-2.1035,-2.1738,-2.2598,-2.3203,-2.3789,-2.4355,-2.4805,-2.5117,-2.5226,-2.541,-2.5352,-2.5106,-2.5234,-2.5078,-2.4648,-2.4648,-2.457,-2.4414,-2.4258,-2.4043,-2.375,-2.3301,-2.2598,-2.1777,-2.1348,-2.1094,-2.0977,-2.1133,-2.1191,-2.1211,-2.1367,-2.1309,-2.1152,-2.1035,-2.0117,-1.9023,-1.8887,-1.8418,-1.7915,-1.7915,-1.8262,-1.8613,-1.8613,-1.873,-1.8789,-1.8652,-1.8398,-1.8066,-1.7623,-1.7344,-1.6836,-1.5751,-1.5,-1.4199,-1.3198,-1.3022,-1.3008,-1.2832,-1.3086,-1.332,-1.3412,-1.3685,-1.3821,-1.3711,-1.3437,-1.3223,-1.3042,-1.2515,-1.1973,-1.1389,-1.1055,-1.0645,-1.0078,-0.9513,-0.9082,-0.8789,-0.7812,-0.7154,0.0,0.0,0.0,0.0,0.0,0.0,0.0,0.0,0.0,0.0,0.0,0.0,0.0,0.0,0.0,0.0,0.0,0.0,0.0,0.0,0.0,0.0,0.0,0.0,0.0,-1.9316,-2.0684,-2.1016,-2.2285,-2.2598,-2.1192,-2.166,-2.2266,-2.2715,-2.3144,-2.3691,-2.4414,-2.4707,-2.5,-2.5293,-2.5586,-2.5693,-2.5693,-2.5693,-2.5586,-2.5293,-2.5293,-2.5137,-2.4816,-2.4816,-2.4816,-2.4844,-2.4707,-2.4473,-2.4219,-2.4062,-2.3574,-2.291,-2.248,-2.2305,-2.2305,-2.2305,-2.2305,-2.2305,-2.2305,-2.2227,-2.2051,-2.1758,-2.0977,-2.0156,-2.0156,-1.9961,-1.967,-1.9514,-1.9689,-1.9902,-1.9766,-1.9609,-1.9492,-1.9492,-1.918,-1.8695,-1.8286,-1.8008,-1.7637,-1.707,-1.6336,-1.5459,-1.4355,-1.4141,-1.4043,-1.3743,-1.3848,-1.4064,-1.4446,-1.4613,-1.476,-1.4882,-1.4388,-1.4017,-1.3877,-1.3091,-1.2402,-1.1839,-1.1367,-1.0958,-1.0508,-0.9805,-0.9375,-0.9201,-0.8242,-0.7734,-0.7734,0.0,0.0,0.0,0.0,0.0,0.0,0.0,0.0,0.0,0.0,0.0,0.0,0.0,0.0,0.0,0.0,0.0,0.0,0.0,0.0,0.0,0.0,0.0,-1.9297,-2.084,-2.1953,-2.1992,-2.3457,-2.3809,-2.2168,-2.3125,-2.4023,-2.4434,-2.4863,-2.5293,-2.5693,-2.5713,-2.5732,-2.5732,-2.5732,-2.5732,-2.5732,-2.5732,-2.5732,-2.5732,-2.5732,-2.5713,-2.5713,-2.5713,-2.5693,-2.5674,-2.5273,-2.5125,-2.5086,-2.4609,-2.418,-2.3769,-2.3276,-2.3101,-2.3101,-2.3101,-2.3101,-2.3101,-2.3101,-2.2828,-2.2539,-2.2539,-2.2246,-2.1894,-2.1894,-2.1894,-2.1797,-2.1327,-2.121,-2.1093,-2.0742,-2.0254,-1.9941,-1.9941,-1.9609,-1.9199,-1.8734,-1.8637,-1.8383,-1.7578,-1.709,-1.6473,-1.5576,-1.5449,-1.5147,-1.4309,-1.4598,0.0,-1.5232,-1.5653,-1.6052,-1.639,-1.569,-1.5062,-1.4719,-1.3952,-1.3145,-1.2285,-1.1839,-1.1389,-1.0918,-1.0488,-1.0059,-0.9592,-0.9201,-0.9004,-0.8984,0.0,0.0,0.0,0.0,0.0,0.0,0.0,0.0,0.0,0.0,0.0,0.0,0.0,0.0,0.0,0.0,0.0,0.0,0.0,0.0,0.0,-1.9065,-2.0527,-2.0644,-2.2187,-2.3496,-2.4167,-2.4883,-2.5148,-2.468,-2.4953,-2.5206,-2.5323,-2.5781,-2.6074,-2.6211,-2.6504,-2.666,-2.666,-2.666,-2.666,-2.666,-2.666,-2.666,-2.666,-2.666,-2.6504,-2.6211,-2.6211,-2.6035,-2.5674,-2.5557,-2.5371,-2.5106,-2.4941,-2.4629,-2.4199,-2.3769,-2.3418,-2.3101,-2.3101,-2.3101,-2.3101,-2.3101,-2.3023,-2.2925,-2.2925,-2.2633,-2.2344,-2.2344,-2.2129,-2.1855,-2.1738,-2.1484,-2.1171,-2.1034,-2.0723,-2.0429,-2.0429,-2.0059,-1.9707,-1.9553,-1.9316,-1.8945,-1.8364,-1.8169,-1.7701,-1.6531,-1.6336,-1.6258,-1.6024,-1.6316,-1.6552,-1.6657,-1.6476,-1.6565,-1.7198,-1.5846,-1.5293,-1.6254,-1.4579,-1.3348,-1.3024,-1.213,-1.1389,-1.0918,-1.0176,-0.9591,-0.9162,-0.9062,-0.8848,0.0,0.0,0.0,0.0,0.0,0.0,0.0,0.0,0.0,0.0,0.0,0.0,0.0,0.0,0.0,0.0,0.0,0.0,0.0,0.0,0.0,0.0,-2.1132,-2.2652,-2.3023,-2.3984,-2.4863,-2.5547,-2.6016,-2.622,-2.622,-2.622,-2.622,-2.622,-2.6504,-2.6641,-2.6641,-2.6875,-2.7012,-2.7012,-2.7012,-2.7012,-2.7012,-2.7012,-2.7012,-2.7012,-2.7012,-2.6894,-2.6641,-2.6641,-2.6426,-2.6016,-2.6016,-2.5762,-2.5352,-2.5352,-2.5078,-2.4648,0.0,0.0,0.0,0.0,-2.3101,-2.3101,-2.3101,-2.3101,-2.3101,-2.3101,-2.2925,-2.2734,-2.2559,-2.2344,-2.207,-2.1719,-2.1385,-2.1151,-2.0996,-2.0762,-2.0605,-2.0605,-2.041,-2.0137,-1.9961,-1.9727,-1.9414,-1.8984,-1.887,0.0,-1.7662,-1.7213,-1.7061,-1.721,-1.7103,-1.7245,-1.7913,-1.7302,-1.7091,-1.7807,-1.6727,-1.6248,-1.6938,-1.5278,0.0,0.0,0.0,-1.1955,-1.1308,-1.0548,0.0,0.0,0.0,0.0,0.0,0.0,0.0,0.0,-0.8509,-0.8071,0.0,0.0,0.0,0.0,0.0,0.0,0.0,0.0,0.0,0.0,0.0,0.0,0.0,0.0,0.0,0.0,-2.3198,-2.4836,-2.5713,-2.5869,-2.6074,-2.6426,-2.6777,-2.7012,-2.7012,-2.7012,-2.7012,-2.7012,-2.707,-2.709,-2.709,-2.7129,0.0,0.0,0.0,-2.7168,-2.7168,-2.7168,-2.7168,-2.7168,-2.7168,-2.7129,-2.709,-2.709,-2.6855,-2.6465,-2.6406,-2.6172,-2.5752,-2.5713,-2.5508,-2.5145,-2.4609,-2.418,-2.3809,-2.3335,-2.3159,-2.3159,-2.312,0.0,0.0,-2.3101,-2.3101,-2.3023,-2.2695,-2.2559,-2.2363,-2.1561,-2.1268,-2.1112,-2.0742,-2.0644,-2.0605,-2.0605,-2.0605,-2.0507,-2.0078,-1.998,-1.9863,-1.9434,-1.9355,-1.9255,-1.8911,-1.8115,-1.7625,-1.7937,-1.7385,-1.7439,-1.8841,-1.8008,-1.756,-1.8344,-1.7885,0.0,-1.7213,-1.602,-1.5365,-1.5573,-1.4218,-1.2999,-1.2102,-1.1614,-1.1462,-1.1695,-1.1755,-1.195,-1.2342,-1.2913,-1.287,-1.2206,-1.0319,-0.9587,0.0,0.0,0.0,0.0,0.0,0.0,0.0,0.0,0.0,0.0,0.0,0.0,0.0,0.0,0.0,-2.3008,-2.4531,-2.5732,-2.6641,-2.707,-2.7187,-2.6934,-2.6973,-2.7012,-2.7012,-2.7012,-2.7012,-2.7012,-2.7344,-2.7539,-2.7539,-2.7851,-2.8047,-2.8047,-2.8047,-2.8047,-2.8047,-2.8047,-2.8047,-2.8047,-2.8047,0.0,-2.7539,-2.7539,-2.7305,-2.6875,-2.6543,-2.6348,-2.623,-2.583,-2.5635,-2.5527,-2.4727,-2.4355,-2.4238,-2.3828,-2.3672,-2.3613,-2.3218,-2.3101,-2.3101,-2.3101,-2.3101,-2.3081,-2.3003,-2.2773,0.0,-2.2305,-2.1736,-2.1171,-2.1093,-2.084,-2.0605,-2.0605,-2.0605,-2.0586,-2.0488,-2.0468,-2.0312,-1.9883,-1.9785,-1.9908,-2.0312,-1.9239,-1.8277,-1.8048,-1.8096,-1.8268,-1.8564,-1.8071,-1.8081,-1.9071,-1.8025,-1.7556,-1.8327,-1.6762,-1.5907,-1.6212,-1.5578,-1.4744,-1.3775,-1.4005,-1.3564,-1.2361,-1.2651,-1.2903,-1.3097,-1.359,-1.4065,-1.4426,-1.2828,-1.1916,0.0,0.0,0.0,0.0,0.0,0.0,0.0,0.0,0.0,0.0,0.0,-1.9787,-2.0411,0.0,-2.3516,-2.459,-2.5859,-2.6855,-2.7285,-2.7715,-2.7832,-2.7383,-2.7519,-2.7656,-2.7656,-2.7656,-2.7656,-2.7656,-2.7851,-2.7988,-2.7988,-2.8184,-2.8301,-2.8301,-2.8301,-2.8301,-2.8301,-2.8301,-2.8301,-2.8301,-2.8301,-2.8184,-2.7988,-2.7988,-2.7754,-2.7324,-2.7129,-2.6894,-2.666,-2.623,-2.5937,-2.5635,-2.5206,-2.4941,-2.4687,-2.4258,-2.4102,-2.4043,-2.3613,-2.3457,-2.3437,-2.3159,-2.3101,-2.3062,-2.2847,-2.2676,-2.2461,-2.2266,-2.1738,-2.119,-2.119,-2.0898,-2.0605,-2.0605,-2.0605,-2.0605,-2.0605,-2.0605,-2.0546,-2.0273,-2.0234,-2.0287,-2.0349,-1.9743,-1.9509,-2.0233,-1.9901,-1.9725,-2.0169,-1.9412,-1.8895,-1.8985,-1.8474,-1.8174,-1.8229,-1.7623,-1.7145,-1.687,-1.6641,-1.6174,-1.5423,-1.5337,-1.4925,-1.4138,-1.4313,-1.4555,-1.4843,-1.5397,-1.5653,-1.5654,-1.5555,-1.4934,0.0,0.0,0.0,0.0,0.0,0.0,0.0,-1.8301,-1.875,-2.0019,-2.125,-2.2243,-2.2891,-2.4277,-2.5488,-2.6035,-2.6992,-2.7748,-2.7826,-2.8086,-2.8164,-2.7885,-2.8086,-2.8301,-2.8301,-2.8301,-2.8301,-2.8301,-2.8301,-2.8301,-2.8301,-2.8301,-2.8301,-2.8301,-2.8301,-2.8301,-2.8301,-2.8301,-2.8301,-2.8301,-2.8301,-2.8301,-2.8301,-2.8301,-2.8105,-2.7793,-2.7748,-2.7422,-2.6992,-2.6641,-2.625,-2.5859,-2.5859,-2.5586,-2.5137,-2.4707,-2.4551,-2.4492,-2.4062,-2.3906,-2.3848,-2.3354,-2.3218,-2.314,-2.2711,-2.2578,-2.2441,-2.2109,-2.1699,-2.1327,-2.1327,-2.1035,-2.0742,-2.0742,-2.0664,-2.0605,-2.0605,-2.0605,-2.0605,-2.0605,-2.0605,-2.0604,-2.0607,-2.0504,-2.0819,-2.1867,-2.1137,-2.0725,-2.1421,-2.0646,-1.9807,-1.9134,-1.931,-1.9081,-1.8138,-1.8458,-1.8401,-1.7682,-1.7692,-1.7555,-1.7217,-1.6646,-1.6241,-1.6029,-1.6097,-1.6326,-1.6713,-1.7306,-1.7354,-1.6926,-1.7848,-1.746,-1.9026,-1.7564,-1.7116,-1.8574,-1.8398,-1.8867,0.0,-2.2715,-2.2305,-2.3574,-2.4543,-2.5137,-2.4844,-2.5586,-2.6504,-2.7324,-2.763,-2.7793,-2.8164,-2.8262,-2.8281,-2.8223,-2.8262,-2.8301,-2.8301,-2.8301,-2.8301,-2.8301,-2.8301,-2.8301,-2.8301,-2.8301,-2.8301,-2.8301,-2.8301,-2.8301,-2.8301,-2.8301,-2.8301,-2.8301,-2.8301,-2.8301,-2.8301,-2.8301,-2.8262,-2.8203,-2.7885,-2.7422,-2.7012,-2.6973,-2.6699,-2.6309,-2.6309,-2.6055,-2.5557,-2.5156,-2.5047,-2.4988,-2.4492,-2.4355,-2.4277,-2.3848,-2.3711,-2.3633,-2.3159,-2.2769,-2.25,-2.2461,-2.2148,-2.1816,-2.1816,-2.1484,-2.1112,-2.1112,-2.0859,-2.0605,-2.0605,-2.0605,-2.0605,-2.0605,-2.0605,-2.1145,-2.2811,-2.2717,-2.179,-1.9945,-1.9864,-1.9999,-2.0101,-2.0358,-2.0597,-2.0724,-2.0758,-2.0278,-1.9067,-1.9,-1.8998,-1.8892,-1.9081,-1.9266,-1.9433,-1.8933,-1.8142,-1.7146,-1.7476,-1.7737,-1.7908,-1.836,-1.8837,-1.938,-1.8889,-1.8027,-2.1016,-2.0137,-1.9902,-2.0625,-2.1094,-2.1914,-2.3945,-2.4199,-2.4297,-2.5352,-2.625,-2.6719,-2.6289,-2.6914,-2.7539,-2.7708,-2.7924,-2.8086,-2.8262,-2.8301,-2.8203,-2.7949,-2.793,-2.8027,-2.8262,-2.8301,-2.8301,-2.8301,-2.8301,-2.8301,-2.8301,-2.8301,-2.8301,-2.8301,-2.8301,-2.8301,-2.8301,-2.8301,-2.8301,-2.8301,-2.8301,-2.8301,-2.8301,-2.8301,-2.8301,-2.8281,-2.8105,-2.7793,-2.7402,-2.7402,-2.7148,-2.6758,-2.6758,-2.6484,-2.6055,-2.5625,-2.5449,-2.5391,-2.4941,-2.4805,-2.4727,-2.4297,-2.416,-2.4082,-2.3652,-2.3398,-2.3203,-2.2949,-2.2578,-2.2246,-2.2246,-2.1934,-2.1543,-2.1249,-2.1094,-2.0879,-2.0664,-2.0605,-2.0605,-2.0605,-2.0605,-2.0857,-2.168,-2.1628,-2.1142,-2.021,-2.1585,-2.276,-2.276,-2.2218,-2.1545,-2.0825,-2.0779,-2.0603,-2.0248,-2.0201,-2.0293,-2.0505,-2.06,-2.0686,-2.079,-2.0564,-2.0232,-1.9746,-1.9914,-2.0013,-2.0091,-2.0259,-2.0275,-2.0165,-2.0275,-1.9867,-2.2168,-2.1973,-2.2109,-2.2344,-2.3379,-2.4473,-2.5019,-2.5469,-2.6026,-2.6602,-2.7324,-2.7676,-2.7109,-2.7715,-2.8164,-2.7787,-2.8027,-2.8301,-2.8301,-2.8184,-2.8008,-2.7748,-2.7611,-2.7598,-2.791,-2.8047,-2.8164,-2.8281,-2.8301,-2.8301,-2.8301,-2.8301,-2.8301,-2.8301,-2.8301,-2.8301,-2.8301,-2.8301,-2.8301,-2.8301,-2.8301,-2.8301,-2.8301,-2.8301,-2.8301,-2.8301,-2.8301,-2.8125,-2.7885,-2.7885,-2.7578,-2.7187,-2.7187,-2.6934,-2.6504,-2.6074,-2.5791,-2.5635,-2.5371,-2.5254,-2.5176,-2.4746,-2.459,-2.4512,-2.4102,-2.3887,-2.373,-2.3398,-2.3008,-2.2676,-2.2676,-2.2383,-2.1973,-2.1619,-2.1463,-2.1289,-2.084,-2.0977,-2.1151,-2.0992,-2.1183,-2.1489,-2.1756,-2.1832,-2.1907,-2.2188,-2.3944,-2.5012,-2.4286,-2.3668,-2.2847,-2.1664,-2.153,-2.1447,-2.127,-2.1253,-2.135,-2.1572,-2.1428,-2.1468,-2.1719,-2.1568,-2.1493,-2.1493,-2.1493,-2.1493,-2.1493,-2.1493,-2.1216,-2.0734,-2.1244,-2.1216,-2.2012,-2.2187,-2.2695,-2.3516,-2.4707,-2.5849,-2.6738,-2.7266,-2.765,-2.7669,-2.7969,-2.8008,-2.7168,-2.7715,-2.8164,-2.7787,-2.8027,-2.8301,-2.8301,-2.793,-2.7728,-2.7728,-2.7285,-2.7031,-2.7051,-2.7441,-2.7851,-2.8262,-2.8301,-2.8301,-2.8301,-2.8301,-2.8301,-2.8301,-2.8301,-2.8301,-2.8301,-2.8301,-2.8301,-2.8301,-2.8301,-2.8301,-2.8301,-2.8301,-2.8301,-2.8301,-2.8301,-2.8281,-2.8281,-2.8281,-2.8027,-2.7708,-2.7708,-2.7383,-2.6953,-2.6523,-2.6094,-2.5693,-2.5674,-2.5674,-2.5644,-2.5195,-2.5106,-2.4961,-2.4531,-2.4121,-2.3789,-2.3769,-2.3457,-2.3081,-2.3081,-2.2769,-2.248,-2.248,-2.2168,-2.1738,-2.1268,-2.1967,-2.2506,-2.2046,-2.2728,-2.3708,-2.4707,-2.4874,-2.5194,-2.6164,-2.638,-2.5546,-2.3079,-2.39,-2.4518,-2.3967,-2.3917,-2.3356,-2.1994,-2.1854,-2.1885,-2.1892,-2.133,-2.1373,-2.2243,-2.1769,-2.1493,-2.1493,-2.1493,-2.1493,-2.1493,-2.1493,-2.1493,-2.1465,-2.1493,-2.1493,-2.2598,-2.3437,-2.4414,-2.5293,-2.6269,-2.7168,-2.7734,-2.7969,-2.8086,-2.8086,-2.7734,-2.7363,-2.707,-2.7246,-2.7402,-2.7266,-2.7832,-2.8301,-2.8301,-2.8164,-2.7871,-2.7305,-2.7109,-2.6914,-2.6621,-2.6992,-2.7422,-2.7904,-2.7871,-2.8125,-2.8672,-2.8711,-2.8848,-2.9121,-2.9141,-2.9141,-2.9141,-2.9141,-2.9141,-2.9141,-2.8848,-2.8555,-2.8301,-2.8301,-2.8301,-2.8301,-2.8301,-2.8301,-2.8301,-2.8301,-2.8203,-2.8086,-2.8086,-2.7832,-2.7422,-2.7285,-2.6953,-2.6504,-2.5888,-2.5693,-2.5674,-2.5566,-2.5508,-2.543,-2.498,-2.4746,-2.457,-2.4297,-2.3906,-2.3574,-2.3574,-2.3242,-2.2808,-2.2578,-2.2402,-2.2187,-2.1758,-2.1708,-2.167,-2.149,-2.2039,-2.2616,-2.2951,-2.3562,-2.4108,-2.4469,-2.5063,-2.4837,-2.3067,-2.3756,-2.3958,-2.2811,-2.3798,-2.4329,-2.3875,-2.3818,-2.3818,-2.3818,-2.33,-2.3127,-2.3427,-2.2874,-2.2543,-2.2543,-2.2543,-2.2543,-2.2543,-2.2543,-2.2543,-2.2543,-2.2543,-2.2543,-2.3705,-2.4785,-2.5742,-2.6621,-2.7363,-2.7969,-2.8223,-2.8301,-2.8262,-2.8105,-2.7383,-2.6738,-2.6582,-2.6289,-2.625,-2.6719,-2.7246,-2.7773,-2.8223,-2.8027,-2.7695,-2.7285,-2.6973,-2.6738,-2.6621,-2.6719,-2.7031,-2.7669,-2.7865,-2.8184,-2.8887,-2.8926,-2.9121,-2.9607,-2.9626,-2.9626,-2.9626,-2.9626,-2.9626,-2.957,-2.9121,-2.8769,-2.8516,-2.8359,-2.8301,-2.8301,-2.8301,-2.8301,-2.8301,-2.8301,-2.8301,-2.8301,-2.8301,-2.8125,-2.7924,-2.7767,-2.748,-2.7129,-2.6269,-2.5977,-2.5937,-2.5732,-2.5693,-2.5635,-2.5391,-2.5195,-2.5047,-2.4727,-2.4336,-2.4004,-2.4004,-2.3691,-2.3301,-2.3027,-2.2852,-2.2617,-2.2207,-2.2472,-2.2734,-2.2609,-2.3426,-2.4123,-2.3942,-2.4296,-2.4576,-2.4576,-2.4814,-2.4661,-2.3766,-2.4458,-2.4441,-2.2972,-2.4168,-2.4845,-2.432,-2.4581,-2.48,-2.48,-2.4481,-2.4305,-2.4305,-2.3898,-2.3697,-2.3697,-2.3697,-2.3697,-2.3697,-2.3521,-2.3421,-2.3421,-2.3195,-2.3095,-2.5332,-2.6133,-2.668,-2.75,-2.7988,-2.8301,-2.8301,-2.8281,-2.8125,-2.7748,-2.6875,-2.6113,-2.5577,-2.4855,-2.4805,-2.6055,-2.6367,-2.6894,-2.8125,-2.7598,-2.7226,-2.7669,-2.6953,-2.6602,-2.6973,-2.668,-2.6797,-2.765,-2.8027,-2.8457,-2.8926,-2.8965,-2.918,-2.9685,-2.9704,-2.9704,-2.9704,-2.9704,-2.9629,-2.9646,-2.918,-2.8965,-2.8906,-2.8516,-2.832,-2.8301,-2.8301,-2.8301,-2.8301,-2.8301,-2.8301,-2.8301,-2.8301,-2.8301,-2.8242,-2.7904,-2.7748,-2.763,-2.6738,-2.6426,-2.6328,-2.5898,-2.5713,-2.5693,-2.5693,-2.5449,-2.5145,-2.5145,-2.4785,-2.4453,-2.4453,-2.4141,-2.3828,-2.3789,-2.3477,-2.3003,-2.2637,-2.4054,-2.5347,-2.496,-2.6524,-2.7776,-2.7297,-2.6841,-2.6524,-2.6499,-2.5711,-2.5052,-2.5016,-2.5851,-2.5862,-2.4396,-2.5099,-2.5045,-2.3575,-2.4337,-2.4876,-2.4876,-2.485,-2.4825,-2.4825,-2.48,-2.48,-2.48,-2.48,-2.48,-2.48,-2.4305,-2.4029,-2.4029,-2.3446,-2.3195,-2.6309,-2.7246,-2.7851,-2.8086,-2.8203,-2.8301,-2.8301,-2.8047,-2.7617,-2.6875,-2.5508,-2.4121,-2.3066,-2.3457,-2.4062,-2.4394,-2.6074,-2.7559,-2.8203,-2.8105,-2.7891,-2.7748,-2.7532,-2.7246,-2.7031,-2.7207,-2.7493,-2.7708,-2.7826,-2.8281,-2.9355,-2.9707,-3.0078,-3.0547,-3.0547,-3.0547,-3.0547,-3.0547,-3.0371,-3.0039,-2.9922,-2.9531,-2.8906,-2.8809,-2.8594,-2.8301,-2.8301,-2.8301,-2.8301,-2.8301,-2.8301,-2.8301,-2.8301,-2.8301,-2.8281,-2.8164,-2.8125,-2.8066,-2.7519,-2.6914,-2.6367,-2.625,-2.5996,-2.5693,-2.5693,-2.5615,-2.5566,-2.5566,-2.5254,-2.4902,-2.4902,-2.459,-2.418,-2.3867,-2.3711,-2.3516,-2.3023,-2.3143,-2.3242,-2.3183,-2.4578,-2.5844,-2.6019,-2.6646,-2.6977,-2.6549,-2.6267,-2.5851,-2.5087,-2.5229,-2.5216,-2.4826,-2.5664,-2.6095,-2.5732,-2.5936,-2.6072,-2.6072,-2.5636,-2.541,-2.541,-2.5001,-2.48,-2.48,-2.48,-2.48,-2.48,-2.465,-2.4575,-2.4575,-2.4424,-2.4349,-2.7441,-2.8066,-2.834,-2.8516,-2.8437,-2.8144,-2.7578,-2.7266,-2.6641,-2.5019,-2.3769,-2.2559,-2.125,-2.1934,-2.2852,-2.3418,-2.5371,-2.7109,-2.791,-2.8027,-2.7988,-2.7949,-2.7826,-2.7689,-2.7578,-2.7637,-2.7865,-2.8184,-2.8223,-2.8613,-2.9531,-2.9961,-3.041,-3.0879,-3.0898,-3.0898,-3.0898,-3.0898,-3.0762,-3.0488,-3.0293,-2.9941,-2.9473,-2.9082,-2.8789,-2.8555,-2.8379,-2.8301,-2.8301,-2.8301,-2.8301,-2.8301,-2.8301,-2.8301,-2.8301,-2.8301,-2.8301,-2.8262,-2.8027,-2.75,-2.6914,-2.6719,-2.6367,-2.6016,-2.6016,-2.5849,-2.5693,-2.5693,-2.5547,-2.5371,-2.5371,-2.5039,-2.4768,-2.5062,-2.4811,-2.4581,-2.4863,-2.4596,-2.4263,-2.4263,-2.4808,-2.5346,-2.5555,-2.6137,-2.6466,-2.6148,-2.6313,-2.6302,-2.5721,-2.5652,-2.5476,-2.5052,-2.5921,-2.6302,-2.5886,-2.6233,-2.6499,-2.6499,-2.6197,-2.5963,-2.5963,-2.5686,-2.5536,-2.5536,-2.5536,-2.5536,-2.5536,-2.5285,-2.5159,-2.5159,-2.4901,-2.48,-2.8574,-2.875,-2.8535,-2.8848,-2.8613,-2.7949,-2.668,-2.6211,-2.5352,-2.2852,-2.1875,-2.1074,-1.9805,-2.0352,-2.1444,-2.273,-2.4426,-2.6113,-2.7532,-2.7728,-2.7865,-2.8242,-2.8027,-2.7969,-2.834,-2.8105,-2.8223,-2.8945,-2.9062,-2.9258,-2.9629,-3.0059,-3.0469,-3.0879,-3.0898,-3.0898,-3.0898,-3.0898,-3.0898,-3.0879,-3.0488,-3.0254,-3.0176,-2.9434,-2.9023,-2.8906,-2.8535,-2.834,-2.8301,-2.8301,-2.8301,-2.8301,-2.8301,-2.8301,-2.8301,-2.8301,-2.8301,-2.8301,-2.8301,-2.8047,-2.7676,-2.7246,-2.6816,-2.6465,-2.6465,-2.6172,-2.5771,-2.5771,-2.5732,-2.5693,-2.5693,-2.5449,-2.5421,-2.6398,-2.6007,-2.5713,-2.6885,-2.6867,-2.6592,-2.6483,-2.6183,-2.5909,-2.5841,-2.5839,-2.5796,-2.5725,-2.609,-2.6392,-2.6392,-2.6455,-2.6164,-2.53,-2.599,-2.6129,-2.5264,-2.599,-2.6499,-2.6499,-2.6499,-2.6499,-2.6499,-2.6499,-2.6499,-2.6499,-2.6499,-2.6499,-2.6499,-2.5963,-2.5711,-2.5711,-2.5259,-2.5034,-2.918,-2.9414,-2.9277,-2.8984,-2.8613,-2.7949,-2.668,-2.5273,-2.3711,-2.1836,-2.0216,-1.889,-1.7988,-1.9102,-2.0566,-2.1894,-2.3828,-2.581,-2.7493,-2.7728,-2.7865,-2.8242,-2.8535,-2.873,-2.8809,-2.9062,-2.9352,-2.9453,-2.9785,-3.0,-3.0078,-3.0527,-3.082,-3.0898,-3.0898,-3.0898,-3.0898,-3.0898,-3.0898,-3.0898,-3.082,-3.0566,-3.0195,-3.0039,-2.959,-2.8906,-2.8848,-2.8613,-2.8301,-2.8301,-2.8301,-2.8301,-2.8301,-2.8301,-2.8301,-2.8301,-2.8301,-2.8301,-2.8301,-2.8242,-2.8125,-2.7695,-2.7266,-2.6914,-2.6914,-2.6602,-2.6269,-2.6269,-2.6016,-2.5693,-2.5693,-2.5635,-2.5575,-2.5421,-2.527,-2.5378,-2.6264,-2.6823,-2.7037,-2.6592,-2.7128,-2.7545,-2.7058,-2.7002,-2.6857,-2.6415,-2.6028,-2.5744,-2.5744,-2.6191,-2.643,-2.6233,-2.6396,-2.643,-2.6233,-2.6396,-2.6499,-2.6499,-2.6499,-2.6499,-2.6499,-2.6499,-2.6499,-2.6499,-2.6499,-2.6499,-2.6499,-2.6399,-2.6348,-2.6348,-2.6248,-2.6223,-2.9394,-2.9394,-2.9238,-2.9258,-2.8613,-2.7461,-2.5488,-2.4043,-2.2383,-1.9766,-1.8574,-1.7656,-1.6562,-1.8125,-1.9805,-2.043,-2.2562,-2.4734,-2.6426,-2.6855,-2.7324,-2.8184,-2.8672,-2.8926,-2.8926,-2.9316,-2.9668,-2.9883,-3.0078,-3.0195,-3.0195,-3.0644,-3.0898,-3.0898,-3.0898,-3.0898,-3.0898,-3.0898,-3.0898,-3.0898,-3.0898,-3.0781,-3.0547,-3.0312,-2.9844,-2.9238,-2.9023,-2.8672,-2.8301,-2.8301,-2.8301,-2.8301,-2.8301,-2.8301,-2.8301,-2.8301,-2.8301,-2.8301,-2.8301,-2.8301,-2.8262,-2.8066,-2.7695,-2.7344,-2.7344,-2.7051,-2.666,-2.6445,-2.625,-2.6016,-2.5752,-2.5693,-2.5829,-2.629,-2.6682,-2.6968,-2.7105,-2.7391,-2.7489,-2.6996,-2.73,-2.751,-2.6961,-2.7136,-2.7034,-2.6154,-2.606,-2.5845,-2.5256,-2.5669,-2.6145,-2.649,-2.6499,-2.6499,-2.6499,-2.6499,-2.6499,-2.6499,-2.6499,-2.6499,-2.6499,-2.6499,-2.6499,-2.6499,-2.6499,-2.6499,-2.6499,-2.6499,-2.6499,-2.6499,-2.6499,-2.6499,-2.9316,-2.9258,-2.9121,-2.9375,-2.8476,-2.6875,-2.4355,-2.2832,-2.1094,-1.8008,-1.7148,-1.668,-1.5723,-1.7305,-1.8887,-1.9355,-2.1289,-2.3418,-2.5332,-2.6055,-2.6836,-2.8008,-2.8691,-2.9062,-2.9062,-2.9531,-2.998,-3.0312,-3.0351,-3.0351,-3.0351,-3.0703,-3.0898,-3.0898,-3.0898,-3.0898,-3.0898,-3.0898,-3.0898,-3.0898,-3.0898,-3.0898,-3.0879,-3.0508,-3.0117,-2.9668,-2.9258,-2.8828,-2.8418,-2.834,-2.8301,-2.8301,-2.8301,-2.8301,-2.8301,-2.8301,-2.8301,-2.8301,-2.8301,-2.8301,-2.8301,-2.8301,-2.8066,-2.7865,-2.7865,-2.75,-2.709,-2.6758,-2.6602,-2.6426,-2.5996,-2.583,-2.6084,-2.6955,-2.7797,-2.8252,-2.7745,-2.7877,-2.7983,-2.7853,-2.7781,-2.7706,-2.7433,-2.7519,-2.7293,-2.628,-2.6457,-2.6247,-2.51,-2.5439,-2.5984,-2.6456,-2.6486,-2.6499,-2.6499,-2.6499,-2.6499,-2.6499,-2.6499,-2.6499,-2.6499,-2.6499,-2.6499,-2.6499,-2.6499,-2.6499,-2.6499,-2.6499,-2.6499,-2.6499,-2.6499,-2.6499,-2.8867,-2.9238,-2.9414,-2.9062,-2.8027,-2.6504,-2.4297,-2.1894,-1.9629,-1.7773,-1.6426,-1.5684,-1.5987,-1.6523,-1.7564,-1.9531,-2.0683,-2.2285,-2.4785,-2.5859,-2.6719,-2.7669,-2.8843,-2.9567,-2.9567,-3.0273,-3.0781,-3.082,-3.082,-3.082,-3.082,-3.0859,-3.0898,-3.0898,-3.0898,-3.0898,-3.0898,-3.0898,-3.0898,-3.0898,-3.0898,-3.0898,-3.0898,-3.084,-3.0566,-3.0117,-2.9687,-2.9258,-2.8828,-2.8457,-2.8301,-2.8301,-2.8301,-2.8301,-2.8301,-2.8301,-2.8301,-2.8301,-2.8301,-2.8301,-2.8301,-2.8301,-2.8262,-2.8242,-2.8242,-2.793,-2.765,-2.7611,-2.7266,-2.6855,-2.6445,-2.6328,-2.628,-2.5966,-2.6819,-2.753,-2.6953,-2.7713,-2.872,-2.9253,-2.9371,-2.9565,-3.0128,-2.9407,-2.8559,-2.7964,-2.7506,-2.68,-2.5694,-2.607,-2.6453,-2.6481,-2.6511,-2.6499,-2.6499,-2.6499,-2.6499,-2.6499,-2.6499,-2.6499,-2.6499,-2.6499,-2.6499,-2.6499,-2.6499,-2.6499,-2.6499,-2.6499,-2.6499,-2.6499,-2.6499,-2.6499,-2.873,-2.9043,-2.9141,-2.8965,-2.7773,-2.6074,-2.3951,-2.1602,-1.9355,-1.7402,-1.6152,-1.5469,-1.5644,-1.6035,-1.6875,-1.8496,-1.9241,-2.0527,-2.3164,-2.4043,-2.5039,-2.6699,-2.8027,-2.9004,-2.9567,-3.0371,-3.0898,-3.0898,-3.0898,-3.0898,-3.0898,-3.0898,-3.0898,-3.0898,-3.0898,-3.0898,-3.0898,-3.0898,-3.0898,-3.0898,-3.0898,-3.0898,-3.0898,-3.0898,-3.0644,-3.0176,-2.9746,-2.9316,-2.8887,-2.8457,-2.8301,-2.8301,-2.8301,-2.8301,-2.8301,-2.8301,-2.8301,-2.8301,-2.8301,-2.8301,-2.8301,-2.8301,-2.8301,-2.8301,-2.8301,-2.8184,-2.7988,-2.7787,-2.7591,-2.7305,-2.6875,-2.6582,-2.6269,-2.5791,-2.611,-2.6798,-2.805,-2.8695,-2.9509,-3.0889,-3.0579,-3.0048,-3.0005,-2.9354,-2.8551,-2.764,-2.7666,-2.7378,-2.6292,-2.6618,-2.6705,-2.6021,-2.6297,-2.6613,-2.6957,-2.6977,-2.6851,-2.6524,-2.6499,-2.6499,-2.6499,-2.6499,-2.6499,-2.6499,-2.6499,-2.6499,-2.6499,-2.6499,-2.6499,-2.6499,-2.6499,-2.6499,-2.8281,-2.8633,-2.873,-2.873,-2.7461,-2.5664,-2.3613,-2.1387,-1.916,-1.7116,-1.6005,-1.541,-1.541,-1.5762,-1.6476,-1.7637,-1.8398,-1.9648,-2.1992,-2.291,-2.4004,-2.5781,-2.7129,-2.8262,-2.9101,-3.0215,-3.0898,-3.0898,-3.0898,-3.0898,-3.0898,-3.0898,-3.0898,-3.0898,-3.0898,-3.0898,-3.0898,-3.0898,-3.0898,-3.0898,-3.0898,-3.0898,-3.0898,-3.0898,-3.0703,-3.0371,-2.9805,-2.9394,-2.9062,-2.8516,-2.8301,-2.8301,-2.8301,-2.8301,-2.8301,-2.8301,-2.8301,-2.8301,-2.8301,-2.8301,-2.8301,-2.8301,-2.8301,-2.8301,-2.8301,-2.8301,-2.8223,-2.793,-2.7806,-2.7598,-2.7285,-2.6797,-2.6309,-2.5996,-2.5791,-2.6187,-2.7934,-2.8308,-2.8802,-3.0528,-3.0127,-2.9523,-2.932,-2.899,-2.8472,-2.771,-2.8029,-2.7992,-2.7098,-2.7298,-2.7104,-2.5986,-2.625,-2.6523,-2.6542,-2.6882,-2.684,-2.6262,-2.6552,-2.6675,-2.6499,-2.6499,-2.6499,-2.6499,-2.6499,-2.6499,-2.6499,-2.6499,-2.6499,-2.6499,-2.6499,-2.6499,-2.7324,-2.7988,-2.8301,-2.8301,-2.7012,-2.5245,-2.3491,-2.1152,-1.8809,-1.7058,-1.6005,-1.541,-1.541,-1.5762,-1.6378,-1.7246,-1.8457,-1.9883,-2.1641,-2.2988,-2.4102,-2.5028,-2.623,-2.7363,-2.8223,-2.9883,-3.0898,-3.0898,-3.0898,-3.0898,-3.0898,-3.0898,-3.0898,-3.0898,-3.0898,-3.0898,-3.0898,-3.0898,-3.0898,-3.0898,-3.0898,-3.0898,-3.0898,-3.0898,-3.0898,-3.084,-2.9961,-2.9626,-2.9548,-2.8652,-2.8301,-2.8301,-2.8301,-2.8301,-2.8301,-2.8301,-2.8301,-2.8301,-2.8301,-2.8301,-2.8301,-2.8301,-2.8301,-2.8301,-2.8301,-2.8301,-2.8301,-2.8281,-2.7988,-2.7728,-2.7708,-2.7031,-2.6387,-2.6387,-2.6055,-2.5693,-2.5742,-2.5742,-2.611,-2.7389,-2.7626,-2.7853,-2.8477,-2.8612,-2.8628,-2.8745,-2.8786,-2.8597,-2.8155,-2.8084,-2.7683,-2.6584,-2.6502,-2.6057,-2.4932,-2.5854,-2.6273,-2.5654,-2.6672,-2.7052,-2.6524,-2.6499,-2.6499,-2.6499,-2.6499,-2.6499,-2.6499,-2.6499,-2.6499,-2.6499,-2.6499,-2.6499,-2.4824,-2.5547,-2.5957,-2.5352,-2.459,-2.3516,-2.1777,-2.0059,-1.8359,-1.6621,-1.582,-1.541,-1.541,-1.5527,-1.6289,-1.8359,-1.9023,-2.0,-2.2031,-2.3418,-2.4551,-2.543,-2.7695,-2.9414,-3.0019,-3.0566,-3.0898,-3.0898,-3.0898,-3.0898,-3.0898,-3.0898,-3.0898,-3.0898,-3.0898,-3.0898,-3.0898,-3.0898,-3.0898,-3.0898,-3.0898,-3.0898,-3.0898,-3.0898,-3.0723,-3.0391,-2.9824,-2.9394,-2.9082,-2.8516,-2.8301,-2.8301,-2.8301,-2.8301,-2.8301,-2.8301,-2.8301,-2.8301,-2.8301,-2.8301,-2.8301,-2.8301,-2.8301,-2.8301,-2.8301,-2.8301,-2.8301,-2.8301,-2.8203,-2.8027,-2.7787,-2.7513,-2.7109,-2.6523,-2.6289,-2.634,-2.6873,-2.6982,-2.7342,-2.8588,-2.8168,-2.7678,-2.7904,-2.7583,-2.7308,-2.7366,-2.7764,-2.8195,-2.8539,-2.859,-2.8326,-2.7649,-2.7602,-2.6961,-2.5462,-2.5695,-2.6,-2.6198,-2.6548,-2.7017,-2.7559,-2.7595,-2.7394,-2.7052,-2.7052,-2.6876,-2.6499,-2.6499,-2.6499,-2.6499,-2.6499,-2.6499,-2.3125,-2.4062,-2.4492,-2.4121,-2.3477,-2.2542,-2.0957,-1.9434,-1.7949,-1.6418,-1.5752,-1.541,-1.541,-1.5547,-1.6191,-1.7846,-1.8477,-1.9453,-2.1269,-2.2793,-2.4316,-2.5966,-2.8281,-2.9902,-3.0351,-3.0703,-3.0898,-3.0898,-3.0898,-3.0898,-3.0898,-3.0898,-3.0898,-3.0898,-3.0898,-3.0898,-3.0898,-3.0898,-3.0898,-3.0898,-3.0898,-3.0898,-3.0879,-3.0703,-3.0469,-3.0156,-2.959,-2.916,0.0,-2.8457,-2.8301,-2.8301,-2.8301,-2.8301,-2.8301,-2.8301,-2.8301,-2.8301,-2.8301,-2.8301,-2.8301,-2.8301,-2.8301,-2.8301,-2.8301,-2.8301,-2.8301,-2.8301,-2.8301,-2.8223,-2.7969,-2.7793,-2.7591,-2.6992,-2.6621,-2.6557,-2.7021,-2.701,-2.7125,-2.7861,-2.7389,-2.6887,-2.6887,-2.6567,-2.6396,-2.6676,-2.7067,-2.7569,-2.8303,-2.8402,-2.8217,-2.7789,-2.772,-2.7226,-2.6035,-2.5931,-2.5989,-2.614,-2.6155,-2.6562,-2.7471,-2.7484,-2.752,-2.7595,-2.7595,-2.724,-2.65,-2.6279,-2.6082,-2.5955,-2.6302,-2.6499,0.0,-2.3066,-2.3496,-2.3828,-2.3047,-2.1855,-2.0625,-1.9062,0.0,-1.632,-1.5703,-1.543,-1.5488,-1.5811,-1.6124,-1.6339,-1.7344,-1.8594,-1.9922,-2.168,-2.3926,-2.6855,-2.8301,-2.9219,-2.9629,-3.041,-3.0898,-3.0898,-3.0898,-3.0898,-3.0898,-3.0898,-3.0898,-3.0898,-3.0898,-3.0898,-3.0898,-3.0898,-3.0898,-3.0898,-3.0898,-3.0898,-3.0879,-3.041,-3.0176,-3.0098,-2.9277,-2.8906,-2.8848,-2.8457,-2.8301,-2.8301,-2.8301,-2.8301,-2.8301,-2.8301,-2.8301,-2.8301,-2.8301,-2.8301,-2.8301,-2.8301,-2.8301,-2.8301,-2.8301,-2.8301,-2.8301,-2.8301,-2.8301,-2.8301,-2.8301,-2.8008,-2.7767,-2.7728,-2.7051,-2.6465,-2.6445,-2.6094,-2.5732,-2.5732,-2.5713,-2.5693,-2.5693,-2.5693,-2.5924,-2.6548,-2.6651,-2.6876,-2.7547,-2.7612,-2.7522,-2.7162,-2.716,-2.7001,-2.6697,-2.6547,-2.6281,-2.5708,-2.5646,-2.5922,-2.6476,-2.6491,-2.6946,-2.789,-2.7975,-2.7545,-2.6623,-2.6025,-2.5551,-2.5111,-2.6054,-2.6496,-1.834,0.0,-1.9707,-1.918,-1.9043,-1.8809,0.0,-1.7291,-1.6726,-1.5762,-1.5488,-1.5595,-1.6258,-1.5957,-1.6328,-1.8633,-1.9258,-2.0039,-2.168,-2.4238,-2.6699,-2.873,-2.9824,-3.0469,-3.0566,-3.0762,-3.0898,-3.0898,-3.0898,-3.0898,-3.0898,-3.0898,-3.0898,-3.0898,-3.0898,-3.0898,-3.0898,-3.0898,-3.0898,-3.0898,-3.0898,-3.0898,-3.0879,-3.041,-3.0019,-2.9687,-2.916,-2.873,-2.8437,-2.834,-2.8301,-2.8301,-2.8301,-2.8301,-2.8301,-2.8301,-2.8301,-2.8301,-2.8301,-2.8301,-2.8301,-2.8301,-2.8301,-2.8301,-2.8301,-2.8301,-2.8301,-2.8301,-2.8301,-2.8301,-2.8301,-2.8223,-2.8066,-2.7787,-2.7571,-2.7285,-2.6934,-2.6543,-2.623,-2.623,-2.5977,-2.5693,-2.5693,-2.5693,-2.5752,-2.5924,-2.5952,-2.6202,-2.6852,-2.6925,-2.7095,-2.7479,-2.7565,-2.775,-2.8192,-2.7181,-2.6416,-2.6304,-2.6304,-2.6341,-2.6512,-2.6512,-2.6388,-2.6198,-2.6638,-2.7149,-2.773,-2.7581,-2.7029,-2.6131,-2.6391,-2.6526,-1.6348,-1.7539,-1.8539,-1.832,-1.8281,-1.8091,-1.7428,-1.6855,-1.623,-1.5547,-1.541,-1.5625,-1.6309,-1.6211,-1.6648,-1.8711,-1.9375,-2.0508,-2.3027,-2.5644,-2.7871,-2.945,-3.0351,-3.0898,-3.0898,-3.0898,-3.0898,-3.0898,-3.0898,-3.0898,-3.0898,-3.0898,-3.0898,-3.0898,-3.0898,-3.0898,-3.0898,-3.0898,-3.0898,-3.0898,-3.0898,-3.0781,-3.0547,-3.0117,-2.9668,-2.9238,-2.8828,-2.8496,-2.8301,-2.8301,-2.8301,-2.8301,-2.8301,-2.8301,-2.8301,-2.8301,-2.8301,-2.8301,-2.8301,-2.8301,-2.8301,-2.8301,-2.8301,-2.8301,-2.8301,-2.8301,-2.8301,-2.8301,-2.8301,-2.8301,-2.8301,-2.8301,-2.8242,-2.8008,-2.7812,-2.765,-2.7363,-2.6973,-2.668,-2.668,-2.6328,-2.6035,-2.6035,-2.581,-2.5693,-2.5693,-2.5693,-2.5838,-2.6182,-2.6236,-2.6522,-2.7162,-2.7232,-2.7525,-2.8241,-2.7544,-2.7099,-2.7244,-2.6295,-2.5964,-2.6483,-2.6005,-2.579,-2.6017,-2.5811,-2.6158,-2.7033,-2.6472,-2.6086,-2.5839,-2.5739,-2.5701,-1.5664,-1.7116,-1.8617,-1.8691,-1.8574,-1.8286,-1.7832,-1.6914,-1.6085,-1.5684,-1.5605,-1.5781,-1.6378,-1.6719,-1.7233,-1.834,-1.9336,-2.1094,-2.4277,-2.6484,-2.8256,-2.9489,-3.0351,-3.0898,-3.0898,-3.0898,-3.0898,-3.0898,-3.0898,-3.0898,-3.0898,-3.0898,-3.0898,-3.0898,-3.0898,-3.0859,-3.0781,-3.0859,-3.0859,-3.0781,-3.0781,-3.0547,-3.0078,-2.9668,-2.9277,-2.8906,-2.8476,-2.8301,-2.8301,-2.8301,-2.8301,-2.8301,-2.8301,-2.8301,-2.8301,-2.8301,-2.8301,-2.8301,-2.8301,-2.8301,-2.8301,-2.8301,-2.8301,-2.8301,-2.8301,-2.8301,-2.8301,-2.8301,-2.8301,-2.8301,-2.8301,-2.8301,-2.8301,-2.8301,-2.8027,-2.7806,-2.7806,-2.7422,-2.7109,-2.7109,-2.6777,-2.6484,-2.6484,-2.6172,-2.5869,-2.5791,-2.5791,-2.5771,-2.5693,-2.5693,-2.5924,-2.6475,-2.6527,-2.6827,-2.7502,-2.7547,-2.7669,-2.8005,-2.6221,-2.5485,-2.6235,-2.5126,-2.5083,-2.6213,-2.5294,-2.5185,-2.5874,-2.488,-2.4564,-2.4992,-2.4851,-2.4812,-1.6777,-1.7852,-1.8169,-1.6445,-1.6797,-1.7363,-1.6574,-1.6504,-1.657,-1.6512,-1.6492,-1.6843,-1.7993,-1.7974,-1.8422,-2.0391,-2.207,-2.3789,-2.5801,-2.7305,-2.8535,-2.9509,-3.0351,-3.0898,-3.0898,-3.0898,-3.0898,-3.0898,-3.0898,-3.0898,-3.0898,-3.0898,-3.0898,-3.0898,-3.0898,-3.0703,-3.0312,-3.0703,-3.0703,-3.0293,-3.0293,-3.0078,-2.9704,-2.9219,-2.8984,-2.8906,-2.8476,-2.8301,-2.8301,-2.8301,-2.8301,-2.8301,-2.8301,-2.8301,-2.8301,-2.8301,-2.8301,-2.8301,-2.8301,-2.8301,-2.8301,-2.8301,-2.8301,-2.8301,-2.8301,-2.8301,-2.8301,-2.8301,-2.8301,-2.8301,-2.8301,-2.8301,-2.8301,-2.8301,-2.8242,-2.8203,-2.8203,-2.7871,-2.7559,-2.7559,-2.7226,-2.6914,-2.6914,-2.6855,-2.6699,-2.6348,-2.6289,-2.6152,-2.5732,-2.5693,-2.5752,-2.5818,-2.5867,-2.6147,-2.6802,-2.6852,-2.7095,-2.7715,-2.7119,-2.6254,-2.5105,-2.3973,-2.3887,-2.5041,-2.4872,-2.5335,-2.6412,-2.6206,-2.5666,-2.4829,-2.4829,-2.4787,-1.6152,-1.7129,-1.7715,-1.6719,-1.7617,-1.8652,-1.8242,-1.7949,-1.7798,-1.8066,-1.7896,-1.8052,-1.9104,-1.9355,-2.0176,-2.2559,-2.4219,-2.5625,-2.6894,-2.7969,-2.8945,-2.9805,-3.0488,-3.0898,-3.0898,-3.0898,-3.0898,-3.0898,-3.0664,-3.0508,-3.0508,-3.0293,-3.0176,-3.0176,-3.0176,-3.0078,-2.9863,-3.0078,-3.0078,-2.9863,-2.9863,-2.9629,-2.9199,-2.9004,-2.8789,-2.8574,-2.8379,-2.8301,-2.8301,-2.8301,-2.8301,-2.8301,-2.8301,-2.8301,-2.832,-2.8555,-2.8633,-2.8672,-2.8906,-2.8984,-2.8984,-2.8984,-2.8828,-2.8672,-2.8906,-2.8652,-2.834,-2.8574,-2.8476,-2.8301,-2.8301,-2.8301,-2.8301,-2.8301,-2.8301,-2.8301,-2.8301,-2.8144,-2.8008,-2.8008,-2.7656,-2.7363,-2.7363,-2.7168,-2.6953,-2.6758,-2.6719,-2.666,-2.6445,-2.623,-2.6094,-2.6094,-2.583,-2.5838,-2.6127,-2.6154,-2.6367,-2.6795,-2.6647,-2.5994,-2.4638,-2.3861,-2.3742,-2.425,-2.4008,-2.4425,-2.5588,-2.4978,-2.4723,-2.4787,-2.4168,-2.3887,-1.6063,-1.6836,-1.7578,-1.7773,-1.873,-1.9687,-2.0,-1.9551,-1.9238,-1.9785,-1.9629,-1.9572,-2.0254,-2.0977,-2.2148,-2.4238,-2.5762,-2.6953,-2.7695,-2.8535,-2.9355,-3.0117,-3.0605,-3.0898,-3.0898,-3.0898,-3.084,-3.0742,-3.0391,-3.0156,-3.0059,-2.9746,-2.9626,-2.9626,-2.9626,-2.9531,-2.9414,-2.9414,-2.9414,-2.9414,-2.9414,-2.9199,-2.8769,-2.8769,-2.8594,-2.8301,-2.8301,-2.8301,-2.8301,-2.8301,-2.8301,-2.8301,-2.8301,-2.8359,-2.8476,-2.8809,-2.8984,-2.9121,-2.9453,-2.9626,-2.9626,-2.9626,-2.9355,-2.9141,-2.9473,-2.9101,-2.8652,-2.8984,-2.8848,-2.8555,-2.834,-2.8301,-2.8301,-2.8301,-2.8301,-2.8301,-2.8301,-2.8301,-2.8301,-2.8301,-2.8027,-2.7812,-2.7812,-2.7539,-2.7285,-2.7187,-2.7168,-2.7129,-2.7031,-2.6738,-2.6543,-2.6543,-2.6152,-2.581,-2.5693,-2.5693,-2.5785,-2.5997,-2.6198,-2.5822,-2.4828,-2.4238,-2.3945,-2.3945,-2.3613,-2.3815,-2.4691,-2.3815,-2.3859,-2.4691,-2.3815,-2.3393,-1.8052,-1.8149,-1.8164,-1.8945,-1.8945,-1.9007,-2.0292,-2.0507,-2.0703,-2.1523,-2.168,-2.168,-2.1738,-2.3066,-2.4336,-2.4969,-2.6515,-2.7787,-2.8184,-2.8984,-2.9687,-3.0137,-3.0605,-3.0898,-3.0898,-3.0898,-3.0703,-3.0273,-3.0215,-3.0019,-2.9629,-2.9646,-2.9626,-2.9626,-2.9626,-2.9375,-2.8965,-2.8965,-2.8965,-2.8965,-2.8965,-2.875,-2.834,-2.834,-2.832,-2.8301,-2.8301,-2.8301,-2.8301,-2.8301,-2.8301,-2.8301,-2.8301,-2.8535,-2.8887,-2.8906,-2.918,-2.9531,-2.9607,-2.9626,-2.9626,-2.9626,-2.9607,-2.9587,-2.9607,-2.9587,-2.9492,-2.9512,-2.9548,-2.9297,-2.8496,-2.8301,-2.8301,-2.8301,-2.8301,-2.8301,-2.8301,-2.8301,-2.8301,-2.8301,-2.8262,-2.8242,-2.8242,-2.8223,-2.8066,-2.7728,-2.7669,-2.748,-2.707,-2.6992,-2.6973,-2.6973,-2.6602,-2.6172,-2.5732,-2.5693,-2.5703,-2.5741,-2.6443,-2.6609,-2.5989,-2.4925,-2.4375,-2.4375,-2.4336,-2.4362,-2.4408,-2.4362,-2.4362,-2.4408,-2.4316,-2.4316,-1.7213,-1.7539,-1.7891,-1.9004,-1.9766,-2.0411,-2.1211,-2.2034,-2.2856,-2.3736,-2.3652,-2.3379,-2.3125,-2.4258,-2.5371,-2.582,-2.7109,-2.8301,-2.8984,-2.9375,-2.9844,-3.0547,-3.0781,-3.0781,-3.0488,-3.0449,-3.0273,-2.9844,-2.9551,-2.9336,-2.918,-2.8926,-2.8769,-2.8769,-2.8769,-2.8691,-2.8535,-2.8535,-2.8535,-2.8535,-2.8535,-2.8437,-2.8301,-2.8301,-2.8301,-2.8301,-2.8301,-2.8301,-2.8301,-2.8301,-2.8301,-2.8301,-2.8301,-2.8555,-2.8945,-2.9219,-2.959,-3.0,-3.0293,-3.0391,-3.0391,-3.0391,-3.0195,-3.0019,-3.0312,-3.0,-2.9629,-2.9883,-2.9766,-2.9492,-2.916,-2.8887,-2.8672,-2.8672,-2.8476,-2.8301,-2.8301,-2.8301,-2.8301,-2.8301,-2.8301,-2.8301,-2.8301,-2.8301,-2.8242,-2.8086,-2.8047,-2.7988,-2.7832,-2.7578,-2.7422,-2.7422,-2.7031,-2.6602,-2.6172,-2.6133,-2.6035,-2.5713,-2.6,-2.6059,-2.5852,-2.5196,-2.4824,-2.4824,-2.4551,-2.4414,-2.4414,-2.4414,-2.4414,-2.4414,-2.4414,-2.4414,-1.6687,-1.7051,-1.7656,-1.8809,-2.0176,-2.1424,-2.2285,-2.3379,-2.4434,-2.5312,-2.5137,-2.4707,-2.4277,-2.5156,-2.6035,-2.6348,-2.7461,-2.8535,-2.9258,-2.9355,-2.9648,-3.0391,-3.0469,-3.0351,-3.0039,-3.0,-2.9824,-2.9394,-2.9082,-2.8867,-2.873,-2.8437,-2.8301,-2.8301,-2.8301,-2.8301,-2.8301,-2.8301,-2.8301,-2.8301,-2.8301,-2.8301,-2.8301,-2.8301,-2.8301,-2.8301,-2.8301,-2.8301,-2.8301,-2.8301,-2.8301,-2.8301,-2.8301,-2.8633,-2.916,-2.9453,-2.9922,-3.0469,-3.0781,-3.0898,-3.0898,-3.0898,-3.0684,-3.0469,-3.0801,-3.0469,-3.0039,-3.0332,-3.0215,-2.998,-2.998,-2.9551,-2.9082,-2.8945,-2.8691,-2.8457,-2.832,-2.8301,-2.8301,-2.8301,-2.8301,-2.8301,-2.8301,-2.8301,-2.8301,-2.8301,-2.8301,-2.8301,-2.8301,-2.8047,-2.7812,-2.7728,-2.7402,-2.7051,-2.6621,-2.6465,-2.625,-2.5957,-2.5771,-2.5693,-2.5693,-2.5449,-2.5273,-2.5273,-2.498,-2.4797,-2.4797,-2.4797,-2.4797,-2.4797,-2.4797,-2.4797,-1.6921,-1.7051,-1.7598,-1.8403,-1.9923,-2.1658,-2.3418,-2.4473,-2.538,-2.6211,-2.6055,-2.5557,-2.5204,-2.5801,-2.6387,-2.6387,-2.7461,-2.8437,-2.8867,-2.8926,-2.9082,-2.9512,-2.9626,-2.9626,-2.957,-2.957,-2.9375,-2.8945,-2.8906,-2.873,-2.832,-2.8301,-2.8301,-2.8301,-2.8301,-2.8301,-2.8301,-2.8301,-2.8301,-2.8301,-2.8301,-2.8301,-2.8301,-2.8301,-2.8301,-2.8301,-2.8301,-2.8301,-2.8301,-2.8301,-2.8301,-2.8301,-2.8301,-2.8809,-2.9626,-2.9626,-3.0137,-3.0898,-3.0898,-3.0898,-3.0898,-3.0898,-3.0898,-3.0898,-3.0898,-3.0898,-3.0898,-3.0898,-3.0898,-3.0898,-3.0898,-3.0234,-2.9473,-2.9043,-2.8926,-2.8809,-2.8398,-2.8301,-2.8301,-2.8301,-2.8301,-2.8301,-2.8301,-2.8301,-2.8301,-2.8301,-2.8301,-2.8301,-2.8301,-2.8301,-2.8125,-2.7767,-2.7728,-2.75,-2.7051,-2.6641,-2.6406,-2.6387,-2.5996,-2.5693,-2.5693,-2.5693,-2.5693,-2.5693,-2.5693,-2.5693,-2.5693,-2.5693,-2.5693,-2.5693,-2.5693,-2.5693,-1.6504,-1.7031,-1.8105,-1.9221,-2.1309,-2.3398,-2.4797,-2.5586,-2.625,-2.7109,-2.6934,-2.6504,-2.6074,-2.6465,-2.6836,-2.6836,-2.7656,-2.8437,-2.8867,-2.8926,-2.9082,-2.9512,-2.9626,-2.9453,-2.9141,-2.9121,-2.8926,-2.8516,-2.8476,-2.8418,-2.8301,-2.8301,-2.8301,-2.8301,-2.8301,-2.8301,-2.8301,-2.8301,-2.8301,-2.8301,-2.8301,-2.8301,-2.8301,-2.8301,-2.8301,-2.8301,-2.8301,-2.8301,-2.8301,-2.8301,-2.8301,-2.8301,-2.8301,-2.8809,-2.9626,-2.9626,-3.0137,-3.0898,-3.0898,-3.0898,-3.0898,-3.0898,-3.0898,-3.0898,-3.0898,-3.0898,-3.0898,-3.0898,-3.0898,-3.0898,-3.0898,-3.0703,-3.0391,-2.9922,-2.959,-2.9258,-2.8828,-2.873,-2.8652,-2.834,-2.8301,-2.8301,-2.8301,-2.8301,-2.8301,-2.8301,-2.8301,-2.8301,-2.8301,-2.8301,-2.8242,-2.8125,-2.8105,-2.793,-2.7519,-2.7363,-2.7148,-2.6855,-2.6699,-2.6317,-2.5713,-2.5693,-2.5693,-2.5693,-2.5693,-2.5693,-2.5693,-2.5693,-2.5693,-2.5693,-2.5693,-2.5693,-1.6894,-1.7656,-1.8867,-2.0332,-2.2266,-2.4258,-2.6094,-2.6699,-2.709,-2.7826,-2.7578,-2.7187,-2.6953,-2.7109,-2.7285,-2.7285,-2.7851,-2.8379,-2.8633,-2.8672,-2.8769,-2.9023,-2.9062,-2.8965,-2.8691,-2.8672,-2.8574,-2.832,-2.8301,-2.8301,-2.8301,-2.8301,-2.8301,-2.8301,-2.8301,-2.8301,-2.8301,-2.8301,-2.8301,-2.8301,-2.8301,-2.8301,-2.8301,-2.8301,-2.8301,-2.8301,-2.8301,-2.8301,-2.8301,-2.8301,-2.8301,-2.8301,-2.8301,-2.8711,-2.9336,-2.9512,-3.0019,-3.0644,-3.082,-3.0898,-3.0898,-3.0898,-3.0898,-3.0898,-3.0898,-3.0898,-3.0898,-3.0898,-3.0898,-3.0898,-3.0898,-3.0898,-3.0781,-3.0312,-3.0,-2.9707,-2.9277,-2.918,-2.9101,-2.8848,-2.8809,-2.875,-2.8574,-2.8535,-2.8476,-2.832,-2.8301,-2.8301,-2.8301,-2.8301,-2.8301,-2.8301,-2.8301,-2.8184,-2.793,-2.7806,-2.7559,-2.7285,-2.7109,-2.6777,-2.622,-2.6074,-2.5869,-2.5693,-2.5693,-2.5693,-2.5693,-2.5693,-2.5693,-2.5693,-2.5693,-2.5693,-1.7637,-1.8613,-1.9805,-2.1523,-2.3027,-2.4707,-2.7161,-2.7748,-2.7885,-2.8203,-2.7988,-2.7767,-2.7767,-2.7767,-2.7767,-2.7767,-2.8047,-2.8301,-2.8301,-2.8301,-2.8301,-2.8301,-2.8301,-2.8301,-2.8301,-2.8301,-2.8301,-2.8301,-2.8301,-2.8301,-2.8301,-2.8301,-2.8301,-2.8301,-2.8301,-2.8301,-2.8301,-2.8301,-2.8301,-2.8301,-2.8301,-2.8301,-2.8301,-2.8301,-2.8301,-2.8301,-2.8301,-2.8301,-2.8301,-2.8301,-2.8301,-2.8301,-2.8301,-2.8555,-2.8965,-2.9414,-2.9844,-3.0273,-3.0723,-3.0898,-3.0898,-3.0898,-3.0898,-3.0898,-3.0898,-3.0898,-3.0898,-3.0898,-3.0898,-3.0898,-3.0898,-3.0898,-3.0781,-3.0351,-3.0254,-3.0137,-2.9726,-2.9629,-2.9609,-2.9626,-2.9626,-2.9453,-2.9043,-2.8984,-2.8828,-2.8418,-2.832,-2.8301,-2.8301,-2.8301,-2.8301,-2.8301,-2.8301,-2.8301,-2.8301,-2.7949,-2.7767,-2.7767,-2.7344,-2.7109,-2.707,-2.666,-2.625,-2.581,-2.5771,-2.5752,-2.5752,-2.5713,-2.5693,-2.5693,-2.5693,-2.5693,-1.6652,-1.8374,-2.0664,-2.2031,-2.4375,-2.6562,-2.7513,-2.793,-2.8184,-2.8281,-2.8223,-2.8164,-2.8164,-2.8164,-2.8164,-2.8164,-2.8242,-2.8301,-2.8301,-2.8301,-2.8301,-2.8301,-2.8301,-2.8301,-2.8301,-2.8301,-2.8301,-2.8301,-2.8301,-2.8301,-2.8301,-2.8301,-2.8301,-2.8301,-2.8301,-2.8301,-2.8301,-2.8301,-2.8301,-2.8301,-2.8301,-2.8301,-2.8301,-2.8301,-2.8301,-2.8301,-2.8301,-2.8301,-2.8301,-2.8301,-2.8301,-2.8301,-2.8301,-2.8555,-2.8965,-2.9414,-2.9844,-3.0273,-3.0723,-3.0898,-3.0898,-3.0898,-3.0898,-3.0898,-3.0898,-3.0898,-3.0898,-3.0898,-3.0898,-3.0898,-3.0898,-3.0898,-3.0859,-3.0762,-3.0742,-3.0625,-3.0156,-3.0059,-2.9961,-2.9629,-2.9626,-2.9607,-2.9453,-2.9434,-2.9277,-2.8848,-2.8496,-2.8301,-2.8301,-2.8301,-2.8301,-2.8301,-2.8301,-2.8301,-2.8301,-2.8203,-2.8164,-2.8164,-2.8066,-2.7871,-2.7539,-2.7109,-2.6836,-2.6738,-2.6426,-2.625,-2.625,-2.5898,-2.5693,-2.5693,-2.5693,-2.5693,-1.7435,-1.9219,-2.1387,-2.3535,-2.5547,-2.7129,-2.7559,-2.7988,-2.8301,-2.8301,-2.8301,-2.8301,-2.8301,-2.8301,-2.8301,-2.8301,-2.8301,-2.8301,-2.8301,-2.8301,-2.8301,-2.8301,-2.8301,-2.8301,-2.8301,-2.8301,-2.8301,-2.8301,-2.8301,-2.8301,-2.8301,-2.8301,-2.8301,-2.8301,-2.8301,-2.8301,-2.8301,-2.8301,-2.8301,-2.8301,-2.8301,-2.8301,-2.8301,-2.8301,-2.8301,-2.8301,-2.8301,-2.8301,-2.8301,-2.8301,-2.8301,-2.8301,-2.8301,-2.8418,-2.8691,-2.9336,-2.9707,-3.0,-3.0664,-3.0898,-3.0898,-3.0898,-3.0898,-3.0898,-3.0898,-3.0898,-3.0898,-3.0898,-3.0898,-3.0898,-3.0898,-3.0898,-3.0898,-3.0898,-3.0898,-3.082,-3.0586,-3.0527,-3.0469,-3.0254,-3.0195,-3.0137,-2.9902,-2.9707,-2.9492,-2.9258,-2.8867,-2.8594,-2.8594,-2.8418,-2.8301,-2.8301,-2.8301,-2.8301,-2.8301,-2.8301,-2.8301,-2.8301,-2.8301,-2.8203,-2.7969,-2.7754,-2.7441,-2.7031,-2.6797,-2.6699,-2.6699,-2.6465,-2.625,-2.6055,-2.6055,-2.5888,-1.8125,-2.0059,-2.2107,-2.4972,-2.6328,-2.7051,-2.7611,-2.793,-2.8203,-2.8281,-2.8301,-2.8301,-2.8301,-2.8301,-2.8301,-2.8301,-2.8301,-2.8301,-2.8301,-2.8301,-2.8301,-2.8301,-2.8301,-2.8301,-2.8301,-2.8301,-2.8301,-2.8301,-2.8301,-2.8301,-2.8301,-2.8301,-2.8301,-2.8301,-2.8301,-2.8301,-2.8301,-2.8301,-2.8301,-2.8301,-2.8301,-2.8301,-2.8301,-2.8301,-2.8301,-2.8301,-2.8301,-2.8301,-2.8301,-2.8301,-2.8301,-2.8301,-2.8301,-2.8301,-2.8398,-2.9258,-2.9626,-2.9687,-3.0586,-3.0898,-3.0898,-3.0898,-3.0898,-3.0898,-3.0898,-3.0898,-3.0898,-3.0898,-3.0898,-3.0898,-3.0898,-3.0898,-3.0898,-3.0898,-3.0898,-3.0898,-3.0898,-3.0898,-3.0898,-3.0898,-3.0898,-3.0762,-3.0391,-2.9961,-2.9668,-2.9668,-2.9316,-2.9023,-2.9023,-2.8672,-2.8398,-2.8398,-2.834,-2.8301,-2.8301,-2.8301,-2.8301,-2.8301,-2.8301,-2.8301,-2.8301,-2.8301,-2.7969,-2.7246,-2.7168,-2.7129,-2.7129,-2.7051,-2.6836,-2.6504,-2.6504,-2.6309,-1.632,-1.9355,-2.2891,-2.5128,-2.6113,-2.668,-2.748,-2.7767,-2.7851,-2.8223,-2.8301,-2.8301,-2.8301,-2.8301,-2.8301,-2.8301,-2.8301,-2.8301,-2.8301,-2.8301,-2.8301,-2.8301,-2.8301,-2.8301,-2.8301,-2.8301,-2.8301,-2.8301,-2.8301,-2.8301,-2.8301,-2.8301,-2.8301,-2.8301,-2.8301,-2.8301,-2.8301,-2.8301,-2.8301,-2.8301,-2.8301,-2.8301,-2.8301,-2.8301,-2.8301,-2.8301,-2.8301,-2.8301,-2.8301,-2.8301,-2.8301,-2.8301,-2.8301,-2.8301,-2.8398,-2.9258,-2.9626,-2.9687,-3.0586,-3.0898,-3.0898,-3.0898,-3.0898,-3.0898,-3.0898,-3.0898,-3.0898,-3.0898,-3.0898,-3.0898,-3.0898,-3.0898,-3.0898,-3.0898,-3.0898,-3.0898,-3.0898,-3.0898,-3.0898,-3.0898,-3.0898,-3.0879,-3.082,-3.041,-3.0117,-3.0117,-2.9746,-2.9492,-2.9492,-2.9101,-2.8828,-2.8828,-2.8516,-2.8301,-2.8301,-2.8301,-2.8301,-2.8301,-2.8301,-2.8301,-2.8301,-2.8301,-2.8242,-2.8125,-2.7773,-2.763,-2.763,-2.7207,-2.6992,-2.6934,-2.6934,-2.6894,-1.7905,-2.0508,-2.3027,-2.5148,-2.6055,-2.6484,-2.6855,-2.7129,-2.7422,-2.7851,-2.793,-2.8008,-2.8242,-2.8301,-2.8301,-2.8301,-2.8301,-2.8301,-2.8301,-2.8301,-2.8301,-2.8301,-2.8301,-2.8301,-2.8301,-2.8301,-2.8301,-2.8301,-2.8301,-2.8301,-2.8301,-2.8301,-2.8301,-2.8301,-2.8301,-2.8301,-2.8301,-2.8301,-2.8301,-2.8301,-2.8301,-2.8301,-2.8301,-2.8301,-2.8301,-2.8301,-2.8301,-2.8301,-2.8301,-2.8301,-2.8301,-2.8301,-2.8301,-2.8301,-2.8398,-2.9258,-2.9626,-2.9687,-3.0586,-3.0898,-3.0898,-3.0898,-3.0898,-3.0898,-3.0898,-3.0898,-3.0898,-3.0898,-3.0898,-3.0898,-3.0898,-3.0898,-3.0898,-3.0898,-3.0898,-3.0898,-3.0898,-3.0898,-3.0898,-3.0898,-3.0898,-3.0898,-3.0898,-3.0723,-3.0586,-3.0586,-3.0215,-2.9922,-2.9922,-2.9551,-2.9277,-2.9277,-2.9121,-2.8906,-2.8672,-2.8652,-2.8535,-2.8301,-2.8301,-2.8301,-2.8301,-2.8301,-2.8301,-2.8301,-2.8105,-2.8027,-2.8027,-2.7832,-2.7617,-2.7383,-2.7383,-2.7246,-1.8574,-2.0547,-2.2051,-2.4173,-2.5332,-2.5937,-2.6172,-2.6543,-2.6973,-2.7422,-2.75,-2.7598,-2.791,-2.8144,-2.8301,-2.8301,-2.8301,-2.8301,-2.8301,-2.8301,-2.8301,-2.8301,-2.8301,-2.8301,-2.8301,-2.8301,-2.8301,-2.8301,-2.8301,-2.8301,-2.8301,-2.8301,-2.8301,-2.8301,-2.8301,-2.8301,-2.8301,-2.8301,-2.8301,-2.8301,-2.8301,-2.8301,-2.8301,-2.8301,-2.8301,-2.8301,-2.8301,-2.8301,-2.8301,-2.8301,-2.8301,-2.8301,-2.8301,-2.8301,-2.8398,-2.9258,-2.9626,-2.9687,-3.0586,-3.0898,-3.0898,-3.0898,-3.0898,-3.0898,-3.0898,-3.0898,-3.0898,-3.0898,-3.0898,-3.0898,-3.0898,-3.0898,-3.0898,-3.0898,-3.0898,-3.0898,-3.0898,-3.0898,-3.0898,-3.0898,-3.0898,-3.0898,-3.0898,-3.0898,-3.0898,-3.0898,-3.0586,-3.0371,-3.0371,-3.0,-2.9726,-2.9726,-2.9629,-2.9434,-2.9121,-2.9082,-2.8945,-2.8633,-2.8516,-2.8457,-2.8457,-2.834,-2.8301,-2.8301,-2.8301,-2.8301,-2.8301,-2.8301,-2.8125,-2.7832,-2.7832,-2.7656,-1.6278,-1.7837,-1.9319,-2.1543,-2.332,-2.4746,-2.5538,-2.6113,-2.6543,-2.6973,-2.7051,-2.7051,-2.707,-2.7754,-2.8301,-2.8301,-2.8301,-2.8301,-2.8301,-2.8301,-2.8301,-2.8301,-2.8301,-2.8301,-2.8301,-2.8301,-2.8301,-2.8301,-2.8301,-2.8301,-2.8301,-2.8301,-2.8301,-2.8301,-2.8301,-2.8301,-2.8301,-2.8301,-2.8301,-2.8301,-2.8301,-2.8301,-2.8301,-2.8301,-2.8301,-2.8301,-2.8301,-2.8301,-2.8301,-2.8301,-2.8301,-2.8301,-2.8301,-2.8301,-2.8398,-2.9258,-2.9626,-2.9687,-3.0586,-3.0898,-3.0898,-3.0898,-3.0898,-3.0898,-3.0898,-3.0898,-3.0898,-3.0898,-3.0898,-3.0898,-3.0898,-3.0898,-3.0898,-3.0898,-3.0898,-3.0898,-3.0898,-3.0898,-3.0898,-3.0898,-3.0898,-3.0898,-3.0898,-3.0898,-3.0898,-3.0898,-3.0859,-3.0859,-3.0859,-3.0449,-3.0156,-3.0156,-2.9805,-2.9607,-2.9607,-2.9531,-2.9531,-2.9512,-2.9121,-2.8887,-2.8887,-2.8496,-2.8301,-2.8301,-2.8301,-2.8301,-2.8301,-2.8301,-2.8281,-2.8262,-2.8262,-2.8242,-1.5859,-1.7246,-1.8691,-2.0605,-2.2129,-2.3418,-2.4297,-2.5039,-2.5742,-2.6465,-2.6602,-2.6699,-2.6973,-2.7266,-2.748,-2.748,-2.748,-2.7578,-2.7851,-2.7891,-2.7891,-2.7891,-2.7891,-2.7773,-2.75,-2.748,-2.748,-2.748,-2.748,-2.748,-2.748,-2.748,-2.748,-2.748,-2.748,-2.7617,-2.7891,-2.8164,-2.8301,-2.8301,-2.8301,-2.8301,-2.8301,-2.8301,-2.8301,-2.8301,-2.8301,-2.8301,-2.8301,-2.8301,-2.8301,-2.8301,-2.8301,-2.8301,-2.8398,-2.9258,-2.9626,-2.9687,-3.0586,-3.0898,-3.0898,-3.0898,-3.0898,-3.0898,-3.0898,-3.0898,-3.0898,-3.0898,-3.0898,-3.0898,-3.0898,-3.0898,-3.0898,-3.0898,-3.0898,-3.0898,-3.0898,-3.0898,-3.0898,-3.0898,-3.0898,-3.0898,-3.0898,-3.0898,-3.0898,-3.0898,-3.0898,-3.0898,-3.0898,-3.0742,-3.0644,-3.0644,-3.0508,-3.0293,-3.0,-2.998,-2.9863,-2.9646,-2.9414,-2.9336,-2.9336,-2.8926,-2.8691,-2.8691,-2.8437,-2.8301,-2.8301,-2.8301,-2.8301,-2.8301,-2.8301,-2.8301,-1.5009,-1.6152,-1.7578,-1.9453,-2.0566,-2.166,-2.3398,-2.4121,-2.4707,-2.5742,-2.6055,-2.625,-2.6523,-2.6582,-2.668,-2.6973,-2.7012,-2.7109,-2.7402,-2.7441,-2.7441,-2.7441,-2.7441,-2.7324,-2.7051,-2.7012,-2.7012,-2.7012,-2.7012,-2.7012,-2.7012,-2.7012,-2.7012,-2.7012,-2.7012,-2.7226,-2.7708,-2.7949,-2.8164,-2.8301,-2.8301,-2.8301,-2.8301,-2.8301,-2.8301,-2.8301,-2.8301,-2.8301,-2.8301,-2.8301,-2.8301,-2.8301,-2.8301,-2.8379,-2.8594,-2.9316,-2.9668,-2.9883,-3.0625,-3.0898,-3.0898,-3.0898,-3.0898,-3.0898,-3.0898,-3.0898,-3.0898,-3.0898,-3.0898,-3.0898,-3.0898,-3.0898,-3.0898,-3.0898,-3.0898,-3.0898,-3.0898,-3.0898,-3.0898,-3.0898,-3.0898,-3.0898,-3.0898,-3.0898,-3.0898,-3.0898,-3.0898,-3.0898,-3.0898,-3.0898,-3.0898,-3.0898,-3.0898,-3.0762,-3.0449,-3.043,-3.0312,-3.0019,-2.9863,-2.9785,-2.9785,-2.9375,-2.9141,-2.9141,-2.8711,-2.8496,-2.8496,-2.8359,-2.8301,-2.8301,-2.8301,-2.8301,0.0,0.0,0.0,-1.7974,-1.85,-1.9416,-2.2871,-2.332,-2.3354,-2.4773,-2.5352,-2.5615,-2.5654,-2.5674,-2.5947,-2.6836,-2.6973,-2.6973,-2.6992,-2.6992,-2.6992,-2.6992,-2.6992,-2.6992,-2.6973,-2.6973,-2.6973,-2.6973,-2.6973,-2.6973,-2.6973,-2.6973,-2.6973,-2.6973,-2.6992,-2.7207,-2.7669,-2.7708,-2.7924,-2.8281,-2.8281,-2.8301,-2.8301,-2.8301,-2.8301,-2.8301,-2.8301,-2.8301,-2.8301,-2.8301,-2.8301,-2.8301,-2.8301,-2.8555,-2.8965,-2.9414,-2.9844,-3.0273,-3.0723,-3.0898,-3.0898,-3.0898,-3.0898,-3.0898,-3.0898,-3.0898,-3.0898,-3.0898,-3.0898,-3.0898,-3.0898,-3.0918,-3.0918,-3.0918,-3.0918,-3.0918,-3.0918,-3.0918,-3.0918,-3.0898,-3.0898,-3.0898,-3.0898,-3.0898,-3.0898,-3.0898,-3.0898,-3.0898,-3.0898,-3.0898,-3.0898,-3.0898,-3.0898,-3.0898,-3.0898,-3.0898,-3.0898,-3.0898,-3.0469,-3.0215,-3.0215,-2.9805,-2.9646,-2.9646,-2.916,-2.8926,-2.8926,-2.8496,-2.8301,-2.8301,-2.8301,-2.8301,-1.3594,0.0,0.0,0.0,0.0,0.0,-1.9514,-2.0215,-2.0977,-2.3223,-2.3535,-2.3789,-2.5019,-2.5254,-2.543,-2.5947,-2.6044,-2.6191,-2.6523,-2.6562,-2.6562,-2.6562,-2.6562,-2.6426,-2.6064,-2.6044,-2.6044,-2.6044,-2.6044,-2.6044,-2.6044,-2.6044,-2.6044,-2.6044,-2.6406,-2.6621,-2.6738,-2.7363,-2.7787,-2.7904,-2.8144,-2.8301,-2.8301,-2.8301,-2.8301,-2.8301,-2.8301,-2.8301,-2.8301,-2.8301,-2.8301,-2.8301,-2.8301,-2.8555,-2.8965,-2.9414,-2.9844,-3.0273,-3.0723,-3.0898,-3.0898,-3.0898,-3.0898,-3.0898,-3.0898,-3.0898,-3.0898,-3.0898,-3.0898,-3.0957,-3.1269,-3.1582,-3.1816,-3.1816,-3.1816,-3.1816,-3.1816,-3.1816,-3.1641,-3.1016,-3.0898,-3.0898,-3.0898,-3.0898,-3.0898,-3.0898,-3.0898,-3.0898,-3.0898,-3.0898,-3.0898,-3.0898,-3.0898,-3.0898,-3.0898,-3.0898,-3.0898,-3.0898,-3.0762,-3.0703,-3.0703,-3.0254,-3.0019,-3.0019,-2.9609,-2.9238,-2.8926,-2.8496,-2.8301,-2.8301,-2.8301,-2.8301,-1.4258,-1.4696,-1.5439,-1.5781,0.0,0.0,-1.8848,-1.9219,-1.9805,-2.2578,-2.3086,-2.3457,-2.4871,-2.5106,-2.5215,-2.5615,-2.5693,-2.5771,-2.6074,-2.6113,-2.6113,-2.6113,-2.6113,-2.6016,-2.5713,-2.5693,-2.5693,-2.5693,-2.5693,-2.5693,-2.5693,-2.5693,-2.5693,-2.5693,-2.5996,-2.6211,-2.6387,-2.7051,-2.748,-2.7728,-2.8086,-2.8301,-2.8301,-2.8301,-2.8301,-2.8301,-2.8301,-2.8301,-2.8301,-2.8301,-2.8301,-2.8301,-2.8301,-2.8672,-2.9219,-2.9473,-2.9961,-3.0527,-3.0801,-3.0898,-3.0898,-3.0898,-3.0898,-3.0898,-3.0898,-3.0898,-3.0918,-3.1094,-3.1289,-3.1484,-3.1719,-3.1973,-3.2229,-3.2229,-3.2229,-3.2229,-3.2229,-3.2229,-3.2031,-3.1523,-3.1426,-3.1367,-3.1191,-3.1152,-3.1094,-3.0918,-3.0898,-3.0898,-3.0898,-3.0898,-3.0898,-3.0898,-3.0898,-3.0898,-3.0898,-3.0898,-3.0898,-3.0898,-3.0898,-3.0898,-3.0898,-3.0625,-3.0488,-3.0488,-3.0059,-2.9629,-2.9199,-2.8769,-2.8457,-2.8301,-2.8301,-2.8301,-1.541,-1.5694,0.0,-1.7103,-1.6222,0.0,-1.9294,-1.9219,-1.926,-2.2132,-2.2969,-2.3516,-2.4519,-2.4734,-2.4844,-2.5206,-2.5382,-2.5518,-2.5674,-2.5693,-2.5693,-2.5693,-2.5693,-2.5693,-2.5693,-2.5693,-2.5693,-2.5693,-2.5693,-2.5693,-2.5693,-2.5693,-2.5693,-2.5693,-2.5693,-2.5918,-2.6309,-2.6738,-2.7168,-2.765,-2.8027,-2.8242,-2.8301,-2.8301,-2.8301,-2.8301,-2.8301,-2.8301,-2.8301,-2.8301,-2.8301,-2.8301,-2.834,-2.8848,-2.9626,-2.9685,-3.0176,-3.0898,-3.0898,-3.0898,-3.0898,-3.0898,-3.0898,-3.0898,-3.0898,-3.0898,-3.0976,-3.1406,-3.1875,-3.2307,-3.2307,-3.2266,-3.2305,-3.2305,-3.2305,-3.2305,-3.2305,-3.2305,-3.2305,-3.2305,-3.2226,-3.2051,-3.166,-3.1582,-3.1445,-3.1016,-3.0957,-3.0937,-3.0898,-3.0898,-3.0898,-3.0898,-3.0898,-3.0898,-3.0898,-3.0898,-3.0898,-3.0898,-3.0898,-3.0898,-3.0898,-3.0898,-3.0898,-3.0898,-3.043,-3.0019,-2.9704,-2.916,-2.873,-2.8359,-2.832,-2.8301,-1.7031,-1.7246,-1.7422,-1.6574,-1.6855,0.0,-1.6562,-1.7051,-1.7988,-1.9221,-1.9553,-2.0079,-2.1658,-2.2266,-2.2539,-2.2617,-2.3496,-2.4531,-2.5538,-2.5693,-2.5693,-2.5693,-2.5693,-2.5693,-2.5693,-2.5693,-2.5693,-2.5693,-2.5693,-2.5693,-2.5693,-2.5693,-2.5693,-2.5693,-2.5693,-2.5732,-2.5859,-2.6289,-2.6719,-2.7148,-2.7578,-2.7969,-2.8301,-2.8301,-2.8301,-2.8301,-2.8301,-2.8301,-2.8301,-2.8301,-2.8301,-2.832,-2.8672,-2.9121,-2.9665,-2.9941,-3.043,-3.0898,-3.0898,-3.0898,-3.0898,-3.0898,-3.0898,-3.0898,-3.0898,-3.0898,-3.0976,-3.1406,-3.207,-3.2676,-3.2676,-3.293,-3.3184,-3.3184,-3.3184,-3.3184,-3.3184,-3.3184,-3.3184,-3.3184,-3.2637,-3.2148,-3.2051,-3.2051,-3.1894,-3.1465,-3.1406,-3.1269,-3.0937,-3.0898,-3.0898,-3.0898,-3.0898,-3.0898,-3.0898,-3.0898,-3.0898,-3.0898,-3.0898,-3.0898,-3.0898,-3.0898,-3.0898,-3.0898,-3.043,-3.0156,-3.0078,-2.9297,-2.8887,-2.8789,-2.8457,-2.8301,-1.8242,-1.832,-1.8496,-1.7866,-1.7676,0.0,0.0,-1.7187,-1.7539,-1.9258,-1.9082,-1.9124,-2.0878,-2.123,-2.1445,-2.209,-2.3086,-2.4023,-2.4668,-2.4941,-2.5031,-2.5031,-2.5031,-2.5109,-2.5391,-2.541,-2.5488,-2.5674,-2.5693,-2.5693,-2.5693,-2.5693,-2.5693,-2.5693,-2.5693,-2.5693,-2.5693,-2.6172,-2.6602,-2.7031,-2.7461,-2.7891,-2.8301,-2.8301,-2.8301,-2.8301,-2.8301,-2.8301,-2.8301,-2.8301,-2.8301,-2.834,-2.875,-2.918,-2.9685,-3.0039,-3.0488,-3.0898,-3.0898,-3.0898,-3.0898,-3.0898,-3.0898,-3.0898,-3.0898,-3.1191,-3.1621,-3.2031,-3.2617,-3.3105,-3.3105,-3.3262,-3.3418,-3.3418,-3.3418,-3.3418,-3.3418,-3.3418,-3.3418,-3.3418,-3.3086,-3.2734,-3.2519,-3.248,-3.2344,-3.1914,-3.166,-3.1445,-3.123,-3.1016,-3.0898,-3.0898,-3.0898,-3.0898,-3.0898,-3.0898,-3.0898,-3.0898,-3.0898,-3.0898,-3.0898,-3.0898,-3.0898,-3.0898,-3.0664,-3.0547,-3.0547,-2.9883,-2.9453,-2.9238,-2.9023,-2.8809,-1.957,-1.9629,-1.9902,-1.9414,-1.8828,-1.8437,0.0,0.0,0.0,-1.9607,-1.918,-1.8909,-2.0313,-2.0312,-2.043,-2.1484,-2.2422,-2.3047,-2.3047,-2.3477,-2.3842,-2.4095,-2.4316,-2.4531,-2.4832,-2.4746,-2.4922,-2.5401,-2.5362,-2.5382,-2.5605,-2.5635,-2.5693,-2.5693,-2.5693,-2.5693,-2.5693,-2.6094,-2.6523,-2.7012,-2.7363,-2.7812,-2.8301,-2.8301,-2.8301,-2.8301,-2.8301,-2.8301,-2.8301,-2.8301,-2.834,-2.8457,-2.8867,-2.9258,-2.9629,-3.0137,-3.0566,-3.0898,-3.0898,-3.0898,-3.0898,-3.0898,-3.0937,-3.1016,-3.1016,-3.1601,-3.2363,-3.2695,-3.3105,-3.3418,-3.3418,-3.3418,-3.3418,-3.3418,-3.3418,-3.3418,-3.3418,-3.3418,-3.3418,-3.3418,-3.3418,-3.332,-3.2969,-3.291,-3.2773,-3.2344,-3.1992,-3.1738,-3.166,-3.1269,-3.1016,-3.1016,-3.0937,-3.0898,-3.0898,-3.0898,-3.0898,-3.0898,-3.0898,-3.0898,-3.0898,-3.0898,-3.0898,-3.0898,-3.0898,-3.0898,-3.0898,-3.0508,-3.0117,-2.9687,-2.9665,-2.9375,0.0,0.0,0.0,0.0,-2.0625,-2.1074,-1.774,0.0,-1.8769,-1.7964,0.0,-1.8144,-1.834,0.0,0.0,-1.8496,-1.9551,-2.0352,-2.0352,-2.1034,-2.197,-2.3101,-2.3945,-2.4297,-2.3965,-2.3594,-2.3647,-2.4512,-2.4219,-2.4336,-2.5145,-2.5527,-2.5693,-2.5693,-2.5693,-2.5693,-2.5693,-2.5732,-2.6161,-2.7012,-2.707,-2.7519,-2.8301,-2.8301,-2.8301,-2.8301,-2.8301,-2.8301,-2.8301,-2.8301,-2.8516,-2.8887,-2.9336,-2.9531,-2.9668,-3.0508,-3.084,-3.0898,-3.0898,-3.0898,-3.0898,-3.0898,-3.1133,-3.1445,-3.1445,-3.2051,-3.2734,-3.2793,-3.3105,-3.3418,-3.3418,-3.3418,-3.3418,-3.3418,-3.3418,-3.3418,-3.3418,-3.3418,-3.3418,-3.3418,-3.3418,-3.3398,-3.3359,-3.3359,-3.3203,-3.2793,-3.2676,-3.2519,-3.2148,-3.1719,-3.1445,-3.1445,-3.1113,-3.0898,-3.0898,-3.0898,-3.0898,-3.0898,-3.0898,-3.0898,-3.0898,-3.0898,-3.0898,-3.0898,-3.0898,-3.0898,-3.0898,-3.084,-3.0566,-3.0117,-2.9746,-2.9551,0.0,0.0,0.0,0.0,0.0,0.0,-1.8769,0.0,-1.8164,-1.8125,0.0,0.0,0.0,0.0,0.0,0.0,-1.8887,-1.9453,-1.9163,-1.9884,-2.082,-2.1873,-2.1853,-2.2031,-2.2637,-2.2969,-2.3496,-2.4355,-2.3789,-2.3887,-2.5047,-2.5254,-2.5469,-2.5674,-2.5693,-2.5693,-2.5693,-2.5996,-2.6426,-2.7012,-2.7266,-2.7715,-2.8301,-2.8301,-2.8301,-2.8301,-2.8301,-2.8301,-2.8301,-2.8301,-2.8535,-2.8965,-2.9394,-2.9726,-3.0019,-3.0644,-3.0898,-3.0898,-3.0898,-3.0898,-3.0937,-3.1172,-3.1367,-3.1601,-3.2109,-3.2519,-3.2851,-3.3086,-3.3281,-3.3418,-3.3418,-3.3418,-3.3418,-3.3418,-3.3418,-3.3418,-3.3418,-3.3418,-3.3418,-3.3418,-3.3418,-3.3418,-3.3418,-3.3418,-3.3359,-3.3184,-3.2949,-3.2734,-3.2559,-3.2148,-3.1894,-3.1894,-3.1504,-3.125,-3.125,-3.1035,-3.0898,-3.0898,-3.0898,-3.0898,-3.0898,-3.0898,-3.0898,-3.0898,-3.0898,-3.0898,-3.0898,-3.0898,-3.0801,-3.0586,-3.041,-3.0195,-2.2656,0.0,0.0,0.0,0.0,0.0,0.0,0.0,0.0,0.0,0.0,0.0,0.0,0.0,0.0,0.0,0.0,-1.8926,-1.8344,-1.873,-1.9338,-2.0216,-2.006,-2.043,-2.1758,-2.2129,-2.2715,-2.3809,-2.3062,-2.3223,-2.4695,-2.4988,-2.5215,-2.5547,-2.5635,-2.5693,-2.5693,-2.6172,-2.6602,-2.7031,-2.7461,-2.7891,-2.8301,-2.8301,-2.8301,-2.8301,-2.8301,-2.8301,-2.8301,-2.8418,-2.8711,-2.9141,-2.957,-3.0,-3.043,-3.0762,-3.0898,-3.0898,-3.0898,-3.0957,-3.1113,-3.1426,-3.168,-3.1973,-3.2617,-3.2871,-3.3027,-3.334,-3.3418,-3.3418,-3.3418,-3.3418,-3.3418,-3.3418,-3.3418,-3.3418,-3.3418,-3.3418,-3.3418,-3.3418,-3.3418,-3.3418,-3.3418,-3.3418,-3.3418,-3.3418,-3.3164,-3.2969,-3.2969,-3.2598,-3.2344,-3.2344,-3.1953,-3.1699,-3.1699,-3.1406,-3.1191,-3.1074,-3.1055,-3.1016,-3.0898,-3.0898,-3.0898,-3.0898,-3.0898,-3.0898,-3.0898,-3.0898,-3.0898,-3.0898,-3.0898,-3.0703,0.0,0.0,0.0,-2.1717,0.0,0.0,0.0,0.0,-1.9727,0.0,0.0,0.0,0.0,0.0,0.0,0.0,0.0,0.0,0.0,-1.709,-1.7116,-1.8008,-1.918,-2.043,-2.1758,-2.0762,-2.0723,-2.2441,-2.1736,-2.2031,-2.373,-2.4656,-2.5125,-2.5145,-2.5508,-2.5693,-2.5693,-2.6172,-2.6602,-2.7031,-2.7461,-2.7891,-2.8301,-2.8301,-2.8301,-2.8301,-2.8301,-2.8301,-2.832,-2.873,-2.916,-2.959,-3.0019,-3.0469,-3.0859,-3.0879,-3.0898,-3.0898,-3.0898,-3.1152,-3.1504,-3.1504,-3.207,-3.2754,-3.2793,-3.3086,-3.3398,-3.3418,-3.3418,-3.3418,-3.3418,-3.3418,-3.3418,-3.3418,-3.3418,-3.3418,-3.3418,-3.3418,-3.3418,-3.3418,-3.3418,-3.3418,-3.3418,-3.3418,-3.3418,-3.3418,-3.3418,-3.3398,-3.3398,-3.3027,-3.2773,-3.2773,-3.2402,-3.2209,-3.2209,-3.219,-3.1953,-3.1523,-3.1504,-3.1309,-3.0918,-3.0898,-3.0898,-3.0898,-3.0898,-3.0898,-3.0898,-3.0898,-3.0898,-3.0898,-3.0898,-3.0879,0.0,0.0,-2.5547,-2.3062,0.0,0.0,0.0,0.0,0.0,0.0,0.0,0.0,0.0,0.0,0.0,0.0,0.0,0.0,0.0,-1.5644,-1.54,-1.6582,-1.8105,-1.9104,-1.9297,-1.9941,-2.0703,-2.1561,-2.1366,-2.1951,-2.3691,-2.4336,-2.4766,-2.5106,-2.5508,-2.583,-2.6172,-2.6582,-2.7012,-2.7461,-2.7871,-2.8164,-2.8301,-2.8301,-2.8301,-2.8301,-2.8301,-2.8301,-2.832,-2.875,-2.918,-2.9665,-3.0039,-3.0488,-3.0898,-3.0898,-3.0898,-3.0937,-3.1211,-3.1406,-3.1621,-3.2187,-3.2559,-3.2851,-3.3125,-3.3301,-3.3418,-3.3418,-3.3418,-3.3418,-3.3418,-3.3418,-3.3418,-3.3418,-3.3418,-3.3418,-3.3418,-3.3418,-3.3418,-3.3418,-3.3418,-3.3418,-3.3418,-3.3418,-3.3418,-3.3418,-3.3418,-3.3418,-3.3418,-3.3301,-3.3203,-3.3203,-3.2832,-3.2578,-3.2578,-3.2324,-3.2109,-3.1953,-3.1953,-3.1758,-3.1328,-3.1309,-3.1172,-3.0898,-3.0898,-3.0898,-3.0898,-3.0898,-3.0898,-3.0898,-3.0898,-3.0898,-2.584,-2.6269,0.0,-2.4316,-2.3711,0.0,-2.0723,0.0,-2.1504,0.0,0.0,0.0,0.0,0.0,0.0,0.0,0.0,0.0,0.0,-1.4785,-1.4727,-1.5752,-1.709,-1.811,-1.8633,-1.9141,-1.9941,-2.1112,-2.0761,-2.1367,-2.3242,-2.4023,-2.4551,-2.4824,-2.541,-2.5937,-2.6387,-2.6797,-2.7226,-2.7728,-2.8086,-2.8301,-2.8301,-2.8301,-2.8301,-2.8301,-2.8301,-2.8379,-2.8555,-2.8984,-2.9414,-2.9844,-3.0273,-3.0625,-3.0898,-3.0898,-3.0996,-3.1152,-3.1426,-3.1719,-3.207,-3.2617,-3.2891,-3.3066,-3.334,-3.3418,-3.3418,-3.3418,-3.3418,-3.3418,-3.3418,-3.3418,-3.3418,-3.3418,-3.3418,-3.3418,-3.3418,-3.3418,-3.3418,-3.3418,-3.3418,-3.3418,-3.3418,-3.3418,-3.3418,-3.3418,-3.3418,-3.3418,-3.3418,-3.3418,-3.3418,-3.3418,-3.3184,-3.3008,-3.3008,-3.2773,-3.2559,-3.2402,-3.2383,-3.2207,-3.1758,-3.1758,-3.1543,-3.1133,-3.1113,-3.1035,-3.0898,-3.0898,-3.0898,-3.0898,-3.0898,-3.0898]},{"header":{"parameterUnit":"m.s-1","parameterCategory":1,"la1":30.6,"la2":29.2853,"lo1":-89.7004,"lo2":-87.6739,"dy":0.0162,"dx":0.0183,"nx":112,"ny":82,"refTime":"2026-03-01T12:00:00:Z","depth":0,"parameterNumber":3,"parameterNumberName":"V-component_of_WINDS"},"data":[0.0,0.0,0.0,0.0,0.0,0.0,0.0,0.0,0.0,0.0,0.0,0.0,0.0,0.0,0.0,0.0,0.0,0.0,0.0,0.0,0.0,0.0,0.0,0.0,0.0,0.0,0.0,0.0,0.0,0.0,0.0,0.0,0.0,0.0,0.0,0.0,0.0,0.0,0.0,0.0,0.0,0.0,0.0,0.0,0.0,0.0,0.0,0.0,0.0,0.0,0.0,0.0,0.0,0.0,0.0,0.0,0.0,0.0,0.0,0.0,0.0,0.0,0.0,0.0,0.0,0.0,0.0,0.0,0.0,0.0,0.0,0.0,0.0,0.0,0.0,0.0,0.0,0.0,0.0,0.0,0.0,0.0,0.0,0.0,0.0,0.0,0.0,0.0,0.0,0.0,1.4974,1.692,2.0241,2.1989,2.1258,2.0454,1.8797,1.5933,0.0,0.0,0.0,0.0,0.0,0.0,0.0,0.0,0.0,0.0,0.0,0.0,0.0,0.0,0.0,0.0,0.0,0.0,0.0,0.0,0.0,0.0,0.0,0.0,0.0,0.0,0.0,0.0,0.0,0.0,0.0,0.0,0.0,0.0,0.0,0.0,0.0,0.0,0.0,0.0,0.0,0.0,0.0,0.0,0.0,0.0,0.0,0.0,0.0,0.0,0.0,0.0,0.0,0.0,0.0,0.0,0.0,0.0,0.0,0.0,0.0,0.0,0.0,0.0,0.0,0.0,0.0,0.0,0.0,0.0,0.0,0.0,0.0,0.0,0.0,0.0,0.0,0.0,0.0,0.0,0.0,0.0,0.0,0.0,0.0,0.0,0.0,0.0,0.0,0.0,0.0,0.0,0.0,0.0,0.0,0.0,0.0,0.0,0.0,0.0,0.0,0.0,0.0,0.0,1.5794,2.0023,2.1569,2.1989,2.1258,2.0454,1.9,1.6688,0.0,0.0,0.0,0.0,0.0,0.0,0.0,0.0,0.0,0.0,0.0,0.0,0.0,0.0,0.0,0.0,0.0,0.0,0.0,0.0,0.0,0.0,0.0,0.0,0.0,0.0,0.0,0.0,0.0,0.0,0.0,0.0,0.0,0.0,0.0,0.0,0.0,0.0,0.0,0.0,0.0,0.0,0.0,0.0,0.0,0.0,0.0,0.0,0.0,0.0,0.0,0.0,0.0,0.0,0.0,0.0,0.0,0.0,0.0,0.0,0.0,0.0,0.0,0.0,0.0,0.0,0.0,0.0,0.0,0.0,0.0,0.0,0.0,0.0,0.0,0.0,0.0,0.0,0.0,0.0,0.0,0.0,0.0,0.0,0.0,0.0,0.0,0.0,0.0,0.0,0.0,0.0,0.0,0.0,0.0,0.0,0.0,0.0,0.0,0.0,0.0,0.0,0.0,1.5412,1.7457,2.0852,2.1854,2.2158,2.182,2.069,1.9237,1.7422,1.4826,0.0,0.0,0.0,0.0,0.0,0.0,0.0,0.0,0.0,0.0,0.0,0.0,0.0,0.0,0.0,0.0,0.0,0.0,0.0,0.0,0.0,0.0,0.0,0.0,0.0,0.0,0.0,0.0,0.0,0.0,0.0,0.0,0.0,0.0,0.0,0.0,0.0,0.0,0.0,0.0,0.0,0.0,0.0,0.0,0.0,0.0,0.0,0.0,0.0,0.0,0.0,0.0,0.0,0.0,0.0,0.0,0.0,0.0,0.0,0.0,0.0,0.0,0.0,0.0,0.0,0.0,0.0,0.0,0.0,0.0,0.0,0.0,0.0,0.0,0.0,0.0,0.0,0.0,0.0,0.0,0.0,0.0,0.0,0.0,0.0,0.0,0.0,0.0,0.0,0.0,0.0,0.0,0.0,0.0,0.0,0.0,0.0,0.0,0.0,0.0,0.0,0.0,1.7547,1.9135,2.1224,2.1955,2.2313,2.2313,2.0724,1.9203,1.7884,1.4851,0.0,0.0,0.0,0.0,0.0,0.0,0.0,0.0,0.0,0.0,0.0,0.0,0.0,0.0,0.0,0.0,0.0,0.0,0.0,0.0,0.0,0.0,0.0,0.0,0.0,0.0,0.0,0.0,0.0,0.0,0.0,0.0,0.0,0.0,0.0,0.0,0.0,0.0,0.0,0.0,0.0,0.0,0.0,0.0,0.0,0.0,0.0,0.0,0.0,0.0,0.0,0.0,0.0,0.0,0.0,0.0,0.0,0.0,0.0,0.0,0.0,0.0,0.0,0.0,0.0,0.0,0.0,0.0,0.0,0.0,0.0,0.0,0.0,0.0,0.0,0.0,0.0,0.0,0.0,0.0,0.0,0.0,0.0,0.0,0.0,0.0,0.0,0.0,0.0,0.0,0.0,0.0,0.0,0.0,0.0,0.0,0.0,0.0,0.0,0.0,0.0,0.0,1.8527,2.0454,2.2043,2.2279,2.2313,2.2313,2.0264,1.864,1.785,1.4377,0.0,0.0,0.0,0.0,0.0,0.0,0.0,0.0,0.0,0.0,0.0,0.0,0.0,0.0,0.0,0.0,0.0,0.0,0.0,0.0,0.0,0.0,0.0,0.0,0.0,0.0,0.0,0.0,0.0,0.0,0.0,0.0,0.0,0.0,0.0,0.0,0.0,0.0,0.0,0.0,0.0,0.0,0.0,0.0,0.0,0.0,0.0,0.0,0.0,0.0,0.0,0.0,0.0,0.0,0.0,0.0,0.0,0.0,0.0,0.0,0.0,0.0,0.0,0.0,0.0,0.0,0.0,0.0,0.0,0.0,0.0,0.0,0.0,0.0,0.0,0.0,0.0,0.0,0.0,0.0,0.0,0.0,0.0,0.0,0.0,0.0,0.0,0.0,0.0,0.0,0.0,0.0,0.0,0.0,0.0,0.0,0.0,0.0,0.0,0.0,0.0,0.0,1.8142,2.0082,2.2076,2.2313,2.2313,2.2313,2.0623,1.9068,1.7884,0.0,0.0,0.0,0.0,0.0,0.0,0.0,0.0,0.0,0.0,0.0,0.0,0.0,0.0,0.0,0.0,0.0,0.0,0.0,0.0,0.0,0.0,0.0,0.0,0.0,0.0,0.0,0.0,0.0,0.0,0.0,0.0,0.0,0.0,0.0,0.0,0.0,0.0,0.0,0.0,0.0,0.0,0.0,0.0,0.0,0.0,0.0,0.0,0.0,0.0,0.0,0.0,0.0,0.0,0.0,0.0,0.0,0.0,0.0,0.0,0.0,0.0,0.0,0.0,0.0,0.0,0.0,0.0,0.0,0.0,0.0,0.0,0.0,0.0,0.0,0.0,0.0,0.0,0.0,0.0,0.0,0.0,0.0,0.0,0.0,0.0,0.0,0.0,0.0,0.0,0.0,0.0,0.0,0.0,0.0,0.0,0.0,0.0,0.0,0.0,0.0,0.0,1.6451,1.8266,1.9959,2.1752,2.1955,2.1854,2.1603,1.9947,1.8425,1.7174,0.0,0.0,0.0,0.0,0.0,0.0,0.0,0.0,0.0,0.0,0.0,0.0,0.0,0.0,0.0,0.0,0.0,0.0,0.0,0.0,0.0,0.0,0.0,0.0,0.0,0.0,0.0,0.0,0.0,0.0,0.0,0.0,0.0,0.0,0.0,0.0,0.0,0.0,0.0,0.0,0.0,0.0,0.0,0.0,0.0,0.0,0.0,0.0,0.0,0.0,0.0,0.0,0.0,0.0,0.0,0.0,0.0,0.0,0.0,0.0,0.0,0.0,0.0,0.0,0.0,0.0,0.0,0.0,0.0,0.0,0.0,0.0,0.0,0.0,0.0,0.0,0.0,0.0,0.0,0.0,0.0,0.0,0.0,0.0,0.0,0.0,0.0,0.0,0.0,0.0,0.0,0.0,0.0,0.0,0.0,0.0,0.0,0.0,0.0,0.0,0.0,0.0,1.7411,1.9068,2.0285,2.1089,2.119,2.0839,2.0082,1.7963,1.6384,0.0,0.0,0.0,0.0,0.0,0.0,0.0,0.0,0.0,0.0,0.0,0.0,0.0,0.0,0.0,0.0,0.0,0.0,0.0,0.0,0.0,0.0,0.0,0.0,0.0,0.0,0.0,0.0,0.0,0.0,0.0,0.0,0.0,0.0,0.0,0.0,0.0,0.0,0.0,0.0,0.0,0.0,0.0,0.0,0.0,0.0,0.0,0.0,0.0,0.0,0.0,0.0,0.0,0.0,0.0,0.0,0.0,0.0,0.0,0.0,0.0,0.0,0.0,0.0,0.0,0.0,0.0,0.0,0.0,0.0,0.0,0.0,0.0,0.0,0.0,0.0,0.0,0.0,0.0,0.0,0.0,0.0,0.0,0.0,0.0,0.0,0.0,0.0,0.0,0.0,0.0,0.0,0.0,0.0,0.0,0.0,0.0,0.0,0.0,0.0,0.0,0.0,0.0,1.6654,1.7862,1.8932,2.0217,2.0352,2.0251,2.0002,1.8459,1.6948,1.5663,0.0,0.0,0.0,0.0,0.0,0.0,0.0,0.0,0.0,0.0,0.0,0.0,0.0,0.0,0.0,0.0,0.0,0.0,0.0,0.0,0.0,0.0,0.0,0.0,0.0,0.0,0.0,0.0,0.0,0.0,0.0,0.0,0.0,0.0,0.0,0.0,0.0,0.0,0.0,0.0,0.0,0.0,0.0,0.0,0.0,0.0,0.0,0.0,0.0,0.0,0.0,0.0,0.0,0.0,0.0,0.0,0.0,0.0,0.0,0.0,0.0,0.0,0.0,0.0,0.0,0.0,0.0,0.0,0.0,0.0,0.0,0.0,0.0,0.0,0.0,0.0,0.0,0.0,0.0,0.0,0.0,0.0,0.0,0.0,0.0,0.0,0.0,0.0,0.0,0.0,0.0,0.0,0.0,0.0,0.0,0.0,0.0,0.0,0.0,0.0,0.0,0.0,1.636,1.7591,1.8572,1.9473,1.9575,1.9439,1.9157,1.7783,1.6407,1.5257,0.0,0.0,0.0,0.0,0.0,0.0,0.0,0.0,0.0,0.0,0.0,0.0,0.0,0.0,0.0,0.0,0.0,0.0,0.0,0.0,0.0,0.0,0.0,0.0,0.0,0.0,0.0,0.0,0.0,0.0,0.0,0.0,0.0,0.0,0.0,0.0,0.0,0.0,0.0,0.0,0.0,0.0,0.0,0.0,0.0,0.0,0.0,0.0,0.0,0.0,0.0,0.0,0.0,0.0,0.0,0.0,0.0,0.0,0.0,0.0,0.0,0.0,0.0,0.0,0.0,0.0,0.0,0.0,0.0,0.0,0.0,0.0,0.0,0.0,0.0,0.0,0.0,0.0,0.0,0.0,0.0,0.0,0.0,0.0,0.0,0.0,0.0,0.0,0.0,0.0,0.0,0.0,0.0,0.0,0.0,0.0,0.0,0.0,0.0,0.0,0.0,0.0,1.6326,1.7839,1.8707,1.8775,1.8821,1.8538,1.785,1.6509,1.5358,1.4537,0.0,0.0,0.0,0.0,0.0,0.0,0.0,0.0,0.0,0.0,0.0,0.0,0.0,0.0,0.0,0.0,0.0,0.0,0.0,0.0,0.0,0.0,0.0,0.0,0.0,0.0,0.0,0.0,0.0,0.0,0.0,0.0,0.0,0.0,0.0,0.0,0.0,0.0,0.0,0.0,0.0,0.0,0.0,0.0,0.0,0.0,0.0,0.0,0.0,0.0,0.0,0.0,0.0,0.0,0.0,0.0,0.0,0.0,0.0,0.0,2.2293,2.0886,0.0,0.0,0.0,0.0,0.0,0.0,0.0,0.0,0.0,0.0,0.0,0.0,0.0,0.0,0.0,0.0,0.0,0.0,0.0,0.0,0.0,0.0,0.0,0.0,0.0,0.0,0.0,0.0,0.0,0.0,0.0,0.0,0.0,0.0,0.0,0.0,0.0,0.0,0.0,0.0,1.5537,1.6621,1.7399,1.7952,1.802,1.7952,1.7817,1.6993,1.591,1.4571,1.3498,0.0,0.0,0.0,0.0,0.0,0.0,0.0,0.0,0.0,0.0,0.0,0.0,0.0,0.0,0.0,0.0,0.0,0.0,0.0,0.0,0.0,0.0,0.0,0.0,0.0,0.0,0.0,0.0,0.0,0.0,0.0,0.0,0.0,0.0,0.0,0.0,0.0,0.0,0.0,0.0,0.0,0.0,0.0,0.0,0.0,0.0,0.0,0.0,0.0,0.0,0.0,0.0,0.0,0.0,0.0,0.0,0.0,0.0,0.0,2.5609,2.4271,0.0,0.0,0.0,0.0,0.0,0.0,0.0,0.0,0.0,0.0,0.0,0.0,0.0,0.0,0.0,0.0,0.0,0.0,0.0,0.0,0.0,0.0,0.0,0.0,0.0,0.0,0.0,0.0,0.0,0.0,0.0,0.0,0.0,0.0,0.0,0.0,0.0,0.0,0.0,0.0,1.6373,1.7287,1.8042,1.8763,1.8527,1.8335,1.8335,1.7331,1.6384,1.5595,1.4183,0.0,0.0,0.0,0.0,0.0,0.0,0.0,0.0,0.0,0.0,0.0,0.0,0.0,0.0,0.0,0.0,0.0,0.0,0.0,0.0,0.0,0.0,0.0,0.0,0.0,0.0,0.0,0.0,0.0,0.0,0.0,0.0,0.0,0.0,0.0,0.0,0.0,0.0,0.0,0.0,0.0,0.0,0.0,0.0,0.0,0.0,0.0,0.0,0.0,0.0,0.0,0.0,0.0,3.2002,3.2408,3.2205,3.2801,3.3072,3.2903,2.9822,2.8807,2.9179,2.6573,0.0,0.0,0.0,0.0,0.0,0.0,0.0,0.0,0.0,0.0,0.0,0.0,0.0,0.0,0.0,0.0,0.0,0.0,0.0,0.0,0.0,0.0,2.0893,2.1278,2.1955,2.1448,1.7591,0.0,0.0,0.0,0.0,0.0,0.0,0.0,0.0,0.0,0.0,0.0,1.7546,1.8572,1.935,1.9934,1.9439,1.9046,1.891,1.7771,1.6959,1.6733,1.5005,1.3853,0.0,0.0,0.0,0.0,0.0,0.0,0.0,0.0,0.0,0.0,0.0,0.0,0.0,0.0,0.0,0.0,0.0,0.0,0.0,0.0,0.0,0.0,0.0,0.0,0.0,0.0,0.0,0.0,0.0,0.0,0.0,0.0,2.4068,2.4932,0.0,0.0,0.0,0.0,0.0,0.0,0.0,0.0,0.0,0.0,0.0,0.0,0.0,2.9905,3.0751,3.3423,3.4472,3.3931,3.6671,3.728,3.6084,3.6152,3.622,3.6186,3.5678,0.0,3.0818,2.9803,0.0,0.0,0.0,0.0,0.0,0.0,0.0,0.0,0.0,0.0,0.0,0.0,0.0,0.0,0.0,0.0,0.0,0.0,0.0,0.0,0.0,0.0,2.3628,2.2429,2.2733,2.2902,2.1671,1.9372,1.7073,1.5595,1.4285,1.3312,0.0,0.0,0.0,0.0,0.0,0.0,1.7681,1.9,1.99,2.0002,1.99,1.9608,1.8944,1.8719,1.8076,1.68,1.6428,1.5707,1.4402,1.354,0.0,0.0,0.0,0.0,0.0,0.0,0.0,0.0,0.0,0.0,0.0,0.0,0.0,0.0,0.0,0.0,0.0,0.0,0.0,0.0,0.0,0.0,0.0,0.0,0.0,0.0,0.0,0.0,0.0,2.412,2.5676,2.5609,2.6048,2.5879,0.0,0.0,0.0,0.0,0.0,0.0,0.0,0.0,0.0,3.2022,3.3275,3.4404,3.5554,3.728,3.7966,3.7652,3.8971,3.93,3.8657,3.8657,3.8657,3.8657,3.8657,3.7506,3.5385,3.2949,3.092,2.9213,0.0,0.0,0.0,0.0,2.6894,2.6776,2.8333,2.84,2.7706,2.7182,0.0,0.0,0.0,0.0,0.0,0.0,0.0,2.3579,2.3226,2.4747,2.6167,2.5525,2.5981,2.6218,2.5033,2.341,2.1366,1.8594,1.7929,1.7094,1.4996,1.4962,0.0,0.0,0.0,1.7896,1.9486,2.0264,2.0839,2.1265,2.094,2.0534,2.0209,1.9396,1.8606,1.7975,1.7162,1.6417,1.5764,1.4614,1.3667,0.0,0.0,0.0,0.0,0.0,0.0,0.0,0.0,0.0,0.0,0.0,0.0,0.0,0.0,0.0,0.0,0.0,0.0,0.0,0.0,0.0,0.0,0.0,0.0,0.0,0.0,0.0,0.0,2.6048,2.7368,2.6826,2.8229,2.8281,0.0,0.0,0.0,0.0,0.0,0.0,3.1407,3.2408,3.3829,3.5881,3.7235,3.8531,3.9817,4.0595,4.0941,4.0941,4.1136,4.1162,4.0933,4.0933,4.0832,4.0654,4.0485,4.0054,3.9309,3.596,3.3998,3.2949,3.1142,3.0296,3.0228,3.0954,3.0886,3.0668,3.253,3.2645,3.1901,3.0987,3.033,2.9281,2.6285,0.0,0.0,0.0,0.0,2.6742,2.6742,2.7689,2.8601,2.8432,2.8856,2.8942,2.7588,2.686,2.5372,2.1603,2.1211,2.0547,1.7534,1.7501,0.0,1.7568,1.8369,1.9486,2.1021,2.1529,2.1887,2.2245,2.182,2.1393,2.1224,2.0141,1.9329,1.891,1.7873,1.7094,1.6733,1.5629,1.4614,1.3709,0.0,0.0,0.0,0.0,0.0,0.0,0.0,0.0,0.0,0.0,0.0,0.0,0.0,0.0,0.0,0.0,0.0,0.0,0.0,0.0,0.0,0.0,0.0,0.0,0.0,0.0,0.0,0.0,0.0,2.9905,3.1779,0.0,0.0,0.0,0.0,3.092,3.2307,3.374,3.5228,3.6772,3.8261,3.9774,4.0561,4.1339,4.2117,4.2861,4.3206,4.324,4.4012,4.3978,4.3206,4.3206,4.2861,4.2151,4.1441,4.1136,4.0899,3.8633,3.6783,3.5329,3.4539,3.3795,3.3288,3.3998,3.4235,3.4336,3.5126,3.4945,3.4438,3.5059,3.3863,3.1955,3.1075,2.9822,0.0,0.0,2.9262,2.9852,2.9852,3.0446,3.0852,3.0156,3.004,2.9837,2.9044,2.8874,2.7723,2.3951,2.2699,2.1955,2.1055,0.0,2.0716,1.9947,2.1096,2.1854,2.1292,2.2409,2.3038,2.2381,2.2279,2.1955,2.1258,2.1123,2.0446,1.899,1.8809,1.8178,1.6766,1.6631,1.591,1.447,1.3676,0.0,0.0,0.0,0.0,0.0,0.0,0.0,0.0,0.0,0.0,0.0,0.0,0.0,0.0,0.0,0.0,0.0,0.0,0.0,0.0,0.0,0.0,0.0,0.0,0.0,0.0,0.0,0.0,3.3571,3.5622,0.0,3.3491,3.3964,3.4709,3.5453,3.6434,3.7652,3.914,4.0189,4.1204,4.2185,4.2963,4.3504,4.3802,4.4012,4.391,4.3375,4.3707,4.3436,4.2692,4.2692,4.2557,4.2286,4.2016,4.1644,4.1136,4.0358,3.914,3.7719,3.6975,3.6535,3.6332,3.6603,3.6705,3.6738,3.7009,3.6907,3.6637,3.6434,3.4844,3.2949,3.2713,3.1901,3.1108,3.1108,3.163,3.2239,3.2239,3.2442,3.2544,3.2307,3.1867,3.1292,3.0601,3.004,2.9161,2.7351,2.5981,2.4594,2.2917,2.2612,2.253,2.2226,2.2665,2.3071,2.3289,2.3763,2.4,2.3748,2.3274,2.2902,2.2646,2.1732,2.0737,1.9676,1.9147,1.8437,1.7456,1.6519,1.5731,1.5223,1.3532,1.2423,0.0,0.0,0.0,0.0,0.0,0.0,0.0,0.0,0.0,0.0,0.0,0.0,0.0,0.0,0.0,0.0,0.0,0.0,0.0,0.0,0.0,0.0,0.0,0.0,0.0,3.3457,3.5825,3.6309,3.8599,3.914,3.6614,3.7516,3.8565,3.9343,4.0087,4.1035,4.2286,4.2794,4.3301,4.3809,4.4316,4.4615,4.4615,4.4615,4.4316,4.3809,4.3809,4.3538,4.3091,4.3091,4.3091,4.3031,4.2794,4.2388,4.1948,4.1677,4.0832,3.9681,3.8937,3.8633,3.8633,3.8633,3.8633,3.8633,3.8633,3.8497,3.8193,3.7686,3.6332,3.4912,3.4912,3.4573,3.4155,3.3884,3.4189,3.4472,3.4235,3.3964,3.3761,3.3761,3.322,3.2462,3.1752,3.119,3.0548,2.9567,2.8367,2.6843,2.4864,2.4492,2.4323,2.3864,2.3985,2.4176,2.4222,2.4441,2.4444,2.4049,2.371,2.3386,2.3152,2.2391,2.1481,2.0454,1.9688,1.8932,1.82,1.6982,1.6238,1.5977,1.4276,1.3396,1.3396,0.0,0.0,0.0,0.0,0.0,0.0,0.0,0.0,0.0,0.0,0.0,0.0,0.0,0.0,0.0,0.0,0.0,0.0,0.0,0.0,0.0,0.0,0.0,3.3423,3.6096,3.8024,3.8091,4.0629,4.1238,3.8396,4.0054,4.161,4.232,4.3064,4.3809,4.4615,4.4649,4.4682,4.4682,4.4682,4.4682,4.4682,4.4682,4.4682,4.4682,4.4682,4.4649,4.4649,4.4649,4.4615,4.4581,4.3775,4.3409,4.3341,4.2625,4.188,4.117,4.0417,4.0113,4.0113,4.0113,4.0113,4.0113,4.0113,3.9639,3.9039,3.9039,3.8531,3.7922,3.7922,3.7922,3.7753,3.7032,3.6829,3.6626,3.5836,3.5081,3.4539,3.4539,3.3964,3.3254,3.253,3.2361,3.1921,3.0446,2.96,2.8604,2.7046,2.6759,2.6302,2.4846,2.5221,0.0,2.3968,2.4394,2.4368,2.3191,2.3482,2.3473,2.2719,2.3106,2.2767,2.1278,2.0454,1.9676,1.891,1.8166,1.7422,1.6699,1.5977,1.5595,1.5561,0.0,0.0,0.0,0.0,0.0,0.0,0.0,0.0,0.0,0.0,0.0,0.0,0.0,0.0,0.0,0.0,0.0,0.0,0.0,0.0,0.0,3.3106,3.5644,3.5847,3.843,4.0696,4.1753,4.3098,4.3667,4.2855,4.3328,4.3768,4.3972,4.4654,4.5162,4.5399,4.5906,4.6177,4.6177,4.6177,4.6177,4.6177,4.6177,4.6177,4.6177,4.6177,4.5906,4.5399,4.5399,4.5094,4.4581,4.4378,4.3944,4.3375,4.32,4.2658,4.1914,4.117,4.0561,4.0113,4.0113,4.0113,4.0113,4.0113,3.9977,3.9808,3.9808,3.93,3.87,3.87,3.8328,3.7855,3.7652,3.7212,3.6761,3.6524,3.5893,3.5295,3.5295,3.4742,3.4134,3.3952,3.3457,3.2814,3.1887,3.1549,3.0736,2.8705,2.8367,2.8231,2.7825,2.7155,2.6553,2.6209,2.5862,2.5386,2.4676,2.4873,2.4713,2.3761,2.3502,2.2603,2.0742,2.0237,1.9676,1.891,1.767,1.6654,1.591,1.5697,1.5325,0.0,0.0,0.0,0.0,0.0,0.0,0.0,0.0,0.0,0.0,0.0,0.0,0.0,0.0,0.0,0.0,0.0,0.0,0.0,0.0,0.0,0.0,3.6694,3.9334,3.9977,4.1542,4.3064,4.4248,4.506,4.5529,4.5529,4.5529,4.5529,4.5529,4.5906,4.6143,4.6143,4.6549,4.6786,4.6786,4.6786,4.6786,4.6786,4.6786,4.6786,4.6786,4.6786,4.6583,4.6143,4.6143,4.5771,4.506,4.506,4.4621,4.391,4.391,4.3436,4.2692,0.0,0.0,0.0,0.0,4.0113,4.0113,4.0113,4.0113,4.0113,4.0113,3.9808,3.9377,3.9073,3.87,3.8227,3.7618,3.7134,3.6728,3.6366,3.596,3.56,3.56,3.5261,3.4878,3.4573,3.4167,3.3626,3.2882,3.2767,0.0,3.0668,2.989,2.9256,2.8714,2.8185,2.7732,2.7258,2.677,2.6255,2.5728,2.5513,2.508,2.4191,2.3753,0.0,0.0,0.0,1.9749,1.868,1.7996,0.0,0.0,0.0,0.0,0.0,0.0,0.0,0.0,1.4482,1.4014,0.0,0.0,0.0,0.0,0.0,0.0,0.0,0.0,0.0,0.0,0.0,0.0,0.0,0.0,0.0,0.0,4.0282,4.3125,4.4649,4.4919,4.5162,4.5771,4.638,4.6786,4.6786,4.6786,4.6786,4.6786,4.6887,4.6921,4.6921,4.6989,0.0,0.0,0.0,4.7056,4.7056,4.7056,4.7056,4.7056,4.7056,4.6989,4.6921,4.6921,4.6515,4.5838,4.5737,4.5331,4.4716,4.4649,4.4181,4.3443,4.2625,4.188,4.1238,4.0519,4.0214,4.0214,4.0146,0.0,0.0,4.0113,4.0113,3.9977,3.9309,3.9073,3.8734,3.7438,3.6931,3.666,3.5926,3.5667,3.56,3.56,3.56,3.543,3.4776,3.4607,3.4404,3.366,3.3525,3.3267,3.2428,3.1219,2.9921,2.8635,2.8791,2.8667,2.7671,2.7336,2.6976,2.6258,2.5721,0.0,2.4188,2.392,2.3324,2.219,2.1178,1.997,1.8503,1.8905,1.9362,1.9904,2.0005,2.0389,2.111,2.0766,1.9914,1.8528,1.6675,1.6114,0.0,0.0,0.0,0.0,0.0,0.0,0.0,0.0,0.0,0.0,0.0,0.0,0.0,0.0,0.0,3.9851,4.2489,4.4682,4.6143,4.6887,4.709,4.665,4.6718,4.6786,4.6786,4.6786,4.6786,4.6786,4.7361,4.7699,4.7699,4.824,4.8578,4.8578,4.8578,4.8578,4.8578,4.8578,4.8578,4.8578,4.8578,0.0,4.7699,4.7699,4.7293,4.6549,4.5974,4.5635,4.5432,4.4852,4.4513,4.4215,4.2828,4.2185,4.1982,4.1271,4.1001,4.0899,4.0316,4.0113,4.0113,4.0113,4.0113,4.0079,3.9943,3.9445,0.0,3.8633,3.7743,3.6761,3.6626,3.6096,3.56,3.56,3.56,3.5566,3.5397,3.5363,3.5182,3.4438,3.4269,3.3881,3.2586,3.2098,3.1576,3.0715,2.9822,2.9165,2.8931,2.8366,2.7382,2.5832,2.6289,2.6088,2.4487,2.4503,2.4089,2.2887,2.2043,2.0911,1.9491,2.0141,2.0205,1.9544,2.01,2.0449,2.0558,2.1077,2.0951,2.0178,1.8151,1.6978,0.0,0.0,0.0,0.0,0.0,0.0,0.0,0.0,0.0,0.0,0.0,3.4358,3.5441,0.0,4.073,4.2591,4.479,4.6515,4.7259,4.8003,4.8206,4.7428,4.7665,4.7902,4.7902,4.7902,4.7902,4.7902,4.824,4.8477,4.8477,4.8815,4.9018,4.9018,4.9018,4.9018,4.9018,4.9018,4.9018,4.9018,4.9018,4.8815,4.8477,4.8477,4.8071,4.7327,4.6989,4.6583,4.6177,4.5432,4.4925,4.4513,4.3768,4.32,4.276,4.2016,4.1745,4.1644,4.0899,4.0629,4.0595,4.0214,4.0113,4.0045,3.9673,3.9276,3.8903,3.8565,3.7652,3.6795,3.6795,3.6197,3.56,3.56,3.56,3.56,3.56,3.56,3.5498,3.5115,3.5047,3.47,3.3618,3.3434,3.271,3.0641,2.9783,2.9243,2.8938,2.8511,2.8012,2.743,2.726,2.6944,2.6338,2.5285,2.4092,2.2747,2.2285,2.1561,2.0513,2.1014,2.1118,2.0619,2.0972,2.1327,2.1698,2.1836,2.1894,2.1845,2.0364,1.9462,0.0,0.0,0.0,0.0,0.0,0.0,0.0,3.1698,3.2476,3.4675,3.6806,3.8623,3.9648,4.2049,4.4147,4.5094,4.6752,4.7939,4.8075,4.8646,4.8781,4.8176,4.8646,4.9018,4.9018,4.9018,4.9018,4.9018,4.9018,4.9018,4.9018,4.9018,4.9018,4.9018,4.9018,4.9018,4.9018,4.9018,4.9018,4.9018,4.9018,4.9018,4.9018,4.9018,4.868,4.8139,4.7939,4.7496,4.6752,4.6143,4.5466,4.479,4.479,4.4316,4.3538,4.2794,4.2523,4.2422,4.1677,4.1407,4.1305,4.0553,4.0316,4.018,3.9436,3.9106,3.887,3.8294,3.7584,3.7032,3.7032,3.6434,3.5836,3.5836,3.5701,3.56,3.56,3.56,3.56,3.56,3.56,3.5329,3.4466,3.4209,3.3237,3.0656,2.9977,2.9598,2.9147,2.8745,2.8619,2.8839,2.7965,2.7506,2.7997,2.6178,2.453,2.3359,2.3057,2.2521,2.1693,2.1841,2.1949,2.1911,2.2055,2.242,2.3056,2.2811,2.2873,2.3191,2.2539,2.2099,3.3038,3.0499,2.9721,3.2171,3.1867,3.2679,0.0,3.9343,3.8633,4.0832,4.2618,4.3538,4.3031,4.4316,4.5906,4.7327,4.7736,4.8139,4.8781,4.8951,4.8984,4.8883,4.8951,4.9018,4.9018,4.9018,4.9018,4.9018,4.9018,4.9018,4.9018,4.9018,4.9018,4.9018,4.9018,4.9018,4.9018,4.9018,4.9018,4.9018,4.9018,4.9018,4.9018,4.9018,4.8951,4.8849,4.8176,4.7496,4.6786,4.6718,4.6244,4.5568,4.5568,4.5128,4.4378,4.3572,4.3274,4.3172,4.2422,4.2185,4.2049,4.1305,4.1068,4.0933,4.0214,3.9537,3.8971,3.8903,3.8362,3.7787,3.7787,3.7212,3.666,3.666,3.6129,3.56,3.56,3.56,3.56,3.56,3.56,3.5191,3.3899,3.3208,3.2843,3.2949,3.1945,3.1166,3.1101,3.0041,2.8876,2.7816,2.7547,2.7466,2.7421,2.7134,2.6944,2.6732,2.5728,2.4604,2.3366,2.2866,2.2504,2.2245,2.2878,2.3219,2.3285,2.3874,2.3948,2.3562,2.3907,2.344,3.64,3.4878,3.4472,3.5723,3.6535,3.7956,4.1474,4.1914,4.2083,4.391,4.5466,4.6278,4.5534,4.6616,4.7699,4.7872,4.8244,4.8646,4.8951,4.9018,4.8849,4.8409,4.8376,4.8545,4.8951,4.9018,4.9018,4.9018,4.9018,4.9018,4.9018,4.9018,4.9018,4.9018,4.9018,4.9018,4.9018,4.9018,4.9018,4.9018,4.9018,4.9018,4.9018,4.9018,4.9018,4.8984,4.868,4.8139,4.7462,4.7462,4.7022,4.6346,4.6346,4.5872,4.5128,4.4384,4.4079,4.3978,4.32,4.2963,4.2828,4.2083,4.1847,4.1711,4.0967,4.0527,4.0189,3.9749,3.9106,3.8531,3.8531,3.799,3.7313,3.6897,3.6535,3.6163,3.5701,3.56,3.56,3.56,3.56,3.5407,3.4864,3.4528,3.4416,3.4655,3.2228,3.0342,3.0342,2.9821,2.925,2.8663,2.86,2.8293,2.7488,2.7425,2.7114,2.6363,2.584,2.5319,2.4777,2.4507,2.4327,2.4221,2.4537,2.4659,2.4645,2.4962,2.515,2.5238,2.515,2.4976,3.8396,3.8058,3.8294,3.87,4.0493,4.2388,4.3335,4.4113,4.4964,4.6075,4.7327,4.7936,4.6955,4.8003,4.8781,4.8007,4.8545,4.9018,4.9018,4.8815,4.8511,4.7939,4.7703,4.78,4.8342,4.8578,4.8781,4.8984,4.9018,4.9018,4.9018,4.9018,4.9018,4.9018,4.9018,4.9018,4.9018,4.9018,4.9018,4.9018,4.9018,4.9018,4.9018,4.9018,4.9018,4.9018,4.9018,4.8714,4.8176,4.8176,4.7767,4.709,4.709,4.665,4.5906,4.5162,4.4784,4.4513,4.3944,4.3741,4.3606,4.2861,4.2591,4.2455,4.1745,4.1373,4.1102,4.0527,3.9851,3.9276,3.9276,3.8768,3.8058,3.754,3.7269,3.6874,3.6096,3.579,3.5551,3.5373,3.5168,3.4981,3.4816,3.4769,3.4721,3.4496,3.1993,3.0208,3.0395,2.9889,2.9441,2.921,2.9163,2.8787,2.7845,2.776,2.7388,2.6462,2.6226,2.6042,2.5884,2.5704,2.5615,2.5615,2.5615,2.5615,2.5615,2.5615,2.5794,2.6183,2.5771,2.5794,3.8125,3.843,3.9309,4.073,4.2794,4.4886,4.6312,4.7225,4.777,4.7804,4.8443,4.8511,4.7056,4.8003,4.8781,4.8007,4.8545,4.9018,4.9018,4.8376,4.7906,4.7906,4.7259,4.6819,4.6853,4.753,4.824,4.8951,4.9018,4.9018,4.9018,4.9018,4.9018,4.9018,4.9018,4.9018,4.9018,4.9018,4.9018,4.9018,4.9018,4.9018,4.9018,4.9018,4.9018,4.9018,4.9018,4.8984,4.8984,4.8984,4.8545,4.7872,4.7872,4.7428,4.6684,4.594,4.5196,4.4615,4.4581,4.4581,4.4418,4.3639,4.3375,4.3234,4.2489,4.1779,4.1204,4.117,4.0629,4.0079,4.0079,3.9537,3.8937,3.8937,3.8396,3.7652,3.6931,3.62,3.5498,3.4772,3.4096,3.3469,3.2788,3.2711,3.2465,3.1739,3.1508,3.1688,3.2431,3.0798,2.9349,2.8689,2.8629,2.8586,2.847,2.848,2.8456,2.8401,2.7798,2.7172,2.6566,2.5944,2.5615,2.5615,2.5615,2.5615,2.5615,2.5615,2.5615,2.5638,2.5615,2.5615,3.914,4.0595,4.2286,4.3809,4.55,4.7056,4.8037,4.8443,4.8646,4.8646,4.8037,4.7394,4.6887,4.7192,4.7462,4.7225,4.8206,4.9018,4.9018,4.8781,4.8274,4.7293,4.6955,4.6616,4.6109,4.6752,4.7496,4.821,4.8274,4.8714,4.9661,4.9729,4.9965,5.0439,5.0473,5.0473,5.0473,5.0473,5.0473,5.0473,4.9965,4.9458,4.9018,4.9018,4.9018,4.9018,4.9018,4.9018,4.9018,4.9018,4.8849,4.8646,4.8646,4.8206,4.7496,4.7259,4.6684,4.5906,4.4953,4.4615,4.4581,4.4282,4.4181,4.4045,4.3267,4.2861,4.2557,4.2083,4.1407,4.0832,4.0832,4.0257,3.9605,3.9106,3.8802,3.843,3.7686,3.6946,3.6333,3.6122,3.51,3.417,3.3946,3.3572,3.3182,3.2917,3.2516,3.2296,3.2488,3.1597,3.0803,3.0548,2.9785,2.9252,2.9221,2.9217,2.9217,2.9217,2.8581,2.8117,2.7919,2.726,2.6926,2.6926,2.6926,2.6926,2.6926,2.6926,2.6926,2.6926,2.6926,2.6926,4.1162,4.2929,4.4587,4.6109,4.7394,4.8443,4.8883,4.9018,4.8951,4.868,4.7428,4.6312,4.6041,4.5534,4.5466,4.6278,4.7192,4.8105,4.8883,4.8545,4.797,4.7259,4.6718,4.6312,4.6109,4.6278,4.6819,4.7804,4.8142,4.8815,5.0033,5.0101,5.0439,5.1151,5.1185,5.1185,5.1185,5.1185,5.1185,5.1217,5.0439,4.983,4.939,4.912,4.9018,4.9018,4.9018,4.9018,4.9018,4.9018,4.9018,4.9018,4.9018,4.8714,4.8244,4.7973,4.7597,4.6989,4.55,4.4993,4.4925,4.4682,4.4615,4.4513,4.3978,4.3639,4.3274,4.2828,4.2151,4.1576,4.1576,4.1035,4.0358,3.9884,3.958,3.9174,3.8464,3.7492,3.6738,3.6447,3.5226,3.4133,3.3878,3.3287,3.2837,3.2837,3.2707,3.2578,3.2562,3.1947,3.1566,3.1546,3.0589,2.994,2.9966,2.9753,2.9621,2.9621,2.9175,2.8966,2.8966,2.8543,2.8304,2.8304,2.8304,2.8304,2.8304,2.8094,2.7974,2.7974,2.7705,2.7585,4.3876,4.5263,4.621,4.7631,4.8477,4.9018,4.9018,4.8984,4.8714,4.7939,4.6549,4.5229,4.4412,4.3159,4.2963,4.5128,4.5669,4.6583,4.8714,4.78,4.7158,4.7804,4.6684,4.6075,4.6718,4.621,4.6413,4.777,4.8545,4.9289,5.0101,5.0168,5.0541,5.1286,5.132,5.132,5.132,5.132,5.1319,5.1219,5.0541,5.0168,5.0067,4.939,4.9052,4.9018,4.9018,4.9018,4.9018,4.9018,4.9018,4.9018,4.9018,4.9018,4.8917,4.821,4.7939,4.7736,4.6312,4.5771,4.5602,4.4857,4.4649,4.4615,4.4615,4.4079,4.3443,4.3443,4.2929,4.2354,4.2354,4.1813,4.1271,4.1204,4.0663,3.9943,3.9208,3.7939,3.6708,3.5979,3.4645,3.3396,3.2676,3.1988,3.154,3.1511,3.2107,3.2574,3.2602,3.1994,3.1583,3.165,3.0995,3.0585,3.0655,3.0054,2.9711,2.9711,2.9681,2.9651,2.9651,2.9621,2.9621,2.9621,2.9621,2.9621,2.9621,2.8966,2.8637,2.8637,2.8004,2.7705,4.5568,4.7192,4.824,4.8646,4.8849,4.9018,4.9018,4.8578,4.7834,4.6549,4.4181,4.1779,3.9952,4.0629,4.1677,4.2252,4.5162,4.7733,4.8849,4.868,4.8308,4.7939,4.7567,4.7192,4.6819,4.7124,4.75,4.7872,4.8075,4.8984,5.0845,5.1454,5.2097,5.2909,5.2909,5.2909,5.2909,5.2909,5.2604,5.2029,5.1826,5.115,5.0067,4.9898,4.9526,4.9018,4.9018,4.9018,4.9018,4.9018,4.9018,4.9018,4.9018,4.9018,4.8984,4.8781,4.8714,4.8612,4.7665,4.6616,4.5669,4.5466,4.5026,4.4615,4.4615,4.4479,4.4282,4.4282,4.3741,4.3132,4.3132,4.2591,4.188,4.1339,4.1068,4.073,3.9977,3.9093,3.8396,3.8204,3.6524,3.4767,3.3604,3.2758,3.2079,3.157,3.1653,3.1994,3.2547,3.2437,3.2348,3.2354,3.1693,3.1237,3.1285,3.1116,3.1002,3.1002,3.0552,3.0283,3.0283,2.9861,2.9621,2.9621,2.9621,2.9621,2.9621,2.9442,2.9352,2.9352,2.9172,2.9082,4.753,4.8612,4.9086,4.939,4.9255,4.8748,4.7767,4.7225,4.6143,4.3335,4.117,3.9073,3.6806,3.799,3.958,4.0561,4.3944,4.6955,4.8342,4.8545,4.8477,4.8409,4.8075,4.7838,4.7767,4.7868,4.8142,4.8815,4.8883,4.956,5.115,5.1894,5.2672,5.3484,5.3518,5.3518,5.3518,5.3518,5.3281,5.2807,5.2469,5.186,5.1048,5.0371,4.9864,4.9458,4.9154,4.9018,4.9018,4.9018,4.9018,4.9018,4.9018,4.9018,4.9018,4.9018,4.9018,4.8951,4.8545,4.7631,4.6616,4.6278,4.5669,4.506,4.506,4.4886,4.4615,4.4615,4.4248,4.3944,4.3944,4.3369,4.2578,4.1814,4.1191,4.0508,3.9692,3.8983,3.8454,3.8454,3.7216,3.5947,3.5173,3.3908,3.2903,3.2507,3.192,3.1625,3.2048,3.2104,3.2244,3.2574,3.1938,3.1625,3.1966,3.1682,3.1511,3.1511,3.1152,3.0941,3.0941,3.0612,3.0432,3.0432,3.0432,3.0432,3.0432,3.0133,2.9983,2.9983,2.9741,2.9621,4.9492,4.9796,4.9424,4.9965,4.956,4.8409,4.621,4.5399,4.391,3.958,3.7889,3.6502,3.4303,3.534,3.7235,3.9469,4.2414,4.5229,4.7567,4.7906,4.8142,4.8917,4.8545,4.8443,4.9086,4.868,4.8883,5.0135,5.0338,5.0676,5.1319,5.2063,5.2773,5.3484,5.3518,5.3518,5.3518,5.3518,5.3518,5.3484,5.2807,5.2401,5.2266,5.098,5.027,5.0067,4.9424,4.9086,4.9018,4.9018,4.9018,4.9018,4.9018,4.9018,4.9018,4.9018,4.9018,4.9018,4.9018,4.8578,4.7936,4.7192,4.6447,4.5838,4.5838,4.5331,4.475,4.475,4.4682,4.4615,4.4615,4.4079,4.3373,4.2555,4.1418,4.0264,3.9301,3.8459,3.7889,3.7822,3.7221,3.6745,3.6649,3.5159,3.3923,3.383,3.2654,3.1804,3.1804,3.1598,3.1739,3.2382,3.1881,3.1768,3.241,3.1881,3.1511,3.1511,3.1511,3.1511,3.1511,3.1511,3.1511,3.1511,3.1511,3.1511,3.1511,3.0941,3.0642,3.0642,3.0103,2.9834,5.0541,5.0947,5.071,5.0202,4.956,4.8409,4.621,4.3775,4.1068,3.7821,3.5103,3.2801,3.1157,3.3085,3.5622,3.7922,4.1271,4.4592,4.75,4.7906,4.8142,4.8917,4.9424,4.9763,4.9898,5.0338,5.0712,5.1014,5.1589,5.1961,5.2097,5.2875,5.3382,5.3518,5.3518,5.3518,5.3518,5.3518,5.3518,5.3518,5.3382,5.2942,5.23,5.2029,5.1251,5.0067,4.9965,4.956,4.9018,4.9018,4.9018,4.9018,4.9018,4.9018,4.9018,4.9018,4.9018,4.9018,4.9018,4.8917,4.8714,4.797,4.7225,4.6616,4.6616,4.6075,4.55,4.55,4.506,4.4615,4.4615,4.4513,4.4187,4.3373,4.3008,4.2445,4.0931,3.958,3.8435,3.7889,3.7168,3.647,3.5907,3.5509,3.5079,3.4581,3.3844,3.3323,3.3323,3.2272,3.1568,3.1682,3.1597,3.1568,3.1682,3.1597,3.1511,3.1511,3.1511,3.1511,3.1511,3.1511,3.1511,3.1511,3.1511,3.1511,3.1511,3.1391,3.1331,3.1331,3.1212,3.1182,5.0913,5.0913,5.0642,5.0676,4.956,4.7564,4.4147,4.1644,3.8768,3.4235,3.2171,3.0581,2.8687,3.1393,3.4303,3.5385,3.898,4.2733,4.5771,4.6515,4.7327,4.8815,4.9661,5.0101,5.0101,5.0777,5.1386,5.1758,5.2097,5.23,5.23,5.3078,5.3518,5.3518,5.3518,5.3518,5.3518,5.3518,5.3518,5.3518,5.3518,5.3315,5.2909,5.2503,5.1691,5.0642,5.027,4.9661,4.9018,4.9018,4.9018,4.9018,4.9018,4.9018,4.9018,4.9018,4.9018,4.9018,4.9018,4.9018,4.8951,4.8612,4.797,4.7361,4.7361,4.6853,4.6177,4.5805,4.5466,4.506,4.4716,4.4615,4.4401,4.3538,4.27,4.1825,4.0661,3.9854,3.9168,3.8464,3.8009,3.7518,3.6855,3.6093,3.5632,3.5751,3.4898,3.4376,3.4762,3.3529,3.2359,3.1569,3.1511,3.1511,3.1511,3.1511,3.1511,3.1511,3.1511,3.1511,3.1511,3.1511,3.1511,3.1511,3.1511,3.1511,3.1511,3.1511,3.1511,3.1511,3.1511,3.1511,5.0777,5.0676,5.0439,5.0879,4.9323,4.6549,4.2185,3.9546,3.6535,3.119,2.9702,2.889,2.7232,2.9973,3.2713,3.3525,3.6874,4.0561,4.3876,4.5128,4.6481,4.8511,4.9695,5.0338,5.0338,5.115,5.1928,5.2503,5.257,5.257,5.257,5.3179,5.3518,5.3518,5.3518,5.3518,5.3518,5.3518,5.3518,5.3518,5.3518,5.3518,5.3484,5.2841,5.2164,5.1386,5.0676,4.9932,4.9221,4.9086,4.9018,4.9018,4.9018,4.9018,4.9018,4.9018,4.9018,4.9018,4.9018,4.9018,4.9018,4.9018,4.8612,4.8142,4.8142,4.7631,4.6921,4.6346,4.6075,4.5771,4.5026,4.4852,4.4614,4.3772,4.2498,4.13,4.0559,4.0278,3.9871,3.8958,3.8769,3.8486,3.7671,3.6685,3.6219,3.6673,3.5674,3.5149,3.5929,3.4774,3.3483,3.2308,3.1776,3.1511,3.1511,3.1511,3.1511,3.1511,3.1511,3.1511,3.1511,3.1511,3.1511,3.1511,3.1511,3.1511,3.1511,3.1511,3.1511,3.1511,3.1511,3.1511,4.9999,5.0642,5.0947,5.0338,4.8545,4.5906,4.2083,3.7922,3.3998,3.0784,2.845,2.7165,2.7621,2.8619,3.0499,3.3829,3.5915,3.8599,4.2929,4.479,4.6278,4.7804,4.9833,5.1083,5.1083,5.2435,5.3315,5.3382,5.3382,5.3382,5.3382,5.345,5.3518,5.3518,5.3518,5.3518,5.3518,5.3518,5.3518,5.3518,5.3518,5.3518,5.3518,5.3416,5.2942,5.2164,5.142,5.0676,4.9932,4.9289,4.9018,4.9018,4.9018,4.9018,4.9018,4.9018,4.9018,4.9018,4.9018,4.9018,4.9018,4.9018,4.8951,4.8917,4.8917,4.8376,4.777,4.7703,4.7225,4.6515,4.5805,4.5602,4.5404,4.4637,4.3764,4.2903,4.2206,4.1476,4.045,3.8997,3.8713,3.8269,3.6874,3.7053,3.7219,3.6691,3.6009,3.5808,3.661,3.5474,3.4552,3.4432,3.2666,3.1511,3.1511,3.1511,3.1511,3.1511,3.1511,3.1511,3.1511,3.1511,3.1511,3.1511,3.1511,3.1511,3.1511,3.1511,3.1511,3.1511,3.1511,3.1511,4.9763,5.0304,5.0473,5.0168,4.8105,4.5162,4.1381,3.7415,3.3525,3.0142,2.7977,2.6793,2.7097,2.7774,2.9228,3.2036,3.341,3.5644,4.0121,4.1644,4.3369,4.6244,4.8545,5.0236,5.1083,5.2604,5.3518,5.3518,5.3518,5.3518,5.3518,5.3518,5.3518,5.3518,5.3518,5.3518,5.3518,5.3518,5.3518,5.3518,5.3518,5.3518,5.3518,5.3518,5.3078,5.2266,5.1522,5.0777,5.0033,4.9289,4.9018,4.9018,4.9018,4.9018,4.9018,4.9018,4.9018,4.9018,4.9018,4.9018,4.9018,4.9018,4.9018,4.9018,4.9018,4.8815,4.8477,4.8007,4.7669,4.7293,4.6549,4.6041,4.55,4.4784,4.4327,4.3731,4.2378,4.1849,4.0991,3.8919,3.8964,3.8982,3.7975,3.7741,3.7717,3.7956,3.6965,3.6497,3.7288,3.6137,3.5439,3.5897,3.4426,3.3086,3.2197,3.2079,3.1929,3.154,3.1511,3.1511,3.1511,3.1511,3.1511,3.1511,3.1511,3.1511,3.1511,3.1511,3.1511,3.1511,3.1511,3.1511,4.8984,4.9593,4.9763,4.9763,4.7564,4.4451,4.0899,3.7043,3.3186,2.9721,2.7791,2.6691,2.6691,2.73,2.8466,3.0548,3.1867,3.4032,3.8091,3.9681,4.1576,4.4654,4.6989,4.8951,5.0405,5.2334,5.3518,5.3518,5.3518,5.3518,5.3518,5.3518,5.3518,5.3518,5.3518,5.3518,5.3518,5.3518,5.3518,5.3518,5.3518,5.3518,5.3518,5.3518,5.3179,5.2604,5.1623,5.0913,5.0338,4.939,4.9018,4.9018,4.9018,4.9018,4.9018,4.9018,4.9018,4.9018,4.9018,4.9018,4.9018,4.9018,4.9018,4.9018,4.9018,4.9018,4.8883,4.8376,4.8041,4.78,4.7259,4.6413,4.5568,4.5026,4.4784,4.4236,4.3015,4.2769,4.2202,4.0238,4.0344,4.045,3.9533,3.8999,3.8654,3.858,3.7621,3.7062,3.7383,3.6557,3.6215,3.7025,3.6213,3.5038,3.3592,3.327,3.2851,3.2214,3.1925,3.172,3.1511,3.1511,3.1511,3.1511,3.1511,3.1511,3.1511,3.1511,3.1511,3.1511,3.1511,3.1511,4.7327,4.8477,4.9018,4.9018,4.6786,4.3836,4.079,3.6637,3.2577,2.9619,2.7791,2.6691,2.6691,2.73,2.8297,2.9871,3.1968,3.4438,3.7483,3.9817,4.1745,4.324,4.5432,4.7394,4.8883,5.1758,5.3518,5.3518,5.3518,5.3518,5.3518,5.3518,5.3518,5.3518,5.3518,5.3518,5.3518,5.3518,5.3518,5.3518,5.3518,5.3518,5.3518,5.3518,5.3518,5.3416,5.1894,5.1185,5.105,4.9627,4.9018,4.9018,4.9018,4.9018,4.9018,4.9018,4.9018,4.9018,4.9018,4.9018,4.9018,4.9018,4.9018,4.9018,4.9018,4.9018,4.9018,4.8984,4.8477,4.7906,4.7872,4.6819,4.5703,4.5703,4.5128,4.4615,4.4587,4.4587,4.4327,4.341,4.3259,4.2788,4.1241,4.0957,4.0228,3.806,3.7685,3.7437,3.6693,3.66,3.6904,3.7703,3.7761,3.7214,3.5856,3.51,3.4395,3.3737,3.2938,3.2168,3.154,3.1511,3.1511,3.1511,3.1511,3.1511,3.1511,3.1511,3.1511,3.1511,3.1511,3.1511,4.2997,4.4248,4.4959,4.391,4.2591,4.073,3.7719,3.4742,3.1799,2.8789,2.7402,2.6691,2.6691,2.6894,2.8213,3.1799,3.2949,3.4641,3.8159,4.0561,4.2523,4.4045,4.797,5.0947,5.1995,5.2942,5.3518,5.3518,5.3518,5.3518,5.3518,5.3518,5.3518,5.3518,5.3518,5.3518,5.3518,5.3518,5.3518,5.3518,5.3518,5.3518,5.3518,5.3518,5.3213,5.2638,5.1657,5.0913,5.0371,4.939,4.9018,4.9018,4.9018,4.9018,4.9018,4.9018,4.9018,4.9018,4.9018,4.9018,4.9018,4.9018,4.9018,4.9018,4.9018,4.9018,4.9018,4.9018,4.8849,4.8545,4.8007,4.7534,4.6955,4.594,4.5534,4.5053,4.396,4.371,4.3439,4.2583,4.2862,4.3133,4.2661,4.2171,4.1651,4.0956,3.9929,3.8807,3.753,3.7344,3.725,3.7027,3.6964,3.6855,3.6533,3.6274,3.5622,3.4452,3.4133,3.3663,3.2916,3.2886,3.2647,3.2168,3.2168,3.1959,3.1511,3.1511,3.1511,3.1511,3.1511,3.1511,4.0054,4.1677,4.2422,4.1779,4.0663,3.8946,3.6208,3.366,3.1089,2.8365,2.7215,2.6691,2.6691,2.6928,2.8044,3.0833,3.2002,3.3694,3.684,3.9478,4.2117,4.5089,4.8984,5.1792,5.257,5.3179,5.3518,5.3518,5.3518,5.3518,5.3518,5.3518,5.3518,5.3518,5.3518,5.3518,5.3518,5.3518,5.3518,5.3518,5.3518,5.3518,5.3484,5.3179,5.2773,5.2232,5.1251,5.0507,0.0,4.9289,4.9018,4.9018,4.9018,4.9018,4.9018,4.9018,4.9018,4.9018,4.9018,4.9018,4.9018,4.9018,4.9018,4.9018,4.9018,4.9018,4.9018,4.9018,4.9018,4.8883,4.8443,4.8139,4.7669,4.6752,4.6109,4.5424,4.4419,4.3968,4.3621,4.3108,4.341,4.3768,4.3768,4.346,4.297,4.2381,4.1481,4.0301,3.8777,3.8559,3.8308,3.7555,3.7461,3.7387,3.7182,3.7206,3.6689,3.5568,3.5508,3.5009,3.4,3.3939,3.3608,3.2886,3.2886,3.2826,3.2725,3.2452,3.2209,3.191,3.1625,3.1511,0.0,3.9952,4.0696,4.1271,3.9918,3.7855,3.5633,3.3017,0.0,2.8196,2.7199,2.6725,2.6826,2.7317,2.7858,2.8229,3.004,3.2205,3.4506,3.755,4.1441,4.6515,4.9018,5.0608,5.1319,5.2672,5.3518,5.3518,5.3518,5.3518,5.3518,5.3518,5.3518,5.3518,5.3518,5.3518,5.3518,5.3518,5.3518,5.3518,5.3518,5.3518,5.3484,5.2672,5.2266,5.2131,5.071,5.0067,4.9965,4.9289,4.9018,4.9018,4.9018,4.9018,4.9018,4.9018,4.9018,4.9018,4.9018,4.9018,4.9018,4.9018,4.9018,4.9018,4.9018,4.9018,4.9018,4.9018,4.9018,4.9018,4.9018,4.8511,4.7973,4.7906,4.6853,4.5838,4.5805,4.5196,4.4682,4.4682,4.4649,4.4615,4.4615,4.4615,4.4119,4.2692,4.2444,4.1884,4.0363,4.0176,3.9859,3.9063,3.8969,3.8651,3.7863,3.7825,3.7534,3.6886,3.6882,3.6257,3.4976,3.4916,3.4566,3.3758,3.3637,3.394,3.4618,3.3994,3.3373,3.2726,3.2031,3.1717,3.1765,0.0,3.4134,3.322,3.2983,3.2577,0.0,3.0025,2.9044,2.73,2.6826,2.708,2.8231,2.7638,2.8281,3.2273,3.3355,3.4709,3.755,4.1982,4.6244,4.9763,5.1657,5.2773,5.2942,5.3281,5.3518,5.3518,5.3518,5.3518,5.3518,5.3518,5.3518,5.3518,5.3518,5.3518,5.3518,5.3518,5.3518,5.3518,5.3518,5.3518,5.3484,5.2672,5.1995,5.142,5.0507,4.9763,4.9255,4.9086,4.9018,4.9018,4.9018,4.9018,4.9018,4.9018,4.9018,4.9018,4.9018,4.9018,4.9018,4.9018,4.9018,4.9018,4.9018,4.9018,4.9018,4.9018,4.9018,4.9018,4.9018,4.8883,4.8612,4.8007,4.7635,4.7259,4.665,4.5974,4.5432,4.5432,4.4993,4.4615,4.4615,4.4615,4.4491,4.4119,4.4057,4.3499,4.1946,4.176,4.1229,3.9889,3.9734,3.9175,3.784,3.7757,3.7726,3.7566,3.7566,3.7444,3.7083,3.7083,3.674,3.6058,3.4951,3.4208,3.3789,3.3608,3.3753,3.4208,3.4008,3.3952,2.8315,3.0378,3.2192,3.1732,3.1664,3.1413,3.0262,2.9194,2.8112,2.6928,2.6691,2.7063,2.8247,2.8078,2.8908,3.2408,3.3558,3.552,3.9884,4.4418,4.8274,5.0881,5.257,5.3518,5.3518,5.3518,5.3518,5.3518,5.3518,5.3518,5.3518,5.3518,5.3518,5.3518,5.3518,5.3518,5.3518,5.3518,5.3518,5.3518,5.3518,5.3315,5.2909,5.2164,5.1386,5.0642,4.9932,4.9357,4.9018,4.9018,4.9018,4.9018,4.9018,4.9018,4.9018,4.9018,4.9018,4.9018,4.9018,4.9018,4.9018,4.9018,4.9018,4.9018,4.9018,4.9018,4.9018,4.9018,4.9018,4.9018,4.9018,4.9018,4.8917,4.8511,4.8173,4.777,4.7394,4.6718,4.621,4.621,4.5602,4.5094,4.5094,4.4818,4.4615,4.4615,4.4615,4.4305,4.3466,4.3342,4.2754,4.1232,4.1046,4.0425,3.8871,3.8794,3.8344,3.7326,3.7905,3.8133,3.7822,3.8104,3.7967,3.7242,3.6862,3.6087,3.4993,3.537,3.5414,3.5159,3.5184,3.5212,2.7131,2.9721,3.2327,3.2374,3.2171,3.1752,3.0886,2.9296,2.779,2.7165,2.7029,2.7334,2.8297,2.8958,2.9924,3.1765,3.3491,3.6535,4.2049,4.5872,4.8818,5.0948,5.257,5.3518,5.3518,5.3518,5.3518,5.3518,5.3518,5.3518,5.3518,5.3518,5.3518,5.3518,5.3518,5.345,5.3315,5.345,5.345,5.3315,5.3315,5.2909,5.2097,5.1386,5.071,5.0067,4.9323,4.9018,4.9018,4.9018,4.9018,4.9018,4.9018,4.9018,4.9018,4.9018,4.9018,4.9018,4.9018,4.9018,4.9018,4.9018,4.9018,4.9018,4.9018,4.9018,4.9018,4.9018,4.9018,4.9018,4.9018,4.9018,4.9018,4.9018,4.8545,4.8041,4.8041,4.7496,4.6955,4.6955,4.638,4.5872,4.5872,4.5331,4.4919,4.4784,4.4784,4.475,4.4615,4.4615,4.4119,4.2783,4.2659,4.2008,4.0488,4.0363,3.9423,3.7248,3.8241,3.8595,3.7994,3.869,3.8718,3.7962,3.858,3.8231,3.6866,3.759,3.7377,3.6194,3.6244,3.6271,2.9059,3.092,3.1549,2.8484,2.9093,3.0074,2.8635,2.8586,2.8773,2.8671,2.8637,2.9247,3.1244,3.121,3.1989,3.5407,3.8227,4.1204,4.4688,4.7293,4.9424,5.0982,5.257,5.3518,5.3518,5.3518,5.3518,5.3518,5.3518,5.3518,5.3518,5.3518,5.3518,5.3518,5.3518,5.3179,5.2503,5.3179,5.3179,5.2469,5.2469,5.2097,5.132,5.0608,5.0202,5.0067,4.9323,4.9018,4.9018,4.9018,4.9018,4.9018,4.9018,4.9018,4.9018,4.9018,4.9018,4.9018,4.9018,4.9018,4.9018,4.9018,4.9018,4.9018,4.9018,4.9018,4.9018,4.9018,4.9018,4.9018,4.9018,4.9018,4.9018,4.9018,4.8917,4.8849,4.8849,4.8274,4.7733,4.7733,4.7158,4.6616,4.6616,4.6515,4.6244,4.5635,4.5534,4.5297,4.4682,4.4615,4.4491,4.4271,4.4243,4.3623,4.2071,4.1946,4.1229,3.9582,3.9092,3.8832,3.875,3.9506,3.9558,3.8745,3.8854,3.846,3.7633,3.7776,3.8051,3.8417,3.8417,3.8444,2.7977,2.9668,3.0683,2.8958,3.0514,3.2307,3.1596,3.1089,3.0905,3.1292,3.1075,3.1345,3.3173,3.3525,3.4945,3.9073,4.1948,4.4384,4.6583,4.8443,5.0135,5.1623,5.2807,5.3518,5.3518,5.3518,5.3518,5.3518,5.3112,5.2841,5.2841,5.2469,5.2266,5.2266,5.2266,5.2097,5.1725,5.2097,5.2097,5.1725,5.1725,5.1319,5.0574,5.0236,4.9864,4.9492,4.9154,4.9018,4.9018,4.9018,4.9018,4.9018,4.9018,4.9018,4.9052,4.9458,4.9593,4.9661,5.0067,5.0202,5.0202,5.0202,4.9932,4.9661,5.0067,4.9627,4.9086,4.9492,4.9323,4.9018,4.9018,4.9018,4.9018,4.9018,4.9018,4.9018,4.9018,4.8748,4.8511,4.8511,4.7902,4.7394,4.7394,4.7056,4.6684,4.6346,4.6278,4.6177,4.5805,4.5432,4.5196,4.5196,4.4852,4.4305,4.359,4.3528,4.2712,4.0772,4.0355,4.0315,4.0702,4.071,4.0508,4.016,3.9759,3.9183,3.8386,3.8832,3.8995,3.8908,3.9342,3.9558,2.7893,2.9161,3.0446,3.0784,3.2442,3.41,3.4641,3.3863,3.3322,3.4269,3.3998,3.3986,3.5081,3.6332,3.8362,4.1982,4.4621,4.6684,4.797,4.9424,5.0845,5.2164,5.301,5.3518,5.3518,5.3518,5.3416,5.3247,5.2638,5.2232,5.2063,5.1522,5.1185,5.1185,5.1185,5.115,5.0947,5.0947,5.0947,5.0947,5.0947,5.0574,4.983,4.983,4.9526,4.9018,4.9018,4.9018,4.9018,4.9018,4.9018,4.9018,4.9018,4.912,4.9323,4.9898,5.0202,5.0439,5.1014,5.1185,5.1185,5.1185,5.0845,5.0473,5.1048,5.0405,4.9627,5.0202,4.9965,4.9458,4.9086,4.9018,4.9018,4.9018,4.9018,4.9018,4.9018,4.9018,4.9018,4.9018,4.8545,4.8173,4.8173,4.7699,4.7259,4.709,4.7056,4.6989,4.6819,4.6312,4.5974,4.5974,4.5297,4.4818,4.4615,4.4615,4.3884,4.2114,4.1621,4.1626,4.2045,4.1666,4.1474,4.1474,4.0899,4.0329,3.9707,4.0329,4.0303,3.9707,4.0329,4.062,3.1345,3.1515,3.1461,3.2814,3.2814,3.3004,3.5059,3.543,3.5769,3.728,3.755,3.755,3.7652,3.9952,4.2151,4.3139,4.5809,4.8007,4.8815,5.0202,5.142,5.2198,5.301,5.3518,5.3518,5.3518,5.3179,5.2435,5.2334,5.1995,5.1319,5.1219,5.1185,5.1185,5.1185,5.0879,5.0168,5.0168,5.0168,5.0168,5.0168,4.9796,4.9086,4.9086,4.9052,4.9018,4.9018,4.9018,4.9018,4.9018,4.9018,4.9018,4.9018,4.9424,5.0033,5.0067,5.0541,5.115,5.1151,5.1185,5.1185,5.1185,5.1151,5.1117,5.1151,5.1117,5.1082,5.1116,5.105,5.0744,4.9357,4.9018,4.9018,4.9018,4.9018,4.9018,4.9018,4.9018,4.9018,4.9018,4.8951,4.8917,4.8917,4.8883,4.8612,4.7906,4.7804,4.7597,4.6887,4.6752,4.6718,4.6718,4.6075,4.5331,4.4682,4.4615,4.4519,4.4361,4.2941,4.1869,4.1291,4.1896,4.2219,4.2219,4.2151,4.2091,4.2064,4.2091,4.2091,4.2064,4.2117,4.2117,2.989,3.0378,3.0987,3.2916,3.4235,3.5441,3.6738,3.8067,3.9487,4.1009,4.0967,4.0493,4.0054,4.2016,4.3944,4.4722,4.6955,4.9018,5.0202,5.0879,5.1691,5.2909,5.3315,5.3315,5.2807,5.2739,5.2435,5.1691,5.1183,5.0811,5.0541,5.0101,4.983,4.983,4.983,4.9695,4.9424,4.9424,4.9424,4.9424,4.9424,4.9255,4.9018,4.9018,4.9018,4.9018,4.9018,4.9018,4.9018,4.9018,4.9018,4.9018,4.9018,4.9458,5.0135,5.0608,5.1251,5.1961,5.2469,5.2638,5.2638,5.2638,5.23,5.1995,5.2503,5.1961,5.1319,5.1758,5.1555,5.1082,5.0507,5.0033,4.9661,4.9661,4.9323,4.9018,4.9018,4.9018,4.9018,4.9018,4.9018,4.9018,4.9018,4.9018,4.8917,4.8646,4.8578,4.8477,4.8206,4.7767,4.7496,4.7496,4.6819,4.6075,4.5331,4.5263,4.5094,4.4649,4.4029,4.3585,4.3345,4.3097,4.2997,4.2997,4.2523,4.2286,4.2286,4.2286,4.2286,4.2286,4.2286,4.2286,2.8976,2.9533,3.0581,3.2577,3.4945,3.7202,3.8599,4.0493,4.232,4.3842,4.3538,4.2794,4.2049,4.3572,4.5094,4.5635,4.7564,4.9424,5.0676,5.0845,5.1352,5.2638,5.2773,5.257,5.2029,5.1961,5.1657,5.0913,5.0371,4.9999,4.9763,4.9255,4.9018,4.9018,4.9018,4.9018,4.9018,4.9018,4.9018,4.9018,4.9018,4.9018,4.9018,4.9018,4.9018,4.9018,4.9018,4.9018,4.9018,4.9018,4.9018,4.9018,4.9018,4.9593,5.0507,5.1014,5.1826,5.2773,5.3315,5.3518,5.3518,5.3518,5.3145,5.2773,5.3348,5.2773,5.2029,5.2536,5.2334,5.1928,5.1928,5.1183,5.0371,5.0135,4.9695,4.9289,4.9052,4.9018,4.9018,4.9018,4.9018,4.9018,4.9018,4.9018,4.9018,4.9018,4.9018,4.9018,4.9018,4.8578,4.8173,4.7906,4.7462,4.6853,4.6109,4.5838,4.5466,4.4959,4.475,4.4615,4.4615,4.4079,4.3775,4.3775,4.3267,4.3058,4.3058,4.3058,4.3058,4.3058,4.3058,4.3058,2.9382,2.9533,3.048,3.1955,3.4595,3.7608,4.0561,4.2388,4.3849,4.5399,4.5128,4.4378,4.3544,4.4688,4.5703,4.5703,4.7564,4.9255,4.9999,5.0101,5.0371,5.1116,5.1185,5.1185,5.1217,5.1217,5.0879,5.0135,5.0067,4.9763,4.9052,4.9018,4.9018,4.9018,4.9018,4.9018,4.9018,4.9018,4.9018,4.9018,4.9018,4.9018,4.9018,4.9018,4.9018,4.9018,4.9018,4.9018,4.9018,4.9018,4.9018,4.9018,4.9018,4.9898,5.1185,5.1185,5.2198,5.3518,5.3518,5.3518,5.3518,5.3518,5.3518,5.3518,5.3518,5.3518,5.3518,5.3518,5.3518,5.3518,5.3518,5.2367,5.1048,5.0304,5.0101,4.9898,4.9187,4.9018,4.9018,4.9018,4.9018,4.9018,4.9018,4.9018,4.9018,4.9018,4.9018,4.9018,4.9018,4.9018,4.8714,4.7973,4.7906,4.7631,4.6853,4.6143,4.5737,4.5703,4.5026,4.4615,4.4615,4.4615,4.4615,4.4615,4.4615,4.4615,4.4615,4.4615,4.4615,4.4615,4.4615,4.4615,2.8586,2.9499,3.136,3.3376,3.6907,4.0527,4.3058,4.4316,4.5466,4.6955,4.665,4.5906,4.5162,4.5838,4.6481,4.6481,4.7902,4.9255,4.9999,5.0101,5.0371,5.1116,5.1185,5.1014,5.0473,5.0439,5.0101,4.939,4.9323,4.9221,4.9018,4.9018,4.9018,4.9018,4.9018,4.9018,4.9018,4.9018,4.9018,4.9018,4.9018,4.9018,4.9018,4.9018,4.9018,4.9018,4.9018,4.9018,4.9018,4.9018,4.9018,4.9018,4.9018,4.9898,5.1185,5.1185,5.2198,5.3518,5.3518,5.3518,5.3518,5.3518,5.3518,5.3518,5.3518,5.3518,5.3518,5.3518,5.3518,5.3518,5.3518,5.3179,5.2638,5.1826,5.1251,5.0676,4.9932,4.9763,4.9627,4.9086,4.9018,4.9018,4.9018,4.9018,4.9018,4.9018,4.9018,4.9018,4.9018,4.9018,4.8917,4.8714,4.868,4.8376,4.7665,4.7394,4.7022,4.6515,4.6244,4.5698,4.4649,4.4615,4.4615,4.4615,4.4615,4.4615,4.4615,4.4615,4.4615,4.4615,4.4615,4.4615,2.9262,3.0581,3.2679,3.5216,3.8565,4.2016,4.5196,4.6244,4.6921,4.8075,4.7767,4.709,4.6684,4.6955,4.7259,4.7259,4.824,4.9154,4.9593,4.9661,4.983,5.027,5.0338,5.0168,4.9695,4.9661,4.9492,4.9052,4.9018,4.9018,4.9018,4.9018,4.9018,4.9018,4.9018,4.9018,4.9018,4.9018,4.9018,4.9018,4.9018,4.9018,4.9018,4.9018,4.9018,4.9018,4.9018,4.9018,4.9018,4.9018,4.9018,4.9018,4.9018,4.9729,5.0811,5.1116,5.1995,5.3078,5.3382,5.3518,5.3518,5.3518,5.3518,5.3518,5.3518,5.3518,5.3518,5.3518,5.3518,5.3518,5.3518,5.3518,5.3315,5.2503,5.1961,5.1454,5.071,5.0541,5.0405,4.9965,4.9898,4.9796,4.9492,4.9424,4.9323,4.9052,4.9018,4.9018,4.9018,4.9018,4.9018,4.9018,4.9018,4.8815,4.8376,4.8041,4.7733,4.7259,4.6955,4.638,4.5529,4.5162,4.4919,4.4615,4.4615,4.4615,4.4615,4.4615,4.4615,4.4615,4.4615,4.4615,3.0548,3.2239,3.4303,3.728,3.9884,4.2794,4.6925,4.7939,4.8176,4.8849,4.8477,4.7973,4.7973,4.7973,4.7973,4.7973,4.8578,4.9018,4.9018,4.9018,4.9018,4.9018,4.9018,4.9018,4.9018,4.9018,4.9018,4.9018,4.9018,4.9018,4.9018,4.9018,4.9018,4.9018,4.9018,4.9018,4.9018,4.9018,4.9018,4.9018,4.9018,4.9018,4.9018,4.9018,4.9018,4.9018,4.9018,4.9018,4.9018,4.9018,4.9018,4.9018,4.9018,4.9458,5.0168,5.0947,5.1691,5.2435,5.3213,5.3518,5.3518,5.3518,5.3518,5.3518,5.3518,5.3518,5.3518,5.3518,5.3518,5.3518,5.3518,5.3518,5.3315,5.257,5.2401,5.2198,5.1488,5.1319,5.1285,5.1185,5.1185,5.1014,5.0304,5.0202,4.9932,4.9221,4.9052,4.9018,4.9018,4.9018,4.9018,4.9018,4.9018,4.9018,4.9018,4.8409,4.7973,4.7973,4.7361,4.6955,4.6887,4.6177,4.5466,4.4818,4.475,4.4716,4.4716,4.4649,4.4615,4.4615,4.4615,4.4615,2.877,3.1745,3.5701,3.8159,4.2219,4.6007,4.7534,4.8376,4.8815,4.8984,4.8883,4.8781,4.8781,4.8781,4.8781,4.8781,4.8917,4.9018,4.9018,4.9018,4.9018,4.9018,4.9018,4.9018,4.9018,4.9018,4.9018,4.9018,4.9018,4.9018,4.9018,4.9018,4.9018,4.9018,4.9018,4.9018,4.9018,4.9018,4.9018,4.9018,4.9018,4.9018,4.9018,4.9018,4.9018,4.9018,4.9018,4.9018,4.9018,4.9018,4.9018,4.9018,4.9018,4.9458,5.0168,5.0947,5.1691,5.2435,5.3213,5.3518,5.3518,5.3518,5.3518,5.3518,5.3518,5.3518,5.3518,5.3518,5.3518,5.3518,5.3518,5.3518,5.345,5.3281,5.3247,5.3044,5.2232,5.2063,5.1894,5.1319,5.1185,5.1151,5.1014,5.098,5.071,4.9965,4.9357,4.9018,4.9018,4.9018,4.9018,4.9018,4.9018,4.9018,4.9018,4.8849,4.8781,4.8781,4.8612,4.8274,4.7699,4.6955,4.6481,4.6312,4.5771,4.5466,4.5466,4.4857,4.4615,4.4615,4.4615,4.4615,3.0123,3.3288,3.7043,4.0764,4.4248,4.6989,4.7733,4.8477,4.9018,4.9018,4.9018,4.9018,4.9018,4.9018,4.9018,4.9018,4.9018,4.9018,4.9018,4.9018,4.9018,4.9018,4.9018,4.9018,4.9018,4.9018,4.9018,4.9018,4.9018,4.9018,4.9018,4.9018,4.9018,4.9018,4.9018,4.9018,4.9018,4.9018,4.9018,4.9018,4.9018,4.9018,4.9018,4.9018,4.9018,4.9018,4.9018,4.9018,4.9018,4.9018,4.9018,4.9018,4.9018,4.9221,4.9695,5.0811,5.1454,5.1961,5.3112,5.3518,5.3518,5.3518,5.3518,5.3518,5.3518,5.3518,5.3518,5.3518,5.3518,5.3518,5.3518,5.3518,5.3518,5.3518,5.3518,5.3382,5.2976,5.2875,5.2773,5.2401,5.23,5.2198,5.1792,5.1454,5.1082,5.0676,4.9999,4.9526,4.9526,4.9221,4.9018,4.9018,4.9018,4.9018,4.9018,4.9018,4.9018,4.9018,4.9018,4.8849,4.8443,4.8071,4.753,4.6819,4.6413,4.6244,4.6244,4.5838,4.5466,4.5128,4.5128,4.4953,3.1393,3.4742,3.8386,4.3362,4.5602,4.6853,4.7703,4.8376,4.8849,4.8984,4.9018,4.9018,4.9018,4.9018,4.9018,4.9018,4.9018,4.9018,4.9018,4.9018,4.9018,4.9018,4.9018,4.9018,4.9018,4.9018,4.9018,4.9018,4.9018,4.9018,4.9018,4.9018,4.9018,4.9018,4.9018,4.9018,4.9018,4.9018,4.9018,4.9018,4.9018,4.9018,4.9018,4.9018,4.9018,4.9018,4.9018,4.9018,4.9018,4.9018,4.9018,4.9018,4.9018,4.9018,4.9187,5.0676,5.1185,5.142,5.2976,5.3518,5.3518,5.3518,5.3518,5.3518,5.3518,5.3518,5.3518,5.3518,5.3518,5.3518,5.3518,5.3518,5.3518,5.3518,5.3518,5.3518,5.3518,5.3518,5.3518,5.3518,5.3518,5.3281,5.2638,5.1894,5.1386,5.1386,5.0777,5.027,5.027,4.9661,4.9187,4.9187,4.9086,4.9018,4.9018,4.9018,4.9018,4.9018,4.9018,4.9018,4.9018,4.9018,4.8443,4.7192,4.7056,4.6989,4.6989,4.6853,4.6481,4.5906,4.5906,4.5568,2.8196,3.3525,3.9648,4.3633,4.5229,4.621,4.7597,4.7973,4.824,4.8883,4.9018,4.9018,4.9018,4.9018,4.9018,4.9018,4.9018,4.9018,4.9018,4.9018,4.9018,4.9018,4.9018,4.9018,4.9018,4.9018,4.9018,4.9018,4.9018,4.9018,4.9018,4.9018,4.9018,4.9018,4.9018,4.9018,4.9018,4.9018,4.9018,4.9018,4.9018,4.9018,4.9018,4.9018,4.9018,4.9018,4.9018,4.9018,4.9018,4.9018,4.9018,4.9018,4.9018,4.9018,4.9187,5.0676,5.1185,5.142,5.2976,5.3518,5.3518,5.3518,5.3518,5.3518,5.3518,5.3518,5.3518,5.3518,5.3518,5.3518,5.3518,5.3518,5.3518,5.3518,5.3518,5.3518,5.3518,5.3518,5.3518,5.3518,5.3518,5.3484,5.3382,5.2672,5.2164,5.2164,5.1522,5.1082,5.1082,5.0405,4.9932,4.9932,4.939,4.9018,4.9018,4.9018,4.9018,4.9018,4.9018,4.9018,4.9018,4.9018,4.8917,4.8714,4.8105,4.7736,4.7736,4.7124,4.6752,4.665,4.665,4.6583,3.0934,3.552,3.9884,4.3667,4.5128,4.5872,4.6515,4.6989,4.7496,4.824,4.8376,4.8511,4.8917,4.9018,4.9018,4.9018,4.9018,4.9018,4.9018,4.9018,4.9018,4.9018,4.9018,4.9018,4.9018,4.9018,4.9018,4.9018,4.9018,4.9018,4.9018,4.9018,4.9018,4.9018,4.9018,4.9018,4.9018,4.9018,4.9018,4.9018,4.9018,4.9018,4.9018,4.9018,4.9018,4.9018,4.9018,4.9018,4.9018,4.9018,4.9018,4.9018,4.9018,4.9018,4.9187,5.0676,5.1185,5.142,5.2976,5.3518,5.3518,5.3518,5.3518,5.3518,5.3518,5.3518,5.3518,5.3518,5.3518,5.3518,5.3518,5.3518,5.3518,5.3518,5.3518,5.3518,5.3518,5.3518,5.3518,5.3518,5.3518,5.3518,5.3518,5.3213,5.2976,5.2976,5.2334,5.1826,5.1826,5.1183,5.071,5.071,5.0439,5.0067,4.9661,4.9627,4.9424,4.9018,4.9018,4.9018,4.9018,4.9018,4.9018,4.9018,4.868,4.8545,4.8545,4.8206,4.7834,4.7428,4.7428,4.7192,3.2171,3.5588,3.8193,4.1974,4.3876,4.4925,4.5331,4.5974,4.6718,4.7496,4.7631,4.78,4.8342,4.8748,4.9018,4.9018,4.9018,4.9018,4.9018,4.9018,4.9018,4.9018,4.9018,4.9018,4.9018,4.9018,4.9018,4.9018,4.9018,4.9018,4.9018,4.9018,4.9018,4.9018,4.9018,4.9018,4.9018,4.9018,4.9018,4.9018,4.9018,4.9018,4.9018,4.9018,4.9018,4.9018,4.9018,4.9018,4.9018,4.9018,4.9018,4.9018,4.9018,4.9018,4.9187,5.0676,5.1185,5.142,5.2976,5.3518,5.3518,5.3518,5.3518,5.3518,5.3518,5.3518,5.3518,5.3518,5.3518,5.3518,5.3518,5.3518,5.3518,5.3518,5.3518,5.3518,5.3518,5.3518,5.3518,5.3518,5.3518,5.3518,5.3518,5.3518,5.3518,5.3518,5.2976,5.2604,5.2604,5.1961,5.1488,5.1488,5.1319,5.098,5.0439,5.0371,5.0135,4.9593,4.939,4.9289,4.9289,4.9086,4.9018,4.9018,4.9018,4.9018,4.9018,4.9018,4.8714,4.8206,4.8206,4.7902,2.8265,3.0973,3.3546,3.7313,4.0392,4.2861,4.4344,4.5229,4.5974,4.6718,4.6853,4.6853,4.6887,4.8071,4.9018,4.9018,4.9018,4.9018,4.9018,4.9018,4.9018,4.9018,4.9018,4.9018,4.9018,4.9018,4.9018,4.9018,4.9018,4.9018,4.9018,4.9018,4.9018,4.9018,4.9018,4.9018,4.9018,4.9018,4.9018,4.9018,4.9018,4.9018,4.9018,4.9018,4.9018,4.9018,4.9018,4.9018,4.9018,4.9018,4.9018,4.9018,4.9018,4.9018,4.9187,5.0676,5.1185,5.142,5.2976,5.3518,5.3518,5.3518,5.3518,5.3518,5.3518,5.3518,5.3518,5.3518,5.3518,5.3518,5.3518,5.3518,5.3518,5.3518,5.3518,5.3518,5.3518,5.3518,5.3518,5.3518,5.3518,5.3518,5.3518,5.3518,5.3518,5.3518,5.345,5.345,5.345,5.2739,5.2232,5.2232,5.1623,5.1151,5.1151,5.115,5.115,5.1116,5.0439,5.0033,5.0033,4.9357,4.9018,4.9018,4.9018,4.9018,4.9018,4.9018,4.8984,4.8951,4.8951,4.8917,2.7469,2.9871,3.2374,3.56,3.8328,4.0561,4.2083,4.3369,4.4587,4.5838,4.6075,4.6244,4.6718,4.7225,4.7597,4.7597,4.7597,4.7767,4.824,4.8308,4.8308,4.8308,4.8308,4.8105,4.7631,4.7597,4.7597,4.7597,4.7597,4.7597,4.7597,4.7597,4.7597,4.7597,4.7597,4.7834,4.8308,4.8781,4.9018,4.9018,4.9018,4.9018,4.9018,4.9018,4.9018,4.9018,4.9018,4.9018,4.9018,4.9018,4.9018,4.9018,4.9018,4.9018,4.9187,5.0676,5.1185,5.142,5.2976,5.3518,5.3518,5.3518,5.3518,5.3518,5.3518,5.3518,5.3518,5.3518,5.3518,5.3518,5.3518,5.3518,5.3518,5.3518,5.3518,5.3518,5.3518,5.3518,5.3518,5.3518,5.3518,5.3518,5.3518,5.3518,5.3518,5.3518,5.3518,5.3518,5.3518,5.3247,5.3078,5.3078,5.2841,5.2469,5.1961,5.1928,5.1725,5.1219,5.0947,5.0811,5.0811,5.0101,4.9695,4.9695,4.9255,4.9018,4.9018,4.9018,4.9018,4.9018,4.9018,4.9018,2.5931,2.7977,3.0446,3.3694,3.5622,3.7516,4.0527,4.1779,4.2794,4.4587,4.5128,4.5466,4.594,4.6041,4.621,4.6718,4.6786,4.6955,4.7462,4.753,4.753,4.753,4.753,4.7327,4.6853,4.6786,4.6786,4.6786,4.6786,4.6786,4.6786,4.6786,4.6786,4.6786,4.6786,4.7158,4.7872,4.8409,4.8781,4.9018,4.9018,4.9018,4.9018,4.9018,4.9018,4.9018,4.9018,4.9018,4.9018,4.9018,4.9018,4.9018,4.9018,4.9154,4.9526,5.0777,5.1386,5.1758,5.3044,5.3518,5.3518,5.3518,5.3518,5.3518,5.3518,5.3518,5.3518,5.3518,5.3518,5.3518,5.3518,5.3518,5.3518,5.3518,5.3518,5.3518,5.3518,5.3518,5.3518,5.3518,5.3518,5.3518,5.3518,5.3518,5.3518,5.3518,5.3518,5.3518,5.3518,5.3518,5.3518,5.3518,5.3518,5.3281,5.2739,5.2706,5.2503,5.1995,5.1725,5.1589,5.1589,5.0879,5.0473,5.0473,4.9729,4.9357,4.9357,4.912,4.9018,4.9018,4.9018,4.9018,0.0,0.0,0.0,3.121,3.2124,3.3715,3.9614,4.0392,4.0553,4.2801,4.391,4.4479,4.4547,4.4581,4.5055,4.6481,4.6718,4.6718,4.6752,4.6752,4.6752,4.6752,4.6752,4.6752,4.6718,4.6718,4.6718,4.6718,4.6718,4.6718,4.6718,4.6718,4.6718,4.6718,4.6752,4.7124,4.7804,4.7872,4.8244,4.8984,4.8984,4.9018,4.9018,4.9018,4.9018,4.9018,4.9018,4.9018,4.9018,4.9018,4.9018,4.9018,4.9018,4.9458,5.0168,5.0947,5.1691,5.2435,5.3213,5.3518,5.3518,5.3518,5.3518,5.3518,5.3518,5.3518,5.3518,5.3518,5.3518,5.3518,5.3518,5.3551,5.3551,5.3551,5.3551,5.3551,5.3551,5.3551,5.3551,5.3518,5.3518,5.3518,5.3518,5.3518,5.3518,5.3518,5.3518,5.3518,5.3518,5.3518,5.3518,5.3518,5.3518,5.3518,5.3518,5.3518,5.3518,5.3518,5.2773,5.2334,5.2334,5.1623,5.1219,5.1219,5.0507,5.0101,5.0101,4.9357,4.9018,4.9018,4.9018,4.9018,2.3545,0.0,0.0,0.0,0.0,0.0,3.3884,3.5013,3.6332,4.0223,4.0764,4.1204,4.3335,4.3741,4.4045,4.5055,4.5224,4.5365,4.594,4.6007,4.6007,4.6007,4.6007,4.5771,4.5258,4.5224,4.5224,4.5224,4.5224,4.5224,4.5224,4.5224,4.5224,4.5224,4.5737,4.6109,4.6312,4.7394,4.8007,4.821,4.8748,4.9018,4.9018,4.9018,4.9018,4.9018,4.9018,4.9018,4.9018,4.9018,4.9018,4.9018,4.9018,4.9458,5.0168,5.0947,5.1691,5.2435,5.3213,5.3518,5.3518,5.3518,5.3518,5.3518,5.3518,5.3518,5.3518,5.3518,5.3518,5.3619,5.416,5.4702,5.5108,5.5108,5.5108,5.5108,5.5108,5.5108,5.4803,5.3721,5.3518,5.3518,5.3518,5.3518,5.3518,5.3518,5.3518,5.3518,5.3518,5.3518,5.3518,5.3518,5.3518,5.3518,5.3518,5.3518,5.3518,5.3518,5.3281,5.3179,5.3179,5.2401,5.1995,5.1995,5.1285,5.0642,5.0101,4.9357,4.9018,4.9018,4.9018,4.9018,2.4695,2.539,2.6674,2.7334,0.0,0.0,3.2645,3.3288,3.4303,3.9106,3.9986,4.0629,4.297,4.3375,4.3673,4.4479,4.4615,4.475,4.5162,4.5229,4.5229,4.5229,4.5229,4.506,4.4649,4.4615,4.4615,4.4615,4.4615,4.4615,4.4615,4.4615,4.4615,4.4615,4.5026,4.5399,4.5703,4.6853,4.7597,4.7906,4.8646,4.9018,4.9018,4.9018,4.9018,4.9018,4.9018,4.9018,4.9018,4.9018,4.9018,4.9018,4.9018,4.9661,5.0608,5.1048,5.1894,5.2875,5.3348,5.3518,5.3518,5.3518,5.3518,5.3518,5.3518,5.3518,5.3551,5.3856,5.4194,5.4532,5.4938,5.5378,5.5681,5.5681,5.5681,5.5681,5.5681,5.5681,5.548,5.46,5.4431,5.4329,5.4025,5.3957,5.3856,5.3551,5.3518,5.3518,5.3518,5.3518,5.3518,5.3518,5.3518,5.3518,5.3518,5.3518,5.3518,5.3518,5.3518,5.3518,5.3518,5.3044,5.2807,5.2807,5.2063,5.1319,5.0574,4.983,4.9289,4.9018,4.9018,4.9018,2.6691,2.7114,0.0,2.9548,2.8027,0.0,3.3334,3.3288,3.3444,3.8237,3.9783,4.073,4.2361,4.2733,4.3031,4.3768,4.4073,4.431,4.4581,4.4615,4.4615,4.4615,4.4615,4.4615,4.4615,4.4615,4.4615,4.4615,4.4615,4.4615,4.4615,4.4615,4.4615,4.4615,4.4615,4.4891,4.5568,4.6312,4.7056,4.777,4.8545,4.8917,4.9018,4.9018,4.9018,4.9018,4.9018,4.9018,4.9018,4.9018,4.9018,4.9018,4.9086,4.9965,5.1185,5.1286,5.2266,5.3518,5.3518,5.3518,5.3518,5.3518,5.3518,5.3518,5.3518,5.3518,5.3653,5.4397,5.5209,5.5817,5.5817,5.5886,5.5953,5.5953,5.5953,5.5953,5.5953,5.5953,5.5953,5.5953,5.5818,5.5513,5.4837,5.4702,5.4465,5.3721,5.3619,5.3585,5.3518,5.3518,5.3518,5.3518,5.3518,5.3518,5.3518,5.3518,5.3518,5.3518,5.3518,5.3518,5.3518,5.3518,5.3518,5.3518,5.2706,5.1995,5.132,5.0507,4.9763,4.912,4.9052,4.9018,2.9499,2.9871,3.0176,2.8635,2.9194,0.0,2.8687,2.9533,3.1157,3.3376,3.3952,3.4866,3.7608,3.8565,3.9039,3.9174,4.0696,4.2489,4.4344,4.4615,4.4615,4.4615,4.4615,4.4615,4.4615,4.4615,4.4615,4.4615,4.4615,4.4615,4.4615,4.4615,4.4615,4.4615,4.4615,4.4682,4.479,4.5534,4.6278,4.7022,4.7767,4.8443,4.9018,4.9018,4.9018,4.9018,4.9018,4.9018,4.9018,4.9018,4.9018,4.9052,4.9661,5.0439,5.1252,5.186,5.2706,5.3518,5.3518,5.3518,5.3518,5.3518,5.3518,5.3518,5.3518,5.3518,5.3653,5.4397,5.5547,5.6596,5.6596,5.7036,5.7476,5.7476,5.7476,5.7476,5.7476,5.7476,5.7476,5.7476,5.6528,5.5683,5.5513,5.5513,5.5243,5.4499,5.4397,5.416,5.3585,5.3518,5.3518,5.3518,5.3518,5.3518,5.3518,5.3518,5.3518,5.3518,5.3518,5.3518,5.3518,5.3518,5.3518,5.3518,5.2706,5.2232,5.2097,5.0744,5.0033,4.9864,4.9289,4.9018,3.1596,3.1732,3.2036,3.0866,3.0615,0.0,0.0,2.977,3.0378,3.3355,3.3051,3.3207,3.6254,3.6772,3.7144,3.8261,3.9986,4.161,4.2726,4.32,4.3464,4.3464,4.3464,4.3599,4.3978,4.4012,4.4147,4.4581,4.4615,4.4615,4.4615,4.4615,4.4615,4.4615,4.4615,4.4615,4.4615,4.5331,4.6075,4.6819,4.7564,4.8308,4.9018,4.9018,4.9018,4.9018,4.9018,4.9018,4.9018,4.9018,4.9018,4.9086,4.9796,5.0541,5.1286,5.2029,5.2807,5.3518,5.3518,5.3518,5.3518,5.3518,5.3518,5.3518,5.3518,5.4025,5.4769,5.548,5.6494,5.734,5.734,5.7611,5.7881,5.7881,5.7881,5.7881,5.7881,5.7881,5.7881,5.7881,5.7306,5.6697,5.6325,5.6258,5.6021,5.5277,5.4837,5.4465,5.4093,5.3721,5.3518,5.3518,5.3518,5.3518,5.3518,5.3518,5.3518,5.3518,5.3518,5.3518,5.3518,5.3518,5.3518,5.3518,5.3112,5.2909,5.2909,5.1758,5.1014,5.0642,5.027,4.9898,3.3897,3.3998,3.4472,3.3626,3.2611,3.1935,0.0,0.0,0.0,3.3875,3.322,3.2835,3.5272,3.5182,3.5385,3.7212,3.8836,3.9918,3.9918,4.0663,4.1399,4.1839,4.2117,4.2489,4.2902,4.2861,4.3166,4.4107,4.4039,4.4073,4.435,4.4513,4.4615,4.4615,4.4615,4.4615,4.4615,4.5196,4.594,4.6786,4.7394,4.8173,4.9018,4.9018,4.9018,4.9018,4.9018,4.9018,4.9018,4.9018,4.9086,4.9289,4.9999,5.0676,5.1319,5.2198,5.2942,5.3518,5.3518,5.3518,5.3518,5.3518,5.3585,5.3721,5.3721,5.4735,5.6055,5.663,5.734,5.7881,5.7881,5.7881,5.7881,5.7881,5.7881,5.7881,5.7881,5.7881,5.7881,5.7881,5.7881,5.7712,5.7103,5.7002,5.6765,5.6021,5.5412,5.4972,5.4837,5.416,5.3721,5.3721,5.3585,5.3518,5.3518,5.3518,5.3518,5.3518,5.3518,5.3518,5.3518,5.3518,5.3518,5.3518,5.3518,5.3518,5.3518,5.2841,5.2164,5.142,5.1252,5.0879,0.0,0.0,0.0,0.0,3.5723,3.6502,3.0804,0.0,3.251,3.1035,0.0,3.1427,3.1765,0.0,0.0,3.2036,3.3863,3.525,3.525,3.6524,3.8149,4.0113,4.1474,4.2083,4.1508,4.0865,4.106,4.2455,4.1948,4.2151,4.3443,4.4215,4.4615,4.4615,4.4615,4.4615,4.4615,4.4682,4.5427,4.6786,4.6887,4.7665,4.9018,4.9018,4.9018,4.9018,4.9018,4.9018,4.9018,4.9018,4.939,5.0033,5.0811,5.115,5.1386,5.2841,5.3416,5.3518,5.3518,5.3518,5.3518,5.3518,5.3923,5.4465,5.4465,5.5513,5.6697,5.6799,5.734,5.7881,5.7881,5.7881,5.7881,5.7881,5.7881,5.7881,5.7881,5.7881,5.7881,5.7881,5.7881,5.7848,5.778,5.778,5.7509,5.6799,5.6596,5.6325,5.5683,5.4938,5.4465,5.4465,5.389,5.3518,5.3518,5.3518,5.3518,5.3518,5.3518,5.3518,5.3518,5.3518,5.3518,5.3518,5.3518,5.3518,5.3518,5.3416,5.2942,5.2164,5.1522,5.1183,0.0,0.0,0.0,0.0,0.0,0.0,3.251,0.0,3.1461,3.1393,0.0,0.0,0.0,0.0,0.0,0.0,3.2713,3.3694,3.3275,3.4527,3.6152,3.798,3.7946,3.8159,3.9208,3.9783,4.0696,4.2185,4.1204,4.1373,4.3274,4.3741,4.4113,4.4581,4.4615,4.4615,4.4615,4.5026,4.5771,4.6786,4.7225,4.8003,4.9018,4.9018,4.9018,4.9018,4.9018,4.9018,4.9018,4.9018,4.9424,5.0168,5.0913,5.1488,5.1995,5.3078,5.3518,5.3518,5.3518,5.3518,5.3585,5.3991,5.4329,5.4735,5.5615,5.6325,5.69,5.7306,5.7645,5.7881,5.7881,5.7881,5.7881,5.7881,5.7881,5.7881,5.7881,5.7881,5.7881,5.7881,5.7881,5.7881,5.7881,5.7881,5.778,5.7476,5.707,5.6697,5.6393,5.5683,5.5243,5.5243,5.4566,5.4126,5.4126,5.3754,5.3518,5.3518,5.3518,5.3518,5.3518,5.3518,5.3518,5.3518,5.3518,5.3518,5.3518,5.3518,5.3348,5.2976,5.2672,5.23,3.9242,0.0,0.0,0.0,0.0,0.0,0.0,0.0,0.0,0.0,0.0,0.0,0.0,0.0,0.0,0.0,0.0,3.278,3.1853,3.2442,3.358,3.5103,3.4832,3.5385,3.7686,3.8328,3.9343,4.1238,4.0045,4.0223,4.2665,4.3172,4.3673,4.4248,4.4513,4.4615,4.4615,4.5331,4.6075,4.6819,4.7564,4.8308,4.9018,4.9018,4.9018,4.9018,4.9018,4.9018,4.9018,4.9221,4.9729,5.0473,5.1217,5.1961,5.2706,5.3281,5.3518,5.3518,5.3518,5.3619,5.389,5.4431,5.4871,5.5378,5.6494,5.6934,5.7205,5.7746,5.7881,5.7881,5.7881,5.7881,5.7881,5.7881,5.7881,5.7881,5.7881,5.7881,5.7881,5.7881,5.7881,5.7881,5.7881,5.7881,5.7881,5.7881,5.7442,5.7103,5.7103,5.6461,5.6021,5.6021,5.5344,5.4905,5.4905,5.4397,5.4025,5.3822,5.3788,5.3721,5.3518,5.3518,5.3518,5.3518,5.3518,5.3518,5.3518,5.3518,5.3518,5.3518,5.3518,5.3179,0.0,0.0,0.0,3.7709,0.0,0.0,0.0,0.0,3.4167,0.0,0.0,0.0,0.0,0.0,0.0,0.0,0.0,0.0,0.0,2.96,2.9721,3.119,3.322,3.5385,3.7686,3.596,3.5893,3.887,3.7743,3.8159,4.1102,4.2598,4.3409,4.3443,4.4181,4.4615,4.4615,4.5331,4.6075,4.6819,4.7564,4.8308,4.9018,4.9018,4.9018,4.9018,4.9018,4.9018,4.9052,4.9763,5.0507,5.1251,5.1995,5.2773,5.345,5.3484,5.3518,5.3518,5.3518,5.3957,5.4566,5.4566,5.5547,5.6731,5.6799,5.7306,5.7848,5.7881,5.7881,5.7881,5.7881,5.7881,5.7881,5.7881,5.7881,5.7881,5.7881,5.7881,5.7881,5.7881,5.7881,5.7881,5.7881,5.7881,5.7881,5.7881,5.7881,5.7848,5.7848,5.7205,5.6765,5.6765,5.6122,5.5647,5.5647,5.5614,5.5344,5.46,5.4566,5.4228,5.3551,5.3518,5.3518,5.3518,5.3518,5.3518,5.3518,5.3518,5.3518,5.3518,5.3518,5.3484,0.0,0.0,4.4248,4.0045,0.0,0.0,0.0,0.0,0.0,0.0,0.0,0.0,0.0,0.0,0.0,0.0,0.0,0.0,0.0,2.7097,2.6742,2.8721,3.136,3.3173,3.3423,3.4539,3.5859,3.7438,3.71,3.8115,4.1035,4.2151,4.2895,4.3375,4.4181,4.4852,4.5331,4.6041,4.6786,4.7564,4.8274,4.8781,4.9018,4.9018,4.9018,4.9018,4.9018,4.9018,4.9052,4.9796,5.0541,5.1252,5.2029,5.2807,5.3518,5.3518,5.3518,5.3585,5.4059,5.4397,5.4769,5.575,5.6393,5.69,5.7374,5.7679,5.7881,5.7881,5.7881,5.7881,5.7881,5.7881,5.7881,5.7881,5.7881,5.7881,5.7881,5.7881,5.7881,5.7881,5.7881,5.7881,5.7881,5.7881,5.7881,5.7881,5.7881,5.7881,5.7881,5.7679,5.7509,5.7509,5.6867,5.6427,5.6427,5.5987,5.5615,5.5344,5.5344,5.5006,5.4262,5.4228,5.3991,5.3518,5.3518,5.3518,5.3518,5.3518,5.3518,5.3518,5.3518,5.3518,4.4756,4.55,0.0,4.2117,4.1068,0.0,3.5893,0.0,3.7246,0.0,0.0,0.0,0.0,0.0,0.0,0.0,0.0,0.0,0.0,2.5609,2.5507,2.7215,2.96,3.1447,3.2273,3.3152,3.4539,3.666,3.6051,3.7009,4.0257,4.161,4.2523,4.2997,4.4012,4.4925,4.5703,4.6413,4.7158,4.7906,4.8646,4.9018,4.9018,4.9018,4.9018,4.9018,4.9018,4.9154,4.9458,5.0202,5.0947,5.1691,5.2435,5.3044,5.3518,5.3518,5.3687,5.3957,5.4431,5.4938,5.5547,5.6494,5.6968,5.7273,5.7746,5.7881,5.7881,5.7881,5.7881,5.7881,5.7881,5.7881,5.7881,5.7881,5.7881,5.7881,5.7881,5.7881,5.7881,5.7881,5.7881,5.7881,5.7881,5.7881,5.7881,5.7881,5.7881,5.7881,5.7881,5.7881,5.7881,5.7881,5.7476,5.7171,5.7171,5.6765,5.6393,5.6122,5.6089,5.5784,5.5006,5.5006,5.4634,5.3923,5.389,5.3754,5.3518,5.3518,5.3518,5.3518,5.3518,5.3518]}]]